Wetterdaten: Samstag, 29.03.2025
Datum Zeit Temp. I. Temp. A. Feuchte I. Feuchte A. Luftdruck Regen Wind Richtung Richtung Sonnenschein Solar Taupunkt Windchill Windböen
29.03.2025 00:00 21,9 °C 1,7 °C 45 % 86 % 1008,8 hPa 0,0 l/m² 3,2 km/h (1 Bft) W 268 ° 0 min 0 W/m² -0,4 °C 1,7 °C 4,8 km/h (1 Bft)
29.03.2025 00:02 21,9 °C 1,2 °C 45 % 85 % 1008,8 hPa 0,0 l/m² 0,6 km/h (0 Bft) W 267 ° 0 min 0 W/m² -1,0 °C 1,2 °C 1,6 km/h (1 Bft)
29.03.2025 00:03 21,9 °C 1,0 °C 45 % 84 % 1008,8 hPa 0,0 l/m² 0,1 km/h (0 Bft) W 268 ° 0 min 0 W/m² -1,4 °C 1,0 °C 1,6 km/h (1 Bft)
29.03.2025 00:05 21,8 °C 0,6 °C 45 % 85 % 1008,7 hPa 0,0 l/m² 1,9 km/h (1 Bft) W 268 ° 0 min 0 W/m² -1,6 °C 0,6 °C 3,2 km/h (1 Bft)
29.03.2025 00:07 21,8 °C 0,4 °C 45 % 86 % 1008,7 hPa 0,0 l/m² 0,5 km/h (0 Bft) W 268 ° 0 min 0 W/m² -1,7 °C 0,4 °C 3,2 km/h (1 Bft)
29.03.2025 00:09 21,9 °C 0,4 °C 45 % 86 % 1008,8 hPa 0,0 l/m² 0,2 km/h (0 Bft) W 268 ° 0 min 0 W/m² -1,7 °C 0,4 °C 1,6 km/h (1 Bft)
29.03.2025 00:10 21,8 °C 0,4 °C 45 % 87 % 1008,7 hPa 0,0 l/m² 2,1 km/h (1 Bft) W 268 ° 0 min 0 W/m² -1,5 °C 0,4 °C 3,2 km/h (1 Bft)
29.03.2025 00:12 21,9 °C 0,5 °C 45 % 87 % 1008,8 hPa 0,0 l/m² 2,0 km/h (1 Bft) W 268 ° 0 min 0 W/m² -1,4 °C 0,5 °C 3,2 km/h (1 Bft)
29.03.2025 00:13 21,8 °C 0,6 °C 45 % 87 % 1008,9 hPa 0,0 l/m² 1,3 km/h (1 Bft) W 268 ° 0 min 0 W/m² -1,3 °C 0,6 °C 1,6 km/h (1 Bft)
29.03.2025 00:15 21,9 °C 0,7 °C 45 % 88 % 1008,9 hPa 0,0 l/m² 1,2 km/h (1 Bft) W 268 ° 0 min 0 W/m² -1,1 °C 0,7 °C 3,2 km/h (1 Bft)
29.03.2025 00:17 21,8 °C 0,9 °C 45 % 88 % 1008,8 hPa 0,0 l/m² 1,0 km/h (0 Bft) W 268 ° 0 min 0 W/m² -0,9 °C 0,9 °C 3,2 km/h (1 Bft)
29.03.2025 00:19 21,9 °C 1,0 °C 45 % 88 % 1008,8 hPa 0,0 l/m² 0,2 km/h (0 Bft) W 267 ° 0 min 0 W/m² -0,8 °C 1,0 °C 1,6 km/h (1 Bft)
29.03.2025 00:20 21,8 °C 1,0 °C 45 % 88 % 1008,8 hPa 0,0 l/m² 0,0 km/h (0 Bft) W 268 ° 0 min 0 W/m² -0,8 °C 1,0 °C 0,0 km/h (0 Bft)
29.03.2025 00:22 21,8 °C 1,1 °C 45 % 88 % 1008,9 hPa 0,0 l/m² 0,1 km/h (0 Bft) W 268 ° 0 min 0 W/m² -0,7 °C 1,1 °C 1,6 km/h (1 Bft)
29.03.2025 00:23 21,8 °C 1,1 °C 45 % 88 % 1008,9 hPa 0,0 l/m² 0,0 km/h (0 Bft) W 268 ° 0 min 0 W/m² -0,7 °C 1,1 °C 0,0 km/h (0 Bft)
29.03.2025 00:25 21,9 °C 1,2 °C 45 % 88 % 1008,9 hPa 0,0 l/m² 0,0 km/h (0 Bft) W 268 ° 0 min 0 W/m² -0,6 °C 1,2 °C 0,0 km/h (0 Bft)
29.03.2025 00:27 21,9 °C 1,1 °C 45 % 88 % 1008,8 hPa 0,0 l/m² 0,0 km/h (0 Bft) W 268 ° 0 min 0 W/m² -0,7 °C 1,1 °C 0,0 km/h (0 Bft)
29.03.2025 00:29 21,9 °C 1,1 °C 45 % 88 % 1008,8 hPa 0,0 l/m² 0,4 km/h (0 Bft) W 268 ° 0 min 0 W/m² -0,7 °C 1,1 °C 1,6 km/h (1 Bft)
29.03.2025 00:30 21,8 °C 1,1 °C 45 % 88 % 1008,8 hPa 0,0 l/m² 0,0 km/h (0 Bft) W 268 ° 0 min 0 W/m² -0,7 °C 1,1 °C 0,0 km/h (0 Bft)
29.03.2025 00:32 21,8 °C 1,1 °C 45 % 88 % 1008,8 hPa 0,0 l/m² 0,0 km/h (0 Bft) W 268 ° 0 min 0 W/m² -0,7 °C 1,1 °C 0,0 km/h (0 Bft)
29.03.2025 00:33 21,9 °C 1,1 °C 45 % 88 % 1008,9 hPa 0,0 l/m² 0,0 km/h (0 Bft) W 267 ° 0 min 0 W/m² -0,7 °C 1,1 °C 0,0 km/h (0 Bft)
29.03.2025 00:35 21,9 °C 1,2 °C 45 % 88 % 1008,8 hPa 0,0 l/m² 0,6 km/h (0 Bft) W 268 ° 0 min 0 W/m² -0,6 °C 1,2 °C 1,6 km/h (1 Bft)
29.03.2025 00:37 21,9 °C 1,3 °C 45 % 89 % 1008,8 hPa 0,0 l/m² 1,5 km/h (1 Bft) W 268 ° 0 min 0 W/m² -0,3 °C 1,3 °C 3,2 km/h (1 Bft)
29.03.2025 00:38 21,9 °C 1,3 °C 45 % 89 % 1008,8 hPa 0,0 l/m² 0,8 km/h (0 Bft) W 267 ° 0 min 0 W/m² -0,3 °C 1,3 °C 1,6 km/h (1 Bft)
29.03.2025 00:40 21,9 °C 1,4 °C 45 % 89 % 1008,8 hPa 0,0 l/m² 0,0 km/h (0 Bft) W 268 ° 0 min 0 W/m² -0,2 °C 1,4 °C 1,6 km/h (1 Bft)
29.03.2025 00:41 21,8 °C 1,4 °C 45 % 89 % 1008,8 hPa 0,0 l/m² 0,3 km/h (0 Bft) W 268 ° 0 min 0 W/m² -0,2 °C 1,4 °C 1,6 km/h (1 Bft)
29.03.2025 00:43 21,8 °C 1,4 °C 45 % 89 % 1008,7 hPa 0,0 l/m² 1,4 km/h (1 Bft) W 268 ° 0 min 0 W/m² -0,2 °C 1,4 °C 3,2 km/h (1 Bft)
29.03.2025 00:45 21,8 °C 1,4 °C 45 % 89 % 1008,7 hPa 0,0 l/m² 1,0 km/h (0 Bft) W 268 ° 0 min 0 W/m² -0,2 °C 1,4 °C 3,2 km/h (1 Bft)
29.03.2025 00:46 21,9 °C 1,4 °C 45 % 89 % 1008,7 hPa 0,0 l/m² 0,1 km/h (0 Bft) W 268 ° 0 min 0 W/m² -0,2 °C 1,4 °C 1,6 km/h (1 Bft)
29.03.2025 00:48 21,9 °C 1,4 °C 45 % 89 % 1008,7 hPa 0,0 l/m² 0,0 km/h (0 Bft) W 268 ° 0 min 0 W/m² -0,2 °C 1,4 °C 0,0 km/h (0 Bft)
29.03.2025 00:50 21,8 °C 1,4 °C 45 % 89 % 1008,7 hPa 0,0 l/m² 0,0 km/h (0 Bft) W 268 ° 0 min 0 W/m² -0,2 °C 1,4 °C 1,6 km/h (1 Bft)
29.03.2025 00:51 21,9 °C 1,4 °C 45 % 89 % 1008,7 hPa 0,0 l/m² 0,0 km/h (0 Bft) W 268 ° 0 min 0 W/m² -0,2 °C 1,4 °C 0,0 km/h (0 Bft)
29.03.2025 00:52 21,8 °C 1,4 °C 45 % 89 % 1008,6 hPa 0,0 l/m² 1,1 km/h (1 Bft) W 268 ° 0 min 0 W/m² -0,2 °C 1,4 °C 3,2 km/h (1 Bft)
29.03.2025 00:53 21,8 °C 1,4 °C 45 % 89 % 1008,6 hPa 0,0 l/m² 2,2 km/h (1 Bft) W 268 ° 0 min 0 W/m² -0,2 °C 1,4 °C 3,2 km/h (1 Bft)
29.03.2025 00:55 21,8 °C 1,4 °C 45 % 89 % 1008,5 hPa 0,0 l/m² 1,9 km/h (1 Bft) W 268 ° 0 min 0 W/m² -0,2 °C 1,4 °C 3,2 km/h (1 Bft)
29.03.2025 00:57 21,8 °C 1,4 °C 45 % 89 % 1008,5 hPa 0,0 l/m² 0,0 km/h (0 Bft) W 268 ° 0 min 0 W/m² -0,2 °C 1,4 °C 1,6 km/h (1 Bft)
29.03.2025 00:58 21,8 °C 1,5 °C 45 % 89 % 1008,4 hPa 0,0 l/m² 0,0 km/h (0 Bft) W 268 ° 0 min 0 W/m² -0,1 °C 1,5 °C 0,0 km/h (0 Bft)
29.03.2025 01:00 21,8 °C 1,4 °C 45 % 89 % 1008,5 hPa 0,0 l/m² 0,0 km/h (0 Bft) W 268 ° 0 min 0 W/m² -0,2 °C 1,4 °C 0,0 km/h (0 Bft)
29.03.2025 01:01 21,8 °C 1,3 °C 45 % 89 % 1008,4 hPa 0,0 l/m² 0,0 km/h (0 Bft) W 268 ° 0 min 0 W/m² -0,3 °C 1,3 °C 0,0 km/h (0 Bft)
29.03.2025 01:02 21,8 °C 1,3 °C 45 % 89 % 1008,4 hPa 0,0 l/m² 0,0 km/h (0 Bft) W 268 ° 0 min 0 W/m² -0,3 °C 1,3 °C 0,0 km/h (0 Bft)
29.03.2025 01:03 21,8 °C 1,3 °C 45 % 89 % 1008,4 hPa 0,0 l/m² 0,0 km/h (0 Bft) W 268 ° 0 min 0 W/m² -0,3 °C 1,3 °C 0,0 km/h (0 Bft)
29.03.2025 01:04 21,8 °C 1,3 °C 45 % 89 % 1008,4 hPa 0,0 l/m² 1,7 km/h (1 Bft) W 268 ° 0 min 0 W/m² -0,3 °C 1,3 °C 3,2 km/h (1 Bft)
29.03.2025 01:06 21,8 °C 1,3 °C 45 % 89 % 1008,5 hPa 0,0 l/m² 3,9 km/h (1 Bft) W 268 ° 0 min 0 W/m² -0,3 °C 1,3 °C 4,8 km/h (1 Bft)
29.03.2025 01:08 21,8 °C 1,3 °C 45 % 89 % 1008,4 hPa 0,0 l/m² 2,5 km/h (1 Bft) W 267 ° 0 min 0 W/m² -0,3 °C 1,3 °C 4,8 km/h (1 Bft)
29.03.2025 01:10 21,8 °C 1,3 °C 45 % 89 % 1008,4 hPa 0,0 l/m² 2,6 km/h (1 Bft) W 268 ° 0 min 0 W/m² -0,3 °C 1,3 °C 4,8 km/h (1 Bft)
29.03.2025 01:11 21,8 °C 1,3 °C 45 % 89 % 1008,4 hPa 0,0 l/m² 3,8 km/h (1 Bft) W 268 ° 0 min 0 W/m² -0,3 °C 1,3 °C 4,8 km/h (1 Bft)
29.03.2025 01:12 21,8 °C 1,3 °C 45 % 89 % 1008,4 hPa 0,0 l/m² 4,1 km/h (1 Bft) W 268 ° 0 min 0 W/m² -0,3 °C 1,3 °C 4,8 km/h (1 Bft)
29.03.2025 01:14 21,8 °C 1,3 °C 45 % 89 % 1008,4 hPa 0,0 l/m² 4,4 km/h (1 Bft) W 268 ° 0 min 0 W/m² -0,3 °C 1,3 °C 6,4 km/h (2 Bft)
29.03.2025 01:16 21,8 °C 1,3 °C 45 % 89 % 1008,4 hPa 0,0 l/m² 4,4 km/h (1 Bft) W 268 ° 0 min 0 W/m² -0,3 °C 1,3 °C 6,4 km/h (2 Bft)
29.03.2025 01:18 21,8 °C 1,3 °C 45 % 89 % 1008,4 hPa 0,0 l/m² 4,4 km/h (1 Bft) W 268 ° 0 min 0 W/m² -0,3 °C 1,3 °C 4,8 km/h (1 Bft)
29.03.2025 01:20 21,8 °C 1,3 °C 45 % 89 % 1008,4 hPa 0,0 l/m² 2,8 km/h (1 Bft) W 267 ° 0 min 0 W/m² -0,3 °C 1,3 °C 4,8 km/h (1 Bft)
29.03.2025 01:21 21,8 °C 1,3 °C 45 % 89 % 1008,3 hPa 0,0 l/m² 2,5 km/h (1 Bft) W 268 ° 0 min 0 W/m² -0,3 °C 1,3 °C 3,2 km/h (1 Bft)
29.03.2025 01:22 21,8 °C 1,3 °C 45 % 89 % 1008,3 hPa 0,0 l/m² 3,2 km/h (1 Bft) W 268 ° 0 min 0 W/m² -0,3 °C 1,3 °C 4,8 km/h (1 Bft)
29.03.2025 01:23 21,8 °C 1,3 °C 45 % 89 % 1008,3 hPa 0,0 l/m² 3,7 km/h (1 Bft) W 268 ° 0 min 0 W/m² -0,3 °C 1,3 °C 4,8 km/h (1 Bft)
29.03.2025 01:24 21,8 °C 1,2 °C 45 % 89 % 1008,2 hPa 0,0 l/m² 2,6 km/h (1 Bft) W 268 ° 0 min 0 W/m² -0,4 °C 1,2 °C 3,2 km/h (1 Bft)
29.03.2025 01:26 21,8 °C 1,2 °C 45 % 89 % 1008,4 hPa 0,0 l/m² 5,1 km/h (1 Bft) W-SW 253 ° 0 min 0 W/m² -0,4 °C 1,2 °C 9,7 km/h (2 Bft)
29.03.2025 01:28 21,8 °C 1,2 °C 45 % 89 % 1008,3 hPa 0,0 l/m² 6,8 km/h (2 Bft) W-SW 253 ° 0 min 0 W/m² -0,4 °C 0,8 °C 8,0 km/h (2 Bft)
29.03.2025 01:30 21,8 °C 1,2 °C 45 % 89 % 1008,4 hPa 0,0 l/m² 5,3 km/h (1 Bft) W-SW 254 ° 0 min 0 W/m² -0,4 °C 1,2 °C 6,4 km/h (2 Bft)
29.03.2025 01:31 21,8 °C 1,1 °C 45 % 89 % 1008,3 hPa 0,0 l/m² 4,6 km/h (1 Bft) W-SW 254 ° 0 min 0 W/m² -0,5 °C 1,1 °C 6,4 km/h (2 Bft)
29.03.2025 01:32 21,8 °C 1,2 °C 45 % 89 % 1008,3 hPa 0,0 l/m² 4,6 km/h (1 Bft) W-SW 254 ° 0 min 0 W/m² -0,4 °C 1,2 °C 4,8 km/h (1 Bft)
29.03.2025 01:33 21,8 °C 1,1 °C 45 % 89 % 1008,4 hPa 0,0 l/m² 5,6 km/h (2 Bft) W-SW 254 ° 0 min 0 W/m² -0,5 °C 1,1 °C 8,0 km/h (2 Bft)
29.03.2025 01:35 21,8 °C 1,1 °C 45 % 89 % 1008,3 hPa 0,0 l/m² 4,2 km/h (1 Bft) W-SW 255 ° 0 min 0 W/m² -0,5 °C 1,1 °C 6,4 km/h (2 Bft)
29.03.2025 01:37 21,8 °C 1,1 °C 45 % 89 % 1008,4 hPa 0,0 l/m² 2,2 km/h (1 Bft) W-SW 255 ° 0 min 0 W/m² -0,5 °C 1,1 °C 4,8 km/h (1 Bft)
29.03.2025 01:39 21,8 °C 1,1 °C 45 % 89 % 1008,4 hPa 0,0 l/m² 1,9 km/h (1 Bft) W-SW 255 ° 0 min 0 W/m² -0,5 °C 1,1 °C 3,2 km/h (1 Bft)
29.03.2025 01:40 21,8 °C 1,1 °C 45 % 89 % 1008,5 hPa 0,0 l/m² 3,7 km/h (1 Bft) W-SW 255 ° 0 min 0 W/m² -0,5 °C 1,1 °C 4,8 km/h (1 Bft)
29.03.2025 01:42 21,8 °C 1,1 °C 45 % 89 % 1008,5 hPa 0,0 l/m² 2,0 km/h (1 Bft) W-SW 255 ° 0 min 0 W/m² -0,5 °C 1,1 °C 3,2 km/h (1 Bft)
29.03.2025 01:43 21,8 °C 1,2 °C 45 % 89 % 1008,4 hPa 0,0 l/m² 1,9 km/h (1 Bft) W-SW 255 ° 0 min 0 W/m² -0,4 °C 1,2 °C 3,2 km/h (1 Bft)
29.03.2025 01:45 21,8 °C 1,2 °C 45 % 89 % 1008,5 hPa 0,0 l/m² 1,7 km/h (1 Bft) W-SW 255 ° 0 min 0 W/m² -0,4 °C 1,2 °C 3,2 km/h (1 Bft)
29.03.2025 01:47 21,8 °C 1,2 °C 45 % 89 % 1008,5 hPa 0,0 l/m² 0,3 km/h (0 Bft) W-SW 255 ° 0 min 0 W/m² -0,4 °C 1,2 °C 1,6 km/h (1 Bft)
29.03.2025 01:49 21,8 °C 1,1 °C 45 % 89 % 1008,4 hPa 0,0 l/m² 0,5 km/h (0 Bft) W-SW 255 ° 0 min 0 W/m² -0,5 °C 1,1 °C 3,2 km/h (1 Bft)
29.03.2025 01:50 21,8 °C 1,1 °C 45 % 89 % 1008,4 hPa 0,0 l/m² 3,0 km/h (1 Bft) W-SW 255 ° 0 min 0 W/m² -0,5 °C 1,1 °C 4,8 km/h (1 Bft)
29.03.2025 01:52 21,8 °C 1,1 °C 45 % 88 % 1008,4 hPa 0,0 l/m² 3,3 km/h (1 Bft) W-SW 255 ° 0 min 0 W/m² -0,7 °C 1,1 °C 4,8 km/h (1 Bft)
29.03.2025 01:53 21,8 °C 1,0 °C 45 % 89 % 1008,3 hPa 0,0 l/m² 3,4 km/h (1 Bft) W-SW 255 ° 0 min 0 W/m² -0,6 °C 1,0 °C 4,8 km/h (1 Bft)
29.03.2025 01:55 21,8 °C 1,1 °C 45 % 89 % 1008,4 hPa 0,0 l/m² 4,1 km/h (1 Bft) W-SW 255 ° 0 min 0 W/m² -0,5 °C 1,1 °C 6,4 km/h (2 Bft)
29.03.2025 01:57 21,8 °C 1,1 °C 45 % 89 % 1008,4 hPa 0,0 l/m² 3,1 km/h (1 Bft) W-SW 255 ° 0 min 0 W/m² -0,5 °C 1,1 °C 4,8 km/h (1 Bft)
29.03.2025 01:59 21,8 °C 1,1 °C 45 % 89 % 1008,4 hPa 0,0 l/m² 0,7 km/h (0 Bft) W-SW 255 ° 0 min 0 W/m² -0,5 °C 1,1 °C 1,6 km/h (1 Bft)
29.03.2025 02:01 21,8 °C 1,1 °C 45 % 89 % 1008,4 hPa 0,0 l/m² 0,0 km/h (0 Bft) W-SW 255 ° 0 min 0 W/m² -0,5 °C 1,1 °C 0,0 km/h (0 Bft)
29.03.2025 02:02 21,8 °C 1,1 °C 45 % 89 % 1008,4 hPa 0,0 l/m² 0,0 km/h (0 Bft) W-SW 255 ° 0 min 0 W/m² -0,5 °C 1,1 °C 0,0 km/h (0 Bft)
29.03.2025 02:03 21,8 °C 1,0 °C 45 % 88 % 1008,3 hPa 0,0 l/m² 0,0 km/h (0 Bft) W-SW 255 ° 0 min 0 W/m² -0,8 °C 1,0 °C 0,0 km/h (0 Bft)
29.03.2025 02:05 21,8 °C 0,8 °C 45 % 88 % 1008,3 hPa 0,0 l/m² 0,0 km/h (0 Bft) W-SW 255 ° 0 min 0 W/m² -1,0 °C 0,8 °C 0,0 km/h (0 Bft)
29.03.2025 02:07 21,8 °C 0,7 °C 45 % 88 % 1008,3 hPa 0,0 l/m² 0,0 km/h (0 Bft) W-SW 255 ° 0 min 0 W/m² -1,1 °C 0,7 °C 0,0 km/h (0 Bft)
29.03.2025 02:09 21,8 °C 0,7 °C 45 % 89 % 1008,3 hPa 0,0 l/m² 0,0 km/h (0 Bft) W-SW 255 ° 0 min 0 W/m² -0,9 °C 0,7 °C 0,0 km/h (0 Bft)
29.03.2025 02:10 21,8 °C 0,7 °C 45 % 89 % 1008,4 hPa 0,0 l/m² 0,0 km/h (0 Bft) W-SW 255 ° 0 min 0 W/m² -0,9 °C 0,7 °C 0,0 km/h (0 Bft)
29.03.2025 02:12 21,8 °C 0,8 °C 45 % 89 % 1008,4 hPa 0,0 l/m² 0,0 km/h (0 Bft) W-SW 255 ° 0 min 0 W/m² -0,8 °C 0,8 °C 0,0 km/h (0 Bft)
29.03.2025 02:13 21,8 °C 0,8 °C 45 % 89 % 1008,4 hPa 0,0 l/m² 0,0 km/h (0 Bft) W-SW 255 ° 0 min 0 W/m² -0,8 °C 0,8 °C 0,0 km/h (0 Bft)
29.03.2025 02:15 21,8 °C 0,7 °C 45 % 88 % 1008,5 hPa 0,0 l/m² 0,0 km/h (0 Bft) W-SW 255 ° 0 min 0 W/m² -1,1 °C 0,7 °C 0,0 km/h (0 Bft)
29.03.2025 02:17 21,8 °C 0,6 °C 45 % 88 % 1008,5 hPa 0,0 l/m² 0,0 km/h (0 Bft) W-SW 255 ° 0 min 0 W/m² -1,2 °C 0,6 °C 0,0 km/h (0 Bft)
29.03.2025 02:19 21,8 °C 0,7 °C 45 % 89 % 1008,5 hPa 0,0 l/m² 0,0 km/h (0 Bft) W-SW 255 ° 0 min 0 W/m² -0,9 °C 0,7 °C 0,0 km/h (0 Bft)
29.03.2025 02:21 21,8 °C 0,8 °C 45 % 89 % 1008,5 hPa 0,0 l/m² 0,0 km/h (0 Bft) W-SW 255 ° 0 min 0 W/m² -0,8 °C 0,8 °C 0,0 km/h (0 Bft)
29.03.2025 02:22 21,8 °C 0,8 °C 45 % 89 % 1008,5 hPa 0,0 l/m² 0,0 km/h (0 Bft) W-SW 255 ° 0 min 0 W/m² -0,8 °C 0,8 °C 0,0 km/h (0 Bft)
29.03.2025 02:23 21,8 °C 0,8 °C 45 % 89 % 1008,5 hPa 0,0 l/m² 0,0 km/h (0 Bft) W-SW 255 ° 0 min 0 W/m² -0,8 °C 0,8 °C 0,0 km/h (0 Bft)
29.03.2025 02:25 21,8 °C 0,8 °C 45 % 89 % 1008,5 hPa 0,0 l/m² 0,0 km/h (0 Bft) W-SW 255 ° 0 min 0 W/m² -0,8 °C 0,8 °C 0,0 km/h (0 Bft)
29.03.2025 02:27 21,8 °C 0,8 °C 45 % 89 % 1008,5 hPa 0,0 l/m² 0,0 km/h (0 Bft) W-SW 255 ° 0 min 0 W/m² -0,8 °C 0,8 °C 0,0 km/h (0 Bft)
29.03.2025 02:29 21,8 °C 0,9 °C 45 % 89 % 1008,5 hPa 0,0 l/m² 0,0 km/h (0 Bft) W-SW 255 ° 0 min 0 W/m² -0,7 °C 0,9 °C 0,0 km/h (0 Bft)
29.03.2025 02:30 21,8 °C 0,9 °C 45 % 89 % 1008,6 hPa 0,0 l/m² 0,0 km/h (0 Bft) W-SW 255 ° 0 min 0 W/m² -0,7 °C 0,9 °C 0,0 km/h (0 Bft)
29.03.2025 02:32 21,8 °C 0,9 °C 45 % 89 % 1008,6 hPa 0,0 l/m² 0,0 km/h (0 Bft) W-SW 255 ° 0 min 0 W/m² -0,7 °C 0,9 °C 0,0 km/h (0 Bft)
29.03.2025 02:33 21,8 °C 0,9 °C 45 % 89 % 1008,6 hPa 0,0 l/m² 0,0 km/h (0 Bft) W-SW 255 ° 0 min 0 W/m² -0,7 °C 0,9 °C 0,0 km/h (0 Bft)
29.03.2025 02:35 21,8 °C 1,0 °C 45 % 89 % 1008,6 hPa 0,0 l/m² 0,0 km/h (0 Bft) W-SW 255 ° 0 min 0 W/m² -0,6 °C 1,0 °C 0,0 km/h (0 Bft)
29.03.2025 02:37 21,8 °C 1,1 °C 45 % 89 % 1008,6 hPa 0,0 l/m² 1,9 km/h (1 Bft) W-SW 255 ° 0 min 0 W/m² -0,5 °C 1,1 °C 4,8 km/h (1 Bft)
29.03.2025 02:39 21,8 °C 1,1 °C 45 % 89 % 1008,5 hPa 0,0 l/m² 2,1 km/h (1 Bft) W-SW 255 ° 0 min 0 W/m² -0,5 °C 1,1 °C 3,2 km/h (1 Bft)
29.03.2025 02:41 21,8 °C 1,1 °C 45 % 89 % 1008,6 hPa 0,0 l/m² 3,6 km/h (1 Bft) W-SW 255 ° 0 min 0 W/m² -0,5 °C 1,1 °C 4,8 km/h (1 Bft)
29.03.2025 02:42 21,8 °C 1,1 °C 45 % 89 % 1008,6 hPa 0,0 l/m² 3,3 km/h (1 Bft) W-SW 255 ° 0 min 0 W/m² -0,5 °C 1,1 °C 4,8 km/h (1 Bft)
29.03.2025 02:43 21,8 °C 1,0 °C 45 % 89 % 1008,6 hPa 0,0 l/m² 1,7 km/h (1 Bft) W-SW 255 ° 0 min 0 W/m² -0,6 °C 1,0 °C 3,2 km/h (1 Bft)
29.03.2025 02:45 21,8 °C 1,1 °C 45 % 89 % 1008,6 hPa 0,0 l/m² 2,1 km/h (1 Bft) W-SW 255 ° 0 min 0 W/m² -0,5 °C 1,1 °C 3,2 km/h (1 Bft)
29.03.2025 02:47 21,8 °C 1,2 °C 45 % 89 % 1008,7 hPa 0,0 l/m² 2,4 km/h (1 Bft) W-SW 255 ° 0 min 0 W/m² -0,4 °C 1,2 °C 3,2 km/h (1 Bft)
29.03.2025 02:49 21,8 °C 1,3 °C 45 % 89 % 1008,6 hPa 0,0 l/m² 2,0 km/h (1 Bft) W-SW 255 ° 0 min 0 W/m² -0,3 °C 1,3 °C 3,2 km/h (1 Bft)
29.03.2025 02:51 21,8 °C 1,3 °C 45 % 89 % 1008,7 hPa 0,0 l/m² 4,3 km/h (1 Bft) W-SW 255 ° 0 min 0 W/m² -0,3 °C 1,3 °C 6,4 km/h (2 Bft)
29.03.2025 02:52 21,8 °C 1,4 °C 45 % 89 % 1008,8 hPa 0,0 l/m² 4,4 km/h (1 Bft) W-SW 255 ° 0 min 0 W/m² -0,2 °C 1,4 °C 6,4 km/h (2 Bft)
29.03.2025 02:53 21,8 °C 1,4 °C 45 % 89 % 1008,8 hPa 0,0 l/m² 2,7 km/h (1 Bft) W-SW 255 ° 0 min 0 W/m² -0,2 °C 1,4 °C 4,8 km/h (1 Bft)
29.03.2025 02:55 21,8 °C 1,4 °C 45 % 89 % 1008,8 hPa 0,0 l/m² 4,6 km/h (1 Bft) W-SW 255 ° 0 min 0 W/m² -0,2 °C 1,4 °C 6,4 km/h (2 Bft)
29.03.2025 02:57 21,8 °C 1,3 °C 45 % 89 % 1008,7 hPa 0,0 l/m² 4,1 km/h (1 Bft) W-SW 255 ° 0 min 0 W/m² -0,3 °C 1,3 °C 6,4 km/h (2 Bft)
29.03.2025 02:59 21,8 °C 1,3 °C 45 % 88 % 1008,7 hPa 0,0 l/m² 5,5 km/h (2 Bft) W-SW 238 ° 0 min 0 W/m² -0,5 °C 1,3 °C 6,4 km/h (2 Bft)
29.03.2025 03:00 21,8 °C 1,2 °C 45 % 88 % 1008,7 hPa 0,0 l/m² 6,4 km/h (2 Bft) SW 225 ° 0 min 0 W/m² -0,6 °C 1,2 °C 8,0 km/h (2 Bft)
29.03.2025 03:06 21,8 °C 1,0 °C 45 % 89 % 1008,6 hPa 0,0 l/m² 3,1 km/h (1 Bft) SW 232 ° 0 min 0 W/m² -0,6 °C 1,0 °C 4,8 km/h (1 Bft)
29.03.2025 03:08 21,8 °C 1,1 °C 45 % 89 % 1008,8 hPa 0,0 l/m² 4,6 km/h (1 Bft) SW 232 ° 0 min 0 W/m² -0,5 °C 1,1 °C 6,4 km/h (2 Bft)
29.03.2025 03:09 21,8 °C 1,1 °C 45 % 89 % 1008,9 hPa 0,0 l/m² 3,4 km/h (1 Bft) SW 232 ° 0 min 0 W/m² -0,5 °C 1,1 °C 4,8 km/h (1 Bft)
29.03.2025 03:11 21,8 °C 1,2 °C 45 % 89 % 1008,9 hPa 0,0 l/m² 3,8 km/h (1 Bft) SW 232 ° 0 min 0 W/m² -0,4 °C 1,2 °C 4,8 km/h (1 Bft)
29.03.2025 03:12 21,8 °C 1,2 °C 45 % 89 % 1008,8 hPa 0,0 l/m² 2,6 km/h (1 Bft) SW 232 ° 0 min 0 W/m² -0,4 °C 1,2 °C 4,8 km/h (1 Bft)
29.03.2025 03:14 21,8 °C 1,2 °C 45 % 90 % 1008,9 hPa 0,0 l/m² 0,3 km/h (0 Bft) SW 232 ° 0 min 0 W/m² -0,3 °C 1,2 °C 1,6 km/h (1 Bft)
29.03.2025 03:16 21,8 °C 1,3 °C 45 % 90 % 1008,9 hPa 0,0 l/m² 2,5 km/h (1 Bft) SW 232 ° 0 min 0 W/m² -0,2 °C 1,3 °C 3,2 km/h (1 Bft)
29.03.2025 03:18 21,8 °C 1,3 °C 45 % 89 % 1009,0 hPa 0,0 l/m² 2,8 km/h (1 Bft) SW 232 ° 0 min 0 W/m² -0,3 °C 1,3 °C 4,8 km/h (1 Bft)
29.03.2025 03:20 21,8 °C 1,3 °C 45 % 90 % 1008,9 hPa 0,0 l/m² 3,0 km/h (1 Bft) SW 232 ° 0 min 0 W/m² -0,2 °C 1,3 °C 4,8 km/h (1 Bft)
29.03.2025 03:21 21,8 °C 1,3 °C 45 % 89 % 1009,0 hPa 0,0 l/m² 2,8 km/h (1 Bft) SW 232 ° 0 min 0 W/m² -0,3 °C 1,3 °C 4,8 km/h (1 Bft)
29.03.2025 03:22 21,8 °C 1,3 °C 45 % 90 % 1009,0 hPa 0,0 l/m² 3,4 km/h (1 Bft) SW 232 ° 0 min 0 W/m² -0,2 °C 1,3 °C 4,8 km/h (1 Bft)
29.03.2025 03:24 21,8 °C 1,3 °C 45 % 90 % 1008,9 hPa 0,0 l/m² 1,1 km/h (1 Bft) SW 232 ° 0 min 0 W/m² -0,2 °C 1,3 °C 3,2 km/h (1 Bft)
29.03.2025 03:26 21,8 °C 1,4 °C 45 % 90 % 1008,8 hPa 0,0 l/m² 1,3 km/h (1 Bft) SW 232 ° 0 min 0 W/m² -0,1 °C 1,4 °C 3,2 km/h (1 Bft)
29.03.2025 03:28 21,9 °C 1,5 °C 45 % 90 % 1008,8 hPa 0,0 l/m² 0,8 km/h (0 Bft) SW 232 ° 0 min 0 W/m² 0,0 °C 1,5 °C 1,6 km/h (1 Bft)
29.03.2025 03:30 21,8 °C 1,6 °C 45 % 90 % 1008,8 hPa 0,0 l/m² 0,6 km/h (0 Bft) SW 232 ° 0 min 0 W/m² 0,1 °C 1,6 °C 1,6 km/h (1 Bft)
29.03.2025 03:31 21,8 °C 1,7 °C 45 % 90 % 1008,7 hPa 0,0 l/m² 0,0 km/h (0 Bft) SW 232 ° 0 min 0 W/m² 0,2 °C 1,7 °C 0,0 km/h (0 Bft)
29.03.2025 03:32 21,8 °C 1,7 °C 45 % 90 % 1008,8 hPa 0,0 l/m² 0,0 km/h (0 Bft) SW 232 ° 0 min 0 W/m² 0,2 °C 1,7 °C 0,0 km/h (0 Bft)
29.03.2025 03:33 21,8 °C 1,7 °C 45 % 90 % 1008,8 hPa 0,0 l/m² 0,0 km/h (0 Bft) SW 232 ° 0 min 0 W/m² 0,2 °C 1,7 °C 0,0 km/h (0 Bft)
29.03.2025 03:34 21,8 °C 1,8 °C 45 % 90 % 1008,8 hPa 0,0 l/m² 0,0 km/h (0 Bft) SW 232 ° 0 min 0 W/m² 0,3 °C 1,8 °C 0,0 km/h (0 Bft)
29.03.2025 03:35 21,8 °C 1,8 °C 45 % 90 % 1008,9 hPa 0,0 l/m² 0,3 km/h (0 Bft) SW 232 ° 0 min 0 W/m² 0,3 °C 1,8 °C 3,2 km/h (1 Bft)
29.03.2025 03:37 21,8 °C 1,8 °C 45 % 90 % 1008,9 hPa 0,0 l/m² 3,4 km/h (1 Bft) SW 232 ° 0 min 0 W/m² 0,3 °C 1,8 °C 6,4 km/h (2 Bft)
29.03.2025 03:39 21,8 °C 1,9 °C 45 % 90 % 1008,9 hPa 0,0 l/m² 4,7 km/h (1 Bft) SW 232 ° 0 min 0 W/m² 0,4 °C 1,9 °C 6,4 km/h (2 Bft)
29.03.2025 03:40 21,8 °C 1,9 °C 45 % 90 % 1008,9 hPa 0,0 l/m² 3,8 km/h (1 Bft) SW 230 ° 0 min 0 W/m² 0,4 °C 1,9 °C 4,8 km/h (1 Bft)
29.03.2025 03:41 21,8 °C 1,9 °C 45 % 90 % 1008,9 hPa 0,0 l/m² 5,4 km/h (2 Bft) SW 228 ° 0 min 0 W/m² 0,4 °C 1,9 °C 6,4 km/h (2 Bft)
29.03.2025 03:42 21,8 °C 1,9 °C 45 % 90 % 1008,9 hPa 0,0 l/m² 3,7 km/h (1 Bft) SW 228 ° 0 min 0 W/m² 0,4 °C 1,9 °C 6,4 km/h (2 Bft)
29.03.2025 03:45 21,8 °C 2,0 °C 45 % 90 % 1009,1 hPa 0,0 l/m² 3,9 km/h (1 Bft) SW 222 ° 0 min 0 W/m² 0,5 °C 2,0 °C 8,0 km/h (2 Bft)
29.03.2025 03:46 21,8 °C 2,0 °C 45 % 90 % 1009,2 hPa 0,0 l/m² 3,2 km/h (1 Bft) SW 222 ° 0 min 0 W/m² 0,5 °C 2,0 °C 3,2 km/h (1 Bft)
29.03.2025 03:47 21,9 °C 2,1 °C 45 % 90 % 1009,3 hPa 0,0 l/m² 3,5 km/h (1 Bft) SW 222 ° 0 min 0 W/m² 0,6 °C 2,1 °C 4,8 km/h (1 Bft)
29.03.2025 03:48 21,8 °C 2,1 °C 45 % 90 % 1009,3 hPa 0,0 l/m² 4,1 km/h (1 Bft) SW 222 ° 0 min 0 W/m² 0,6 °C 2,1 °C 4,8 km/h (1 Bft)
29.03.2025 03:50 21,8 °C 2,2 °C 45 % 90 % 1009,3 hPa 0,0 l/m² 3,1 km/h (1 Bft) SW 222 ° 0 min 0 W/m² 0,7 °C 2,2 °C 4,8 km/h (1 Bft)
29.03.2025 03:51 21,8 °C 2,3 °C 45 % 91 % 1009,2 hPa 0,0 l/m² 1,3 km/h (1 Bft) SW 222 ° 0 min 0 W/m² 1,0 °C 2,3 °C 3,2 km/h (1 Bft)
29.03.2025 03:52 21,8 °C 2,4 °C 45 % 90 % 1009,2 hPa 0,0 l/m² 2,9 km/h (1 Bft) SW 222 ° 0 min 0 W/m² 0,9 °C 2,4 °C 3,2 km/h (1 Bft)
29.03.2025 03:54 21,8 °C 2,5 °C 45 % 90 % 1009,2 hPa 0,0 l/m² 1,2 km/h (1 Bft) SW 222 ° 0 min 0 W/m² 1,0 °C 2,5 °C 3,2 km/h (1 Bft)
29.03.2025 03:56 21,8 °C 2,6 °C 45 % 90 % 1009,2 hPa 0,0 l/m² 0,4 km/h (0 Bft) SW 222 ° 0 min 0 W/m² 1,1 °C 2,6 °C 3,2 km/h (1 Bft)
29.03.2025 03:58 21,8 °C 2,7 °C 45 % 90 % 1009,3 hPa 0,0 l/m² 3,0 km/h (1 Bft) SW 222 ° 0 min 0 W/m² 1,2 °C 2,7 °C 4,8 km/h (1 Bft)
29.03.2025 03:59 21,8 °C 2,8 °C 45 % 90 % 1009,3 hPa 0,0 l/m² 3,5 km/h (1 Bft) SW 222 ° 0 min 0 W/m² 1,3 °C 2,8 °C 4,8 km/h (1 Bft)
29.03.2025 04:00 21,8 °C 2,8 °C 45 % 90 % 1009,5 hPa 0,0 l/m² 6,2 km/h (2 Bft) W-SW 238 ° 0 min 0 W/m² 1,3 °C 2,8 °C 8,0 km/h (2 Bft)
29.03.2025 04:01 21,8 °C 2,9 °C 45 % 90 % 1009,5 hPa 0,0 l/m² 6,2 km/h (2 Bft) W-SW 242 ° 0 min 0 W/m² 1,4 °C 2,9 °C 8,0 km/h (2 Bft)
29.03.2025 04:02 21,8 °C 2,9 °C 45 % 90 % 1009,5 hPa 0,0 l/m² 6,1 km/h (2 Bft) W-SW 242 ° 0 min 0 W/m² 1,4 °C 2,9 °C 6,4 km/h (2 Bft)
29.03.2025 04:04 21,8 °C 3,0 °C 45 % 90 % 1009,4 hPa 0,0 l/m² 5,2 km/h (1 Bft) W-SW 239 ° 0 min 0 W/m² 1,5 °C 3,0 °C 6,4 km/h (2 Bft)
29.03.2025 04:06 21,8 °C 3,1 °C 45 % 90 % 1009,5 hPa 0,0 l/m² 3,9 km/h (1 Bft) W-SW 239 ° 0 min 0 W/m² 1,6 °C 3,1 °C 6,4 km/h (2 Bft)
29.03.2025 04:08 21,8 °C 3,2 °C 45 % 90 % 1009,5 hPa 0,0 l/m² 4,8 km/h (1 Bft) W-SW 238 ° 0 min 0 W/m² 1,7 °C 3,2 °C 8,0 km/h (2 Bft)
29.03.2025 04:10 21,8 °C 3,2 °C 45 % 89 % 1009,6 hPa 0,0 l/m² 5,7 km/h (2 Bft) W-SW 239 ° 0 min 0 W/m² 1,6 °C 3,2 °C 6,4 km/h (2 Bft)
29.03.2025 04:11 21,8 °C 3,2 °C 45 % 89 % 1009,5 hPa 0,0 l/m² 5,6 km/h (2 Bft) W-SW 239 ° 0 min 0 W/m² 1,6 °C 3,2 °C 6,4 km/h (2 Bft)
29.03.2025 04:12 21,8 °C 3,3 °C 45 % 89 % 1009,6 hPa 0,0 l/m² 6,6 km/h (2 Bft) W-SW 237 ° 0 min 0 W/m² 1,7 °C 3,1 °C 8,0 km/h (2 Bft)
29.03.2025 04:14 21,8 °C 3,3 °C 45 % 89 % 1009,5 hPa 0,0 l/m² 5,3 km/h (1 Bft) W-SW 237 ° 0 min 0 W/m² 1,7 °C 3,3 °C 8,0 km/h (2 Bft)
29.03.2025 04:16 21,8 °C 3,2 °C 45 % 89 % 1009,5 hPa 0,0 l/m² 3,2 km/h (1 Bft) W-SW 237 ° 0 min 0 W/m² 1,6 °C 3,2 °C 4,8 km/h (1 Bft)
29.03.2025 04:18 21,8 °C 3,2 °C 45 % 89 % 1009,4 hPa 0,0 l/m² 3,6 km/h (1 Bft) W-SW 237 ° 0 min 0 W/m² 1,6 °C 3,2 °C 4,8 km/h (1 Bft)
29.03.2025 04:20 21,8 °C 3,1 °C 45 % 88 % 1009,4 hPa 0,0 l/m² 3,1 km/h (1 Bft) W-SW 237 ° 0 min 0 W/m² 1,3 °C 3,1 °C 4,8 km/h (1 Bft)
29.03.2025 04:21 21,8 °C 3,1 °C 45 % 88 % 1009,4 hPa 0,0 l/m² 3,2 km/h (1 Bft) W-SW 237 ° 0 min 0 W/m² 1,3 °C 3,1 °C 4,8 km/h (1 Bft)
29.03.2025 04:22 21,8 °C 3,1 °C 45 % 88 % 1009,3 hPa 0,0 l/m² 3,4 km/h (1 Bft) W 278 ° 0 min 0 W/m² 1,3 °C 3,1 °C 6,4 km/h (2 Bft)
29.03.2025 04:24 21,8 °C 3,1 °C 45 % 88 % 1009,4 hPa 0,0 l/m² 3,3 km/h (1 Bft) W 275 ° 0 min 0 W/m² 1,3 °C 3,1 °C 6,4 km/h (2 Bft)
29.03.2025 04:26 21,8 °C 3,2 °C 45 % 88 % 1009,4 hPa 0,0 l/m² 3,5 km/h (1 Bft) W 279 ° 0 min 0 W/m² 1,4 °C 3,2 °C 6,4 km/h (2 Bft)
29.03.2025 04:28 21,8 °C 3,2 °C 45 % 89 % 1009,4 hPa 0,0 l/m² 5,1 km/h (1 Bft) W-NW 292 ° 0 min 0 W/m² 1,6 °C 3,2 °C 11,3 km/h (2 Bft)
29.03.2025 04:30 21,8 °C 3,4 °C 45 % 89 % 1009,2 hPa 0,0 l/m² 6,7 km/h (2 Bft) W-SW 254 ° 0 min 0 W/m² 1,8 °C 3,1 °C 11,3 km/h (2 Bft)
29.03.2025 04:31 21,8 °C 3,5 °C 45 % 89 % 1009,2 hPa 0,0 l/m² 4,0 km/h (1 Bft) W 271 ° 0 min 0 W/m² 1,9 °C 3,5 °C 9,7 km/h (2 Bft)
29.03.2025 04:32 21,8 °C 3,6 °C 45 % 89 % 1009,2 hPa 0,0 l/m² 4,8 km/h (1 Bft) W-NW 293 ° 0 min 0 W/m² 2,0 °C 3,6 °C 8,0 km/h (2 Bft)
29.03.2025 04:34 21,8 °C 3,9 °C 45 % 89 % 1009,2 hPa 0,0 l/m² 4,6 km/h (1 Bft) W-NW 302 ° 0 min 0 W/m² 2,3 °C 3,9 °C 8,0 km/h (2 Bft)
29.03.2025 04:36 21,8 °C 4,2 °C 45 % 89 % 1009,2 hPa 0,0 l/m² 4,3 km/h (1 Bft) W-NW 286 ° 0 min 0 W/m² 2,6 °C 4,2 °C 11,3 km/h (2 Bft)
29.03.2025 04:37 21,8 °C 4,4 °C 45 % 89 % 1009,2 hPa 0,0 l/m² 5,7 km/h (2 Bft) W-SW 253 ° 0 min 0 W/m² 2,7 °C 4,4 °C 12,9 km/h (3 Bft)
29.03.2025 04:38 21,8 °C 4,6 °C 45 % 89 % 1009,3 hPa 0,0 l/m² 5,7 km/h (2 Bft) W 262 ° 0 min 0 W/m² 2,9 °C 4,6 °C 8,0 km/h (2 Bft)
29.03.2025 04:40 21,8 °C 4,9 °C 45 % 89 % 1009,1 hPa 0,0 l/m² 4,6 km/h (1 Bft) W-NW 286 ° 0 min 0 W/m² 3,2 °C 4,9 °C 14,5 km/h (3 Bft)
29.03.2025 04:41 21,8 °C 5,0 °C 45 % 88 % 1009,2 hPa 0,0 l/m² 3,8 km/h (1 Bft) N-NW 327 ° 0 min 0 W/m² 3,2 °C 5,0 °C 11,3 km/h (2 Bft)
29.03.2025 04:42 21,8 °C 5,1 °C 45 % 88 % 1009,1 hPa 0,0 l/m² 9,0 km/h (2 Bft) W-NW 288 ° 0 min 0 W/m² 3,3 °C 2,9 °C 16,1 km/h (3 Bft)
29.03.2025 04:44 21,8 °C 5,3 °C 45 % 88 % 1009,1 hPa 0,0 l/m² 10,2 km/h (2 Bft) W-NW 298 ° 0 min 0 W/m² 3,5 °C 2,3 °C 16,1 km/h (3 Bft)
29.03.2025 04:46 21,8 °C 5,4 °C 45 % 87 % 1009,2 hPa 0,0 l/m² 10,9 km/h (2 Bft) NW 315 ° 0 min 0 W/m² 3,4 °C 1,9 °C 16,1 km/h (3 Bft)
29.03.2025 04:48 21,8 °C 5,6 °C 45 % 87 % 1009,2 hPa 0,0 l/m² 14,4 km/h (3 Bft) NW 306 ° 0 min 0 W/m² 3,6 °C 0,1 °C 24,1 km/h (4 Bft)
29.03.2025 04:50 21,8 °C 5,7 °C 45 % 87 % 1009,3 hPa 0,0 l/m² 15,4 km/h (3 Bft) NW 326 ° 0 min 0 W/m² 3,7 °C -0,3 °C 20,9 km/h (4 Bft)
29.03.2025 04:51 21,8 °C 5,8 °C 45 % 87 % 1009,2 hPa 0,0 l/m² 13,2 km/h (3 Bft) NW 309 ° 0 min 0 W/m² 3,8 °C 1,0 °C 17,7 km/h (3 Bft)
29.03.2025 04:52 21,8 °C 5,8 °C 45 % 87 % 1009,2 hPa 0,0 l/m² 11,2 km/h (2 Bft) NW 310 ° 0 min 0 W/m² 3,8 °C 2,2 °C 19,3 km/h (3 Bft)
29.03.2025 04:54 21,8 °C 5,9 °C 45 % 87 % 1009,3 hPa 0,0 l/m² 15,1 km/h (3 Bft) W 279 ° 0 min 0 W/m² 3,9 °C 0,1 °C 24,1 km/h (4 Bft)
29.03.2025 04:56 21,8 °C 6,0 °C 45 % 87 % 1009,3 hPa 0,0 l/m² 14,6 km/h (3 Bft) W-NW 302 ° 0 min 0 W/m² 4,0 °C 0,5 °C 20,9 km/h (4 Bft)
29.03.2025 04:58 21,8 °C 6,1 °C 45 % 87 % 1009,4 hPa 0,0 l/m² 14,3 km/h (3 Bft) NW 308 ° 0 min 0 W/m² 4,1 °C 0,8 °C 22,5 km/h (4 Bft)
29.03.2025 05:00 21,8 °C 6,2 °C 45 % 87 % 1009,5 hPa 0,0 l/m² 17,0 km/h (3 Bft) N-NW 340 ° 0 min 0 W/m² 4,2 °C -0,4 °C 24,1 km/h (4 Bft)
29.03.2025 05:01 21,8 °C 6,2 °C 45 % 87 % 1009,5 hPa 0,0 l/m² 14,8 km/h (3 Bft) W-NW 300 ° 0 min 0 W/m² 4,2 °C 0,6 °C 19,3 km/h (3 Bft)
29.03.2025 05:02 21,8 °C 6,3 °C 45 % 87 % 1009,6 hPa 0,0 l/m² 18,2 km/h (3 Bft) NW 305 ° 0 min 0 W/m² 4,3 °C -0,8 °C 25,7 km/h (4 Bft)
29.03.2025 05:04 21,8 °C 6,3 °C 45 % 87 % 1009,5 hPa 0,0 l/m² 17,0 km/h (3 Bft) NW 308 ° 0 min 0 W/m² 4,3 °C -0,3 °C 24,1 km/h (4 Bft)
29.03.2025 05:06 21,8 °C 6,4 °C 45 % 87 % 1009,5 hPa 0,0 l/m² 15,4 km/h (3 Bft) NW 326 ° 0 min 0 W/m² 4,4 °C 0,6 °C 22,5 km/h (4 Bft)
29.03.2025 05:08 21,8 °C 6,4 °C 45 % 87 % 1009,6 hPa 0,0 l/m² 12,3 km/h (2 Bft) NW 308 ° 0 min 0 W/m² 4,4 °C 2,2 °C 22,5 km/h (4 Bft)
29.03.2025 05:10 21,8 °C 6,5 °C 45 % 87 % 1009,7 hPa 0,0 l/m² 16,5 km/h (3 Bft) W-NW 284 ° 0 min 0 W/m² 4,5 °C 0,2 °C 24,1 km/h (4 Bft)
29.03.2025 05:11 21,8 °C 6,6 °C 45 % 87 % 1009,5 hPa 0,0 l/m² 12,1 km/h (2 Bft) W-NW 284 ° 0 min 0 W/m² 4,6 °C 2,5 °C 17,7 km/h (3 Bft)
29.03.2025 05:12 21,8 °C 6,6 °C 45 % 87 % 1009,5 hPa 0,0 l/m² 14,2 km/h (3 Bft) W 265 ° 0 min 0 W/m² 4,6 °C 1,4 °C 22,5 km/h (4 Bft)
29.03.2025 05:14 21,8 °C 6,6 °C 45 % 87 % 1009,6 hPa 0,0 l/m² 13,6 km/h (3 Bft) W-NW 302 ° 0 min 0 W/m² 4,6 °C 1,7 °C 27,4 km/h (5 Bft)
29.03.2025 05:16 21,8 °C 6,6 °C 45 % 86 % 1009,7 hPa 0,0 l/m² 13,6 km/h (3 Bft) NW 319 ° 0 min 0 W/m² 4,4 °C 1,7 °C 25,7 km/h (4 Bft)
29.03.2025 05:18 21,8 °C 6,7 °C 45 % 86 % 1009,8 hPa 0,0 l/m² 13,4 km/h (3 Bft) W-NW 292 ° 0 min 0 W/m² 4,5 °C 1,9 °C 22,5 km/h (4 Bft)
29.03.2025 05:20 21,8 °C 6,6 °C 45 % 86 % 1009,9 hPa 0,0 l/m² 12,1 km/h (2 Bft) W 279 ° 0 min 0 W/m² 4,4 °C 2,5 °C 19,3 km/h (3 Bft)
29.03.2025 05:21 21,8 °C 6,7 °C 45 % 86 % 1009,9 hPa 0,0 l/m² 11,3 km/h (2 Bft) W-NW 282 ° 0 min 0 W/m² 4,5 °C 3,1 °C 17,7 km/h (3 Bft)
29.03.2025 05:22 21,8 °C 6,7 °C 45 % 86 % 1009,9 hPa 0,0 l/m² 6,8 km/h (2 Bft) W 281 ° 0 min 0 W/m² 4,5 °C 6,4 °C 12,9 km/h (3 Bft)
29.03.2025 05:24 21,8 °C 6,6 °C 45 % 86 % 1010,0 hPa 0,0 l/m² 11,7 km/h (2 Bft) NW 306 ° 0 min 0 W/m² 4,4 °C 2,8 °C 20,9 km/h (4 Bft)
29.03.2025 05:26 21,8 °C 6,6 °C 45 % 86 % 1010,0 hPa 0,0 l/m² 13,1 km/h (3 Bft) NW 314 ° 0 min 0 W/m² 4,4 °C 2,0 °C 22,5 km/h (4 Bft)
29.03.2025 05:28 21,8 °C 6,6 °C 45 % 86 % 1010,0 hPa 0,0 l/m² 15,6 km/h (3 Bft) W-NW 296 ° 0 min 0 W/m² 4,4 °C 0,7 °C 27,4 km/h (5 Bft)
29.03.2025 05:30 21,8 °C 6,6 °C 45 % 86 % 1010,0 hPa 0,0 l/m² 11,8 km/h (2 Bft) NW 326 ° 0 min 0 W/m² 4,4 °C 2,7 °C 24,1 km/h (4 Bft)
29.03.2025 05:31 21,8 °C 6,6 °C 45 % 86 % 1010,0 hPa 0,0 l/m² 12,9 km/h (3 Bft) W-NW 290 ° 0 min 0 W/m² 4,4 °C 2,1 °C 19,3 km/h (3 Bft)
29.03.2025 05:32 21,8 °C 6,6 °C 45 % 86 % 1010,0 hPa 0,0 l/m² 9,7 km/h (2 Bft) NW 311 ° 0 min 0 W/m² 4,4 °C 4,0 °C 14,5 km/h (3 Bft)
29.03.2025 05:34 21,8 °C 6,6 °C 45 % 86 % 1010,1 hPa 0,0 l/m² 16,9 km/h (3 Bft) NW 315 ° 0 min 0 W/m² 4,4 °C 0,1 °C 27,4 km/h (5 Bft)
29.03.2025 05:36 21,8 °C 6,6 °C 45 % 86 % 1010,2 hPa 0,0 l/m² 15,6 km/h (3 Bft) W-NW 284 ° 0 min 0 W/m² 4,4 °C 0,7 °C 30,6 km/h (5 Bft)
29.03.2025 05:38 21,8 °C 6,6 °C 45 % 86 % 1010,2 hPa 0,0 l/m² 14,2 km/h (3 Bft) N-NW 331 ° 0 min 0 W/m² 4,4 °C 1,4 °C 24,1 km/h (4 Bft)
29.03.2025 05:40 21,8 °C 6,6 °C 45 % 86 % 1010,3 hPa 0,0 l/m² 16,2 km/h (3 Bft) W-NW 297 ° 0 min 0 W/m² 4,4 °C 0,5 °C 24,1 km/h (4 Bft)
29.03.2025 05:41 21,8 °C 6,6 °C 45 % 86 % 1010,3 hPa 0,0 l/m² 16,1 km/h (3 Bft) W-NW 302 ° 0 min 0 W/m² 4,4 °C 0,5 °C 29,0 km/h (5 Bft)
29.03.2025 05:42 21,7 °C 6,6 °C 45 % 86 % 1010,3 hPa 0,0 l/m² 22,0 km/h (4 Bft) N-NW 331 ° 0 min 0 W/m² 4,4 °C -1,8 °C 30,6 km/h (5 Bft)
29.03.2025 05:44 21,8 °C 6,6 °C 45 % 86 % 1010,4 hPa 0,0 l/m² 12,6 km/h (3 Bft) NW 304 ° 0 min 0 W/m² 4,4 °C 2,3 °C 20,9 km/h (4 Bft)
29.03.2025 05:46 21,7 °C 6,6 °C 45 % 86 % 1010,4 hPa 0,0 l/m² 20,4 km/h (4 Bft) W-NW 302 ° 0 min 0 W/m² 4,4 °C -1,3 °C 27,4 km/h (5 Bft)
29.03.2025 05:48 21,8 °C 6,5 °C 45 % 86 % 1010,4 hPa 0,0 l/m² 15,2 km/h (3 Bft) W-NW 290 ° 0 min 0 W/m² 4,3 °C 0,8 °C 25,7 km/h (4 Bft)
29.03.2025 05:50 21,7 °C 6,6 °C 45 % 86 % 1010,4 hPa 0,0 l/m² 16,2 km/h (3 Bft) W-NW 292 ° 0 min 0 W/m² 4,4 °C 0,5 °C 30,6 km/h (5 Bft)
29.03.2025 05:51 21,8 °C 6,5 °C 45 % 86 % 1010,5 hPa 0,0 l/m² 13,9 km/h (3 Bft) W-NW 287 ° 0 min 0 W/m² 4,3 °C 1,4 °C 24,1 km/h (4 Bft)
29.03.2025 05:52 21,8 °C 6,5 °C 45 % 86 % 1010,4 hPa 0,0 l/m² 15,7 km/h (3 Bft) W 269 ° 0 min 0 W/m² 4,3 °C 0,6 °C 27,4 km/h (5 Bft)
29.03.2025 05:54 21,7 °C 6,5 °C 45 % 87 % 1010,4 hPa 0,0 l/m² 12,8 km/h (3 Bft) NW 306 ° 0 min 0 W/m² 4,5 °C 2,0 °C 24,1 km/h (4 Bft)
29.03.2025 05:56 21,7 °C 6,5 °C 45 % 87 % 1010,5 hPa 0,0 l/m² 16,9 km/h (3 Bft) NW 317 ° 0 min 0 W/m² 4,5 °C 0,0 °C 25,7 km/h (4 Bft)
29.03.2025 05:58 21,7 °C 6,5 °C 45 % 87 % 1010,5 hPa 0,0 l/m² 18,4 km/h (3 Bft) W-NW 303 ° 0 min 0 W/m² 4,5 °C -0,6 °C 37,0 km/h (5 Bft)
29.03.2025 06:00 21,7 °C 6,5 °C 45 % 87 % 1010,6 hPa 0,0 l/m² 14,8 km/h (3 Bft) NW 323 ° 0 min 0 W/m² 4,5 °C 1,0 °C 27,4 km/h (5 Bft)
29.03.2025 06:01 21,7 °C 6,5 °C 45 % 87 % 1010,6 hPa 0,0 l/m² 17,2 km/h (3 Bft) W-NW 293 ° 0 min 0 W/m² 4,5 °C -0,1 °C 24,1 km/h (4 Bft)
29.03.2025 06:02 21,7 °C 6,5 °C 45 % 87 % 1010,7 hPa 0,0 l/m² 16,6 km/h (3 Bft) W-NW 292 ° 0 min 0 W/m² 4,5 °C 0,2 °C 24,1 km/h (4 Bft)
29.03.2025 06:04 21,7 °C 6,5 °C 45 % 87 % 1010,6 hPa 0,0 l/m² 14,3 km/h (3 Bft) W-NW 300 ° 0 min 0 W/m² 4,5 °C 1,2 °C 33,8 km/h (5 Bft)
29.03.2025 06:06 21,7 °C 6,5 °C 45 % 87 % 1010,7 hPa 0,0 l/m² 17,2 km/h (3 Bft) W-NW 300 ° 0 min 0 W/m² 4,5 °C -0,1 °C 27,4 km/h (5 Bft)
29.03.2025 06:08 21,7 °C 6,5 °C 45 % 87 % 1010,7 hPa 0,0 l/m² 18,4 km/h (3 Bft) NW 324 ° 0 min 5 W/m² 4,5 °C -0,6 °C 30,6 km/h (5 Bft)
29.03.2025 06:10 21,7 °C 6,5 °C 45 % 87 % 1010,7 hPa 0,0 l/m² 18,6 km/h (3 Bft) W-NW 295 ° 0 min 5 W/m² 4,5 °C -0,7 °C 29,0 km/h (5 Bft)
29.03.2025 06:11 21,7 °C 6,5 °C 45 % 87 % 1010,7 hPa 0,0 l/m² 19,1 km/h (3 Bft) N 360 ° 0 min 7 W/m² 4,5 °C -0,9 °C 29,0 km/h (5 Bft)
29.03.2025 06:12 21,7 °C 6,5 °C 45 % 87 % 1010,8 hPa 0,0 l/m² 20,2 km/h (4 Bft) NW 305 ° 0 min 7 W/m² 4,5 °C -1,3 °C 30,6 km/h (5 Bft)
29.03.2025 06:14 21,7 °C 6,5 °C 45 % 88 % 1010,8 hPa 0,0 l/m² 14,2 km/h (3 Bft) NW 308 ° 0 min 9 W/m² 4,7 °C 1,3 °C 27,4 km/h (5 Bft)
29.03.2025 06:16 21,7 °C 6,5 °C 45 % 87 % 1010,8 hPa 0,0 l/m² 16,8 km/h (3 Bft) W-NW 298 ° 0 min 11 W/m² 4,5 °C 0,1 °C 27,4 km/h (5 Bft)
29.03.2025 06:18 21,7 °C 6,5 °C 45 % 88 % 1010,8 hPa 0,0 l/m² 24,2 km/h (4 Bft) W-NW 300 ° 0 min 12 W/m² 4,7 °C -2,7 °C 33,8 km/h (5 Bft)
29.03.2025 06:20 21,7 °C 6,5 °C 45 % 88 % 1010,9 hPa 0,0 l/m² 11,4 km/h (2 Bft) W 281 ° 0 min 14 W/m² 4,7 °C 2,8 °C 25,7 km/h (4 Bft)
29.03.2025 06:21 21,7 °C 6,5 °C 45 % 88 % 1010,9 hPa 0,0 l/m² 16,4 km/h (3 Bft) W-NW 296 ° 0 min 14 W/m² 4,7 °C 0,2 °C 20,9 km/h (4 Bft)
29.03.2025 06:22 21,7 °C 6,5 °C 45 % 88 % 1010,9 hPa 0,0 l/m² 20,4 km/h (4 Bft) W-NW 298 ° 0 min 14 W/m² 4,7 °C -1,4 °C 30,6 km/h (5 Bft)
29.03.2025 06:24 21,7 °C 6,5 °C 45 % 88 % 1010,9 hPa 0,0 l/m² 15,4 km/h (3 Bft) NW 313 ° 0 min 18 W/m² 4,7 °C 0,7 °C 25,7 km/h (4 Bft)
29.03.2025 06:26 21,7 °C 6,5 °C 45 % 88 % 1011,0 hPa 0,0 l/m² 19,4 km/h (3 Bft) W-NW 295 ° 0 min 19 W/m² 4,7 °C -1,0 °C 32,2 km/h (5 Bft)
29.03.2025 06:28 21,7 °C 6,5 °C 45 % 88 % 1011,0 hPa 0,0 l/m² 14,3 km/h (3 Bft) W-NW 292 ° 0 min 21 W/m² 4,7 °C 1,2 °C 27,4 km/h (5 Bft)
29.03.2025 06:30 21,7 °C 6,5 °C 45 % 88 % 1011,0 hPa 0,0 l/m² 20,8 km/h (4 Bft) NW 317 ° 0 min 23 W/m² 4,7 °C -1,5 °C 30,6 km/h (5 Bft)
29.03.2025 06:31 21,7 °C 6,6 °C 45 % 88 % 1011,0 hPa 0,0 l/m² 17,1 km/h (3 Bft) NW 321 ° 0 min 25 W/m² 4,8 °C 0,1 °C 27,4 km/h (5 Bft)
29.03.2025 06:33 21,7 °C 6,6 °C 45 % 88 % 1011,1 hPa 0,0 l/m² 17,4 km/h (3 Bft) NW 325 ° 0 min 26 W/m² 4,8 °C -0,1 °C 29,0 km/h (5 Bft)
29.03.2025 06:35 21,7 °C 6,6 °C 45 % 88 % 1011,0 hPa 0,0 l/m² 14,5 km/h (3 Bft) NW 321 ° 0 min 28 W/m² 4,8 °C 1,3 °C 24,1 km/h (4 Bft)
29.03.2025 06:37 21,7 °C 6,6 °C 45 % 88 % 1011,2 hPa 0,0 l/m² 14,1 km/h (3 Bft) NW 311 ° 0 min 28 W/m² 4,8 °C 1,5 °C 27,4 km/h (5 Bft)
29.03.2025 06:39 21,7 °C 6,6 °C 45 % 88 % 1011,2 hPa 0,0 l/m² 15,4 km/h (3 Bft) W-NW 294 ° 0 min 30 W/m² 4,8 °C 0,8 °C 29,0 km/h (5 Bft)
29.03.2025 06:41 21,7 °C 6,6 °C 45 % 88 % 1011,3 hPa 0,0 l/m² 16,2 km/h (3 Bft) W-NW 288 ° 0 min 32 W/m² 4,8 °C 0,5 °C 29,0 km/h (5 Bft)
29.03.2025 06:43 21,7 °C 6,6 °C 45 % 88 % 1011,3 hPa 0,0 l/m² 16,0 km/h (3 Bft) W-NW 296 ° 0 min 33 W/m² 4,8 °C 0,5 °C 30,6 km/h (5 Bft)
29.03.2025 06:45 21,7 °C 6,6 °C 45 % 88 % 1011,4 hPa 0,0 l/m² 16,5 km/h (3 Bft) N-NW 327 ° 0 min 35 W/m² 4,8 °C 0,3 °C 25,7 km/h (4 Bft)
29.03.2025 06:48 21,7 °C 6,6 °C 45 % 88 % 1011,5 hPa 0,0 l/m² 13,2 km/h (3 Bft) SW 230 ° 0 min 37 W/m² 4,8 °C 1,9 °C 24,1 km/h (4 Bft)
29.03.2025 06:50 21,7 °C 6,6 °C 45 % 88 % 1011,6 hPa 0,0 l/m² 13,6 km/h (3 Bft) N-NW 343 ° 0 min 39 W/m² 4,8 °C 1,7 °C 27,4 km/h (5 Bft)
29.03.2025 06:52 21,7 °C 6,7 °C 45 % 88 % 1011,6 hPa 0,0 l/m² 14,4 km/h (3 Bft) NW 305 ° 0 min 39 W/m² 4,9 °C 1,4 °C 25,7 km/h (4 Bft)
29.03.2025 06:54 21,7 °C 6,7 °C 45 % 88 % 1011,7 hPa 0,0 l/m² 17,0 km/h (3 Bft) W-NW 300 ° 0 min 40 W/m² 4,9 °C 0,2 °C 30,6 km/h (5 Bft)
29.03.2025 06:56 21,7 °C 6,7 °C 45 % 88 % 1011,7 hPa 0,0 l/m² 19,4 km/h (3 Bft) NW 321 ° 0 min 40 W/m² 4,9 °C -0,7 °C 32,2 km/h (5 Bft)
29.03.2025 06:58 21,7 °C 6,7 °C 45 % 88 % 1011,8 hPa 0,0 l/m² 14,7 km/h (3 Bft) NW 304 ° 0 min 42 W/m² 4,9 °C 1,3 °C 25,7 km/h (4 Bft)
29.03.2025 07:00 21,7 °C 6,7 °C 45 % 88 % 1011,9 hPa 0,0 l/m² 10,6 km/h (2 Bft) W-NW 302 ° 0 min 42 W/m² 4,9 °C 3,6 °C 24,1 km/h (4 Bft)
29.03.2025 07:01 21,7 °C 6,7 °C 45 % 88 % 1012,0 hPa 0,0 l/m² 16,2 km/h (3 Bft) NW 322 ° 0 min 44 W/m² 4,9 °C 0,6 °C 25,7 km/h (4 Bft)
29.03.2025 07:02 21,7 °C 6,8 °C 45 % 88 % 1012,0 hPa 0,0 l/m² 18,2 km/h (3 Bft) W-NW 302 ° 0 min 42 W/m² 5,0 °C -0,2 °C 27,4 km/h (5 Bft)
29.03.2025 07:03 21,7 °C 6,8 °C 45 % 88 % 1011,9 hPa 0,0 l/m² 12,8 km/h (3 Bft) W 281 ° 0 min 42 W/m² 5,0 °C 2,4 °C 24,1 km/h (4 Bft)
29.03.2025 07:04 21,7 °C 6,8 °C 45 % 88 % 1012,0 hPa 0,0 l/m² 9,1 km/h (2 Bft) W-NW 283 ° 0 min 39 W/m² 5,0 °C 4,7 °C 14,5 km/h (3 Bft)
29.03.2025 07:05 21,7 °C 6,8 °C 45 % 88 % 1012,0 hPa 0,0 l/m² 9,6 km/h (2 Bft) NW 326 ° 0 min 39 W/m² 5,0 °C 4,3 °C 16,1 km/h (3 Bft)
29.03.2025 07:06 21,7 °C 6,8 °C 45 % 88 % 1012,0 hPa 0,0 l/m² 12,2 km/h (2 Bft) NW 305 ° 0 min 37 W/m² 5,0 °C 2,7 °C 19,3 km/h (3 Bft)
29.03.2025 07:07 21,7 °C 6,8 °C 45 % 88 % 1012,1 hPa 0,0 l/m² 10,5 km/h (2 Bft) NW 311 ° 0 min 37 W/m² 5,0 °C 3,7 °C 16,1 km/h (3 Bft)
29.03.2025 07:08 21,7 °C 6,8 °C 45 % 88 % 1012,1 hPa 0,0 l/m² 10,3 km/h (2 Bft) NW 313 ° 0 min 35 W/m² 5,0 °C 3,9 °C 17,7 km/h (3 Bft)
29.03.2025 07:09 21,7 °C 6,8 °C 45 % 87 % 1012,1 hPa 0,0 l/m² 12,7 km/h (3 Bft) W-SW 252 ° 0 min 33 W/m² 4,8 °C 2,4 °C 16,1 km/h (3 Bft)
29.03.2025 07:10 21,7 °C 6,8 °C 45 % 87 % 1012,0 hPa 0,0 l/m² 7,7 km/h (2 Bft) NW 311 ° 0 min 30 W/m² 4,8 °C 5,7 °C 12,9 km/h (3 Bft)
29.03.2025 07:11 21,7 °C 6,8 °C 45 % 87 % 1012,1 hPa 0,0 l/m² 4,7 km/h (1 Bft) W 260 ° 0 min 32 W/m² 4,8 °C 6,8 °C 16,1 km/h (3 Bft)
29.03.2025 07:12 21,7 °C 6,9 °C 45 % 87 % 1012,1 hPa 0,0 l/m² 7,5 km/h (2 Bft) NW 305 ° 0 min 32 W/m² 4,9 °C 6,0 °C 14,5 km/h (3 Bft)
29.03.2025 07:13 21,6 °C 6,9 °C 45 % 87 % 1012,1 hPa 0,0 l/m² 6,4 km/h (2 Bft) NW 324 ° 0 min 30 W/m² 4,9 °C 6,9 °C 12,9 km/h (3 Bft)
29.03.2025 07:14 21,7 °C 6,8 °C 45 % 87 % 1012,2 hPa 0,0 l/m² 9,1 km/h (2 Bft) W-NW 299 ° 0 min 30 W/m² 4,8 °C 4,7 °C 14,5 km/h (3 Bft)
29.03.2025 07:15 21,7 °C 6,9 °C 45 % 87 % 1012,2 hPa 0,0 l/m² 16,3 km/h (3 Bft) NW 310 ° 0 min 28 W/m² 4,9 °C 0,8 °C 25,7 km/h (4 Bft)
29.03.2025 07:16 21,6 °C 6,9 °C 45 % 87 % 1012,2 hPa 0,0 l/m² 14,6 km/h (3 Bft) W-NW 298 ° 0 min 28 W/m² 4,9 °C 1,6 °C 22,5 km/h (4 Bft)
29.03.2025 07:17 21,6 °C 6,9 °C 45 % 87 % 1012,2 hPa 0,0 l/m² 12,9 km/h (3 Bft) N-NW 327 ° 0 min 28 W/m² 4,9 °C 2,4 °C 20,9 km/h (4 Bft)
29.03.2025 07:18 21,7 °C 6,9 °C 45 % 87 % 1012,2 hPa 0,0 l/m² 9,1 km/h (2 Bft) W-NW 301 ° 0 min 30 W/m² 4,9 °C 4,8 °C 14,5 km/h (3 Bft)
29.03.2025 07:19 21,7 °C 6,9 °C 45 % 87 % 1012,2 hPa 0,0 l/m² 18,3 km/h (3 Bft) NW 317 ° 0 min 30 W/m² 4,9 °C -0,1 °C 24,1 km/h (4 Bft)
29.03.2025 07:20 21,7 °C 6,9 °C 45 % 87 % 1012,1 hPa 0,0 l/m² 16,3 km/h (3 Bft) W 278 ° 0 min 30 W/m² 4,9 °C 0,8 °C 25,7 km/h (4 Bft)
29.03.2025 07:21 21,6 °C 6,9 °C 45 % 87 % 1012,2 hPa 0,0 l/m² 18,4 km/h (3 Bft) NW 315 ° 0 min 32 W/m² 4,9 °C -0,1 °C 24,1 km/h (4 Bft)
29.03.2025 07:22 21,6 °C 6,9 °C 45 % 87 % 1012,3 hPa 0,0 l/m² 10,4 km/h (2 Bft) NW 308 ° 0 min 30 W/m² 4,9 °C 3,9 °C 16,1 km/h (3 Bft)
29.03.2025 07:23 21,7 °C 6,9 °C 45 % 87 % 1012,3 hPa 0,0 l/m² 9,9 km/h (2 Bft) N-NW 327 ° 0 min 32 W/m² 4,9 °C 4,2 °C 19,3 km/h (3 Bft)
29.03.2025 07:24 21,6 °C 6,9 °C 45 % 87 % 1012,2 hPa 0,0 l/m² 17,8 km/h (3 Bft) NW 308 ° 0 min 32 W/m² 4,9 °C 0,1 °C 24,1 km/h (4 Bft)
29.03.2025 07:25 21,7 °C 6,9 °C 45 % 87 % 1012,3 hPa 0,0 l/m² 7,9 km/h (2 Bft) NW 306 ° 0 min 33 W/m² 4,9 °C 5,7 °C 14,5 km/h (3 Bft)
29.03.2025 07:26 21,7 °C 6,9 °C 45 % 87 % 1012,3 hPa 0,0 l/m² 11,1 km/h (2 Bft) N-NW 328 ° 0 min 32 W/m² 4,9 °C 3,5 °C 20,9 km/h (4 Bft)
29.03.2025 07:27 21,7 °C 6,9 °C 45 % 87 % 1012,3 hPa 0,0 l/m² 17,0 km/h (3 Bft) W-NW 296 ° 0 min 33 W/m² 4,9 °C 0,5 °C 24,1 km/h (4 Bft)
29.03.2025 07:28 21,6 °C 6,9 °C 45 % 87 % 1012,3 hPa 0,0 l/m² 15,3 km/h (3 Bft) NW 316 ° 0 min 33 W/m² 4,9 °C 1,2 °C 22,5 km/h (4 Bft)
29.03.2025 07:29 21,6 °C 6,9 °C 45 % 87 % 1012,3 hPa 0,0 l/m² 14,3 km/h (3 Bft) NW 324 ° 0 min 35 W/m² 4,9 °C 1,7 °C 20,9 km/h (4 Bft)
29.03.2025 07:30 21,6 °C 7,0 °C 45 % 87 % 1012,2 hPa 0,0 l/m² 15,8 km/h (3 Bft) NW 311 ° 0 min 35 W/m² 5,0 °C 1,1 °C 20,9 km/h (4 Bft)
29.03.2025 07:31 21,6 °C 6,9 °C 45 % 87 % 1012,4 hPa 0,0 l/m² 15,8 km/h (3 Bft) W 270 ° 0 min 35 W/m² 4,9 °C 1,0 °C 27,4 km/h (5 Bft)
29.03.2025 07:32 21,6 °C 6,9 °C 45 % 87 % 1012,4 hPa 0,0 l/m² 19,1 km/h (3 Bft) NW 306 ° 0 min 39 W/m² 4,9 °C -0,4 °C 25,7 km/h (4 Bft)
29.03.2025 07:33 21,6 °C 7,0 °C 45 % 87 % 1012,4 hPa 0,0 l/m² 15,8 km/h (3 Bft) NW 318 ° 0 min 37 W/m² 5,0 °C 1,1 °C 25,7 km/h (4 Bft)
29.03.2025 07:34 21,6 °C 7,0 °C 45 % 87 % 1012,5 hPa 0,0 l/m² 17,2 km/h (3 Bft) NW 323 ° 0 min 40 W/m² 5,0 °C 0,5 °C 27,4 km/h (5 Bft)
29.03.2025 07:35 21,6 °C 7,0 °C 45 % 87 % 1012,4 hPa 0,0 l/m² 13,3 km/h (3 Bft) NW 323 ° 0 min 39 W/m² 5,0 °C 2,3 °C 20,9 km/h (4 Bft)
29.03.2025 07:36 21,6 °C 7,1 °C 45 % 87 % 1012,4 hPa 0,0 l/m² 9,0 km/h (2 Bft) N-NW 340 ° 0 min 37 W/m² 5,1 °C 5,1 °C 17,7 km/h (3 Bft)
29.03.2025 07:37 21,6 °C 7,1 °C 45 % 87 % 1012,5 hPa 0,0 l/m² 15,8 km/h (3 Bft) W 273 ° 0 min 40 W/m² 5,1 °C 1,3 °C 22,5 km/h (4 Bft)
29.03.2025 07:38 21,6 °C 7,1 °C 45 % 87 % 1012,5 hPa 0,0 l/m² 13,1 km/h (3 Bft) W-NW 283 ° 0 min 39 W/m² 5,1 °C 2,6 °C 22,5 km/h (4 Bft)
29.03.2025 07:39 21,6 °C 7,1 °C 45 % 87 % 1012,4 hPa 0,0 l/m² 12,4 km/h (2 Bft) W-NW 283 ° 0 min 39 W/m² 5,1 °C 3,0 °C 19,3 km/h (3 Bft)
29.03.2025 07:40 21,6 °C 7,1 °C 45 % 87 % 1012,5 hPa 0,0 l/m² 5,6 km/h (2 Bft) NW 318 ° 0 min 40 W/m² 5,1 °C 7,1 °C 12,9 km/h (3 Bft)
29.03.2025 07:41 21,6 °C 7,2 °C 45 % 87 % 1012,5 hPa 0,0 l/m² 12,7 km/h (3 Bft) N-NW 336 ° 0 min 39 W/m² 5,2 °C 2,9 °C 22,5 km/h (4 Bft)
29.03.2025 07:42 21,6 °C 7,1 °C 45 % 87 % 1012,6 hPa 0,0 l/m² 13,9 km/h (3 Bft) NW 304 ° 0 min 39 W/m² 5,1 °C 2,2 °C 20,9 km/h (4 Bft)
29.03.2025 07:43 21,6 °C 7,2 °C 45 % 87 % 1012,6 hPa 0,0 l/m² 9,9 km/h (2 Bft) W-NW 298 ° 0 min 39 W/m² 5,2 °C 4,6 °C 16,1 km/h (3 Bft)
29.03.2025 07:44 21,6 °C 7,2 °C 45 % 87 % 1012,6 hPa 0,0 l/m² 11,1 km/h (2 Bft) W-NW 292 ° 0 min 37 W/m² 5,2 °C 3,8 °C 19,3 km/h (3 Bft)
29.03.2025 07:45 21,6 °C 7,2 °C 45 % 87 % 1012,5 hPa 0,0 l/m² 11,5 km/h (2 Bft) W 277 ° 0 min 39 W/m² 5,2 °C 3,6 °C 19,3 km/h (3 Bft)
29.03.2025 07:46 21,6 °C 7,2 °C 45 % 87 % 1012,6 hPa 0,0 l/m² 11,7 km/h (2 Bft) W-NW 301 ° 0 min 39 W/m² 5,2 °C 3,5 °C 27,4 km/h (5 Bft)
29.03.2025 07:47 21,6 °C 7,2 °C 45 % 87 % 1012,6 hPa 0,0 l/m² 20,2 km/h (4 Bft) W-NW 300 ° 0 min 39 W/m² 5,2 °C -0,4 °C 29,0 km/h (5 Bft)
29.03.2025 07:48 21,6 °C 7,2 °C 45 % 87 % 1012,6 hPa 0,0 l/m² 16,0 km/h (3 Bft) W-NW 297 ° 0 min 40 W/m² 5,2 °C 1,3 °C 22,5 km/h (4 Bft)
29.03.2025 07:49 21,6 °C 7,2 °C 45 % 87 % 1012,6 hPa 0,0 l/m² 16,0 km/h (3 Bft) NW 326 ° 0 min 37 W/m² 5,2 °C 1,3 °C 25,7 km/h (4 Bft)
29.03.2025 07:50 21,7 °C 7,2 °C 45 % 87 % 1012,6 hPa 0,0 l/m² 11,2 km/h (2 Bft) W-NW 286 ° 0 min 39 W/m² 5,2 °C 3,8 °C 17,7 km/h (3 Bft)
29.03.2025 07:51 21,6 °C 7,3 °C 45 % 87 % 1012,6 hPa 0,0 l/m² 15,0 km/h (3 Bft) W-NW 296 ° 0 min 37 W/m² 5,3 °C 1,9 °C 20,9 km/h (4 Bft)
29.03.2025 07:52 21,6 °C 7,3 °C 45 % 87 % 1012,6 hPa 0,0 l/m² 9,7 km/h (2 Bft) NW 321 ° 0 min 40 W/m² 5,3 °C 4,8 °C 14,5 km/h (3 Bft)
29.03.2025 07:53 21,7 °C 7,3 °C 45 % 87 % 1012,6 hPa 0,0 l/m² 9,0 km/h (2 Bft) W-SW 249 ° 0 min 42 W/m² 5,3 °C 5,3 °C 16,1 km/h (3 Bft)
29.03.2025 07:54 21,7 °C 7,3 °C 45 % 87 % 1012,6 hPa 0,0 l/m² 11,2 km/h (2 Bft) NW 320 ° 0 min 39 W/m² 5,3 °C 3,9 °C 20,9 km/h (4 Bft)
29.03.2025 07:55 21,7 °C 7,3 °C 45 % 87 % 1012,7 hPa 0,0 l/m² 21,7 km/h (4 Bft) W-NW 297 ° 0 min 37 W/m² 5,3 °C -0,8 °C 30,6 km/h (5 Bft)
29.03.2025 07:56 21,6 °C 7,3 °C 45 % 86 % 1012,7 hPa 0,0 l/m² 20,6 km/h (4 Bft) NW 316 ° 0 min 39 W/m² 5,1 °C -0,4 °C 29,0 km/h (5 Bft)
29.03.2025 07:57 21,7 °C 7,3 °C 45 % 86 % 1012,7 hPa 0,0 l/m² 19,9 km/h (4 Bft) W-NW 301 ° 0 min 42 W/m² 5,1 °C -0,2 °C 29,0 km/h (5 Bft)
29.03.2025 07:58 21,6 °C 7,3 °C 45 % 86 % 1012,7 hPa 0,0 l/m² 14,3 km/h (3 Bft) N-NW 331 ° 0 min 42 W/m² 5,1 °C 2,2 °C 25,7 km/h (4 Bft)
29.03.2025 07:59 21,7 °C 7,3 °C 45 % 86 % 1012,7 hPa 0,0 l/m² 10,7 km/h (2 Bft) NW 323 ° 0 min 42 W/m² 5,1 °C 4,2 °C 17,7 km/h (3 Bft)
29.03.2025 08:00 21,7 °C 7,3 °C 45 % 86 % 1012,8 hPa 0,0 l/m² 14,2 km/h (3 Bft) W 264 ° 0 min 47 W/m² 5,1 °C 2,2 °C 25,7 km/h (4 Bft)
29.03.2025 08:01 21,7 °C 7,3 °C 46 % 86 % 1012,8 hPa 0,0 l/m² 14,7 km/h (3 Bft) W-NW 300 ° 0 min 44 W/m² 5,1 °C 2,0 °C 25,7 km/h (4 Bft)
29.03.2025 08:02 21,7 °C 7,4 °C 46 % 86 % 1012,8 hPa 0,0 l/m² 15,9 km/h (3 Bft) NW 316 ° 0 min 39 W/m² 5,2 °C 1,6 °C 24,1 km/h (4 Bft)
29.03.2025 08:03 21,7 °C 7,4 °C 46 % 86 % 1012,8 hPa 0,0 l/m² 16,0 km/h (3 Bft) NW 320 ° 0 min 46 W/m² 5,2 °C 1,5 °C 20,9 km/h (4 Bft)
29.03.2025 08:04 21,7 °C 7,4 °C 46 % 86 % 1012,9 hPa 0,0 l/m² 19,8 km/h (3 Bft) NW 317 ° 0 min 47 W/m² 5,2 °C 0,0 °C 30,6 km/h (5 Bft)
29.03.2025 08:05 21,7 °C 7,4 °C 46 % 86 % 1012,8 hPa 0,0 l/m² 16,0 km/h (3 Bft) W-NW 294 ° 0 min 47 W/m² 5,2 °C 1,5 °C 22,5 km/h (4 Bft)
29.03.2025 08:06 21,7 °C 7,4 °C 46 % 86 % 1012,9 hPa 0,0 l/m² 17,0 km/h (3 Bft) NW 306 ° 0 min 47 W/m² 5,2 °C 1,1 °C 30,6 km/h (5 Bft)
29.03.2025 08:07 21,7 °C 7,4 °C 46 % 86 % 1012,9 hPa 0,0 l/m² 15,6 km/h (3 Bft) N-NW 337 ° 0 min 46 W/m² 5,2 °C 1,7 °C 24,1 km/h (4 Bft)
29.03.2025 08:08 21,7 °C 7,4 °C 46 % 86 % 1012,9 hPa 0,0 l/m² 16,6 km/h (3 Bft) NW 319 ° 0 min 51 W/m² 5,2 °C 1,3 °C 29,0 km/h (5 Bft)
29.03.2025 08:09 21,7 °C 7,5 °C 46 % 86 % 1012,9 hPa 0,0 l/m² 15,8 km/h (3 Bft) NW 319 ° 0 min 47 W/m² 5,3 °C 1,7 °C 22,5 km/h (4 Bft)
29.03.2025 08:10 21,7 °C 7,5 °C 46 % 86 % 1012,9 hPa 0,0 l/m² 13,7 km/h (3 Bft) W-NW 297 ° 0 min 49 W/m² 5,3 °C 2,7 °C 24,1 km/h (4 Bft)
29.03.2025 08:11 21,7 °C 7,6 °C 46 % 86 % 1013,0 hPa 0,0 l/m² 12,7 km/h (3 Bft) W-NW 298 ° 1 min 53 W/m² 5,4 °C 3,4 °C 27,4 km/h (5 Bft)
29.03.2025 08:12 21,7 °C 7,6 °C 46 % 86 % 1013,0 hPa 0,0 l/m² 17,4 km/h (3 Bft) NW 313 ° 1 min 54 W/m² 5,4 °C 1,2 °C 32,2 km/h (5 Bft)
29.03.2025 08:13 21,7 °C 7,6 °C 46 % 86 % 1013,0 hPa 0,0 l/m² 13,0 km/h (3 Bft) W-NW 282 ° 0 min 51 W/m² 5,4 °C 3,2 °C 19,3 km/h (3 Bft)
29.03.2025 08:14 21,7 °C 7,6 °C 46 % 86 % 1013,0 hPa 0,0 l/m² 16,2 km/h (3 Bft) W 280 ° 1 min 54 W/m² 5,4 °C 1,7 °C 25,7 km/h (4 Bft)
29.03.2025 08:16 21,7 °C 7,6 °C 46 % 86 % 1013,1 hPa 0,0 l/m² 17,4 km/h (3 Bft) NW 326 ° 0 min 49 W/m² 5,4 °C 1,2 °C 27,4 km/h (5 Bft)
29.03.2025 08:17 21,7 °C 7,6 °C 46 % 86 % 1013,1 hPa 0,0 l/m² 14,9 km/h (3 Bft) NW 322 ° 0 min 47 W/m² 5,4 °C 2,3 °C 20,9 km/h (4 Bft)
29.03.2025 08:18 21,7 °C 7,7 °C 46 % 86 % 1013,1 hPa 0,0 l/m² 15,9 km/h (3 Bft) W-NW 296 ° 0 min 47 W/m² 5,5 °C 1,9 °C 25,7 km/h (4 Bft)
29.03.2025 08:19 21,7 °C 7,7 °C 46 % 86 % 1013,2 hPa 0,0 l/m² 16,7 km/h (3 Bft) NW 324 ° 0 min 49 W/m² 5,5 °C 1,6 °C 25,7 km/h (4 Bft)
29.03.2025 08:20 21,7 °C 7,7 °C 46 % 86 % 1013,2 hPa 0,0 l/m² 13,4 km/h (3 Bft) NW 313 ° 0 min 46 W/m² 5,5 °C 3,1 °C 19,3 km/h (3 Bft)
29.03.2025 08:21 21,7 °C 7,7 °C 46 % 86 % 1013,2 hPa 0,0 l/m² 13,8 km/h (3 Bft) W-NW 302 ° 0 min 51 W/m² 5,5 °C 2,9 °C 19,3 km/h (3 Bft)
29.03.2025 08:22 21,7 °C 7,7 °C 46 % 86 % 1013,2 hPa 0,0 l/m² 17,2 km/h (3 Bft) NW 309 ° 1 min 56 W/m² 5,5 °C 1,4 °C 24,1 km/h (4 Bft)
29.03.2025 08:23 21,7 °C 7,7 °C 46 % 86 % 1013,2 hPa 0,0 l/m² 13,7 km/h (3 Bft) NW 311 ° 1 min 60 W/m² 5,5 °C 3,0 °C 17,7 km/h (3 Bft)
29.03.2025 08:24 21,7 °C 7,7 °C 46 % 86 % 1013,3 hPa 0,0 l/m² 13,7 km/h (3 Bft) NW 313 ° 1 min 58 W/m² 5,5 °C 3,0 °C 19,3 km/h (3 Bft)
29.03.2025 08:25 21,7 °C 7,7 °C 46 % 86 % 1013,3 hPa 0,0 l/m² 19,8 km/h (3 Bft) N-NW 328 ° 1 min 62 W/m² 5,5 °C 0,4 °C 25,7 km/h (4 Bft)
29.03.2025 08:27 21,7 °C 7,8 °C 46 % 85 % 1013,2 hPa 0,0 l/m² 15,4 km/h (3 Bft) NW 323 ° 2 min 65 W/m² 5,4 °C 2,3 °C 27,4 km/h (5 Bft)
29.03.2025 08:28 21,7 °C 7,8 °C 46 % 86 % 1013,2 hPa 0,0 l/m² 13,1 km/h (3 Bft) NW 316 ° 1 min 65 W/m² 5,6 °C 3,4 °C 22,5 km/h (4 Bft)
29.03.2025 08:29 21,7 °C 7,8 °C 46 % 85 % 1013,2 hPa 0,0 l/m² 16,2 km/h (3 Bft) NW 307 ° 1 min 65 W/m² 5,4 °C 1,9 °C 20,9 km/h (4 Bft)
29.03.2025 08:30 21,7 °C 7,8 °C 46 % 85 % 1013,2 hPa 0,0 l/m² 24,8 km/h (4 Bft) W-NW 300 ° 1 min 67 W/m² 5,4 °C -1,1 °C 33,8 km/h (5 Bft)
29.03.2025 08:31 21,8 °C 7,8 °C 46 % 85 % 1013,3 hPa 0,0 l/m² 22,3 km/h (4 Bft) NW 308 ° 1 min 67 W/m² 5,4 °C -0,3 °C 30,6 km/h (5 Bft)
29.03.2025 08:32 21,7 °C 7,8 °C 46 % 85 % 1013,4 hPa 0,0 l/m² 13,6 km/h (3 Bft) NW 323 ° 1 min 77 W/m² 5,4 °C 3,1 °C 29,0 km/h (5 Bft)
29.03.2025 08:33 21,8 °C 7,9 °C 46 % 85 % 1013,4 hPa 0,0 l/m² 14,7 km/h (3 Bft) N-NW 333 ° 1 min 77 W/m² 5,5 °C 2,7 °C 25,7 km/h (4 Bft)
29.03.2025 08:34 21,7 °C 7,9 °C 46 % 85 % 1013,3 hPa 0,0 l/m² 17,8 km/h (3 Bft) NW 305 ° 1 min 81 W/m² 5,5 °C 1,4 °C 24,1 km/h (4 Bft)
29.03.2025 08:35 21,7 °C 7,9 °C 46 % 85 % 1013,3 hPa 0,0 l/m² 20,2 km/h (4 Bft) NW 326 ° 1 min 83 W/m² 5,5 °C 0,5 °C 30,6 km/h (5 Bft)
29.03.2025 08:36 21,7 °C 7,9 °C 46 % 85 % 1013,4 hPa 0,0 l/m² 22,3 km/h (4 Bft) NW 309 ° 1 min 84 W/m² 5,5 °C -0,2 °C 27,4 km/h (5 Bft)
29.03.2025 08:37 21,7 °C 7,9 °C 46 % 85 % 1013,4 hPa 0,0 l/m² 20,6 km/h (4 Bft) NW 305 ° 1 min 88 W/m² 5,5 °C 0,4 °C 30,6 km/h (5 Bft)
29.03.2025 08:38 21,7 °C 7,9 °C 46 % 85 % 1013,4 hPa 0,0 l/m² 20,0 km/h (4 Bft) W-NW 282 ° 1 min 91 W/m² 5,5 °C 0,6 °C 27,4 km/h (5 Bft)
29.03.2025 08:39 21,7 °C 8,0 °C 46 % 85 % 1013,4 hPa 0,0 l/m² 15,6 km/h (3 Bft) N-NW 332 ° 1 min 93 W/m² 5,6 °C 2,4 °C 24,1 km/h (4 Bft)
29.03.2025 08:40 21,8 °C 8,0 °C 46 % 85 % 1013,4 hPa 0,0 l/m² 14,8 km/h (3 Bft) NW 318 ° 1 min 90 W/m² 5,6 °C 2,8 °C 22,5 km/h (4 Bft)
29.03.2025 08:41 21,8 °C 8,1 °C 46 % 85 % 1013,3 hPa 0,0 l/m² 17,2 km/h (3 Bft) NW 316 ° 1 min 90 W/m² 5,7 °C 1,9 °C 27,4 km/h (5 Bft)
29.03.2025 08:42 21,8 °C 8,1 °C 46 % 85 % 1013,4 hPa 0,0 l/m² 17,6 km/h (3 Bft) NW 312 ° 1 min 83 W/m² 5,7 °C 1,7 °C 27,4 km/h (5 Bft)
29.03.2025 08:43 21,8 °C 8,1 °C 46 % 85 % 1013,4 hPa 0,0 l/m² 16,0 km/h (3 Bft) NW 321 ° 1 min 83 W/m² 5,7 °C 2,4 °C 27,4 km/h (5 Bft)
29.03.2025 08:44 21,8 °C 8,1 °C 46 % 84 % 1013,4 hPa 0,0 l/m² 20,7 km/h (4 Bft) NW 306 ° 1 min 88 W/m² 5,6 °C 0,6 °C 35,4 km/h (5 Bft)
29.03.2025 08:45 21,8 °C 8,1 °C 46 % 84 % 1013,4 hPa 0,0 l/m² 27,7 km/h (5 Bft) NW 315 ° 1 min 90 W/m² 5,6 °C -1,5 °C 33,8 km/h (5 Bft)
29.03.2025 08:46 21,8 °C 8,1 °C 46 % 84 % 1013,5 hPa 0,0 l/m² 21,4 km/h (4 Bft) NW 324 ° 1 min 93 W/m² 5,6 °C 0,4 °C 33,8 km/h (5 Bft)
29.03.2025 08:47 21,8 °C 8,1 °C 46 % 84 % 1013,5 hPa 0,0 l/m² 20,7 km/h (4 Bft) NW 322 ° 1 min 100 W/m² 5,6 °C 0,6 °C 32,2 km/h (5 Bft)
29.03.2025 08:48 21,8 °C 8,1 °C 46 % 84 % 1013,5 hPa 0,0 l/m² 21,3 km/h (4 Bft) NW 314 ° 1 min 107 W/m² 5,6 °C 0,4 °C 27,4 km/h (5 Bft)
29.03.2025 08:49 21,8 °C 8,2 °C 46 % 84 % 1013,5 hPa 0,0 l/m² 21,8 km/h (4 Bft) W-NW 300 ° 1 min 98 W/m² 5,7 °C 0,4 °C 30,6 km/h (5 Bft)
29.03.2025 08:50 21,8 °C 8,2 °C 46 % 84 % 1013,5 hPa 0,0 l/m² 20,4 km/h (4 Bft) W-NW 286 ° 1 min 97 W/m² 5,7 °C 0,8 °C 29,0 km/h (5 Bft)
29.03.2025 08:51 21,8 °C 8,2 °C 46 % 84 % 1013,5 hPa 0,0 l/m² 21,5 km/h (4 Bft) NW 316 ° 1 min 95 W/m² 5,7 °C 0,5 °C 30,6 km/h (5 Bft)
29.03.2025 08:52 21,8 °C 8,2 °C 46 % 84 % 1013,5 hPa 0,0 l/m² 23,8 km/h (4 Bft) NW 304 ° 1 min 102 W/m² 5,7 °C -0,3 °C 30,6 km/h (5 Bft)
29.03.2025 08:53 21,8 °C 8,2 °C 46 % 84 % 1013,5 hPa 0,0 l/m² 17,6 km/h (3 Bft) NW 310 ° 1 min 114 W/m² 5,7 °C 1,9 °C 25,7 km/h (4 Bft)
29.03.2025 08:55 21,8 °C 8,3 °C 46 % 84 % 1013,6 hPa 0,0 l/m² 15,5 km/h (3 Bft) W 279 ° 2 min 139 W/m² 5,8 °C 2,9 °C 22,5 km/h (4 Bft)
29.03.2025 08:56 21,8 °C 8,4 °C 46 % 84 % 1013,6 hPa 0,0 l/m² 14,9 km/h (3 Bft) N-NW 329 ° 1 min 134 W/m² 5,9 °C 3,2 °C 24,1 km/h (4 Bft)
29.03.2025 08:57 21,8 °C 8,4 °C 46 % 84 % 1013,6 hPa 0,0 l/m² 18,8 km/h (3 Bft) W 263 ° 1 min 121 W/m² 5,9 °C 1,6 °C 25,7 km/h (4 Bft)
29.03.2025 08:58 21,8 °C 8,5 °C 46 % 84 % 1013,6 hPa 0,0 l/m² 19,2 km/h (3 Bft) NW 313 ° 1 min 107 W/m² 6,0 °C 1,6 °C 25,7 km/h (4 Bft)
29.03.2025 08:59 21,8 °C 8,5 °C 46 % 84 % 1013,5 hPa 0,0 l/m² 17,8 km/h (3 Bft) NW 319 ° 1 min 107 W/m² 6,0 °C 2,2 °C 24,1 km/h (4 Bft)
29.03.2025 09:00 21,8 °C 8,5 °C 46 % 83 % 1013,6 hPa 0,0 l/m² 21,3 km/h (4 Bft) W-NW 292 ° 1 min 114 W/m² 5,8 °C 0,9 °C 29,0 km/h (5 Bft)
29.03.2025 09:01 21,8 °C 8,5 °C 46 % 83 % 1013,6 hPa 0,0 l/m² 16,5 km/h (3 Bft) W-NW 294 ° 1 min 113 W/m² 5,8 °C 2,7 °C 25,7 km/h (4 Bft)
29.03.2025 09:02 21,8 °C 8,6 °C 46 % 84 % 1013,6 hPa 0,0 l/m² 11,2 km/h (2 Bft) NW 311 ° 1 min 114 W/m² 6,1 °C 5,3 °C 19,3 km/h (3 Bft)
29.03.2025 09:03 21,8 °C 8,6 °C 46 % 84 % 1013,6 hPa 0,0 l/m² 20,7 km/h (4 Bft) W-NW 297 ° 1 min 123 W/m² 6,1 °C 1,2 °C 29,0 km/h (5 Bft)
29.03.2025 09:04 21,8 °C 8,6 °C 46 % 84 % 1013,6 hPa 0,0 l/m² 20,1 km/h (4 Bft) N-NW 327 ° 1 min 125 W/m² 6,1 °C 1,4 °C 27,4 km/h (5 Bft)
29.03.2025 09:05 21,8 °C 8,6 °C 46 % 83 % 1013,6 hPa 0,0 l/m² 18,8 km/h (3 Bft) NW 319 ° 1 min 120 W/m² 5,9 °C 1,9 °C 32,2 km/h (5 Bft)
29.03.2025 09:07 21,8 °C 8,6 °C 46 % 83 % 1013,6 hPa 0,0 l/m² 21,7 km/h (4 Bft) N 350 ° 2 min 123 W/m² 5,9 °C 0,9 °C 37,0 km/h (5 Bft)
29.03.2025 09:08 21,8 °C 8,6 °C 46 % 83 % 1013,7 hPa 0,0 l/m² 15,8 km/h (3 Bft) W-NW 297 ° 1 min 121 W/m² 5,9 °C 3,1 °C 20,9 km/h (4 Bft)
29.03.2025 09:09 21,8 °C 8,6 °C 46 % 83 % 1013,7 hPa 0,0 l/m² 18,3 km/h (3 Bft) W 259 ° 1 min 120 W/m² 5,9 °C 2,1 °C 27,4 km/h (5 Bft)
29.03.2025 09:10 21,8 °C 8,6 °C 46 % 83 % 1013,6 hPa 0,0 l/m² 18,5 km/h (3 Bft) W-NW 298 ° 1 min 134 W/m² 5,9 °C 2,0 °C 30,6 km/h (5 Bft)
29.03.2025 09:11 21,8 °C 8,6 °C 46 % 83 % 1013,6 hPa 0,0 l/m² 21,8 km/h (4 Bft) NW 323 ° 1 min 155 W/m² 5,9 °C 0,9 °C 29,0 km/h (5 Bft)
29.03.2025 09:12 21,8 °C 8,6 °C 46 % 83 % 1013,7 hPa 0,0 l/m² 21,0 km/h (4 Bft) N-NW 331 ° 1 min 162 W/m² 5,9 °C 1,1 °C 32,2 km/h (5 Bft)
29.03.2025 09:13 21,8 °C 8,6 °C 46 % 83 % 1013,6 hPa 0,0 l/m² 18,3 km/h (3 Bft) NW 326 ° 1 min 148 W/m² 5,9 °C 2,1 °C 27,4 km/h (5 Bft)
29.03.2025 09:14 21,8 °C 8,7 °C 46 % 83 % 1013,6 hPa 0,0 l/m² 22,3 km/h (4 Bft) N-NW 331 ° 1 min 153 W/m² 6,0 °C 0,9 °C 35,4 km/h (5 Bft)
29.03.2025 09:15 21,9 °C 8,7 °C 46 % 83 % 1013,6 hPa 0,0 l/m² 17,2 km/h (3 Bft) NW 307 ° 1 min 169 W/m² 6,0 °C 2,6 °C 24,1 km/h (4 Bft)
29.03.2025 09:16 21,8 °C 8,8 °C 46 % 83 % 1013,6 hPa 0,0 l/m² 25,3 km/h (4 Bft) N 355 ° 1 min 171 W/m² 6,1 °C 0,1 °C 35,4 km/h (5 Bft)
29.03.2025 09:17 21,8 °C 8,8 °C 46 % 83 % 1013,5 hPa 0,0 l/m² 18,4 km/h (3 Bft) NW 314 ° 1 min 142 W/m² 6,1 °C 2,3 °C 25,7 km/h (4 Bft)
29.03.2025 09:18 21,8 °C 8,8 °C 46 % 82 % 1013,7 hPa 0,0 l/m² 23,7 km/h (4 Bft) W-NW 292 ° 1 min 160 W/m² 5,9 °C 0,6 °C 35,4 km/h (5 Bft)
29.03.2025 09:19 21,8 °C 8,8 °C 46 % 82 % 1013,6 hPa 0,0 l/m² 24,5 km/h (4 Bft) NW 309 ° 1 min 160 W/m² 5,9 °C 0,3 °C 40,2 km/h (6 Bft)
29.03.2025 09:20 21,8 °C 8,9 °C 46 % 82 % 1013,6 hPa 0,0 l/m² 23,5 km/h (4 Bft) N-NW 331 ° 1 min 137 W/m² 6,0 °C 0,8 °C 33,8 km/h (5 Bft)
29.03.2025 09:21 21,8 °C 8,8 °C 46 % 82 % 1013,6 hPa 0,0 l/m² 26,6 km/h (4 Bft) NW 318 ° 1 min 137 W/m² 5,9 °C -0,2 °C 38,6 km/h (6 Bft)
29.03.2025 09:22 21,8 °C 8,9 °C 46 % 82 % 1013,6 hPa 0,0 l/m² 24,4 km/h (4 Bft) N-NW 327 ° 1 min 141 W/m² 6,0 °C 0,5 °C 32,2 km/h (5 Bft)
29.03.2025 09:23 21,8 °C 8,9 °C 46 % 82 % 1013,6 hPa 0,0 l/m² 23,1 km/h (4 Bft) N-NW 339 ° 1 min 139 W/m² 6,0 °C 0,9 °C 40,2 km/h (6 Bft)
29.03.2025 09:24 21,8 °C 8,9 °C 46 % 82 % 1013,6 hPa 0,0 l/m² 23,2 km/h (4 Bft) NW 311 ° 1 min 141 W/m² 6,0 °C 0,9 °C 32,2 km/h (5 Bft)
29.03.2025 09:25 21,8 °C 8,9 °C 46 % 82 % 1013,6 hPa 0,0 l/m² 23,6 km/h (4 Bft) NW 305 ° 1 min 148 W/m² 6,0 °C 0,7 °C 27,4 km/h (5 Bft)
29.03.2025 09:26 21,8 °C 8,9 °C 46 % 82 % 1013,6 hPa 0,0 l/m² 21,9 km/h (4 Bft) N-NW 344 ° 1 min 155 W/m² 6,0 °C 1,2 °C 27,4 km/h (5 Bft)
29.03.2025 09:27 21,8 °C 8,9 °C 46 % 82 % 1013,7 hPa 0,0 l/m² 20,0 km/h (4 Bft) N-NO 13 ° 1 min 160 W/m² 6,0 °C 1,9 °C 29,0 km/h (5 Bft)
29.03.2025 09:28 21,9 °C 8,9 °C 46 % 82 % 1013,6 hPa 0,0 l/m² 18,6 km/h (3 Bft) NW 325 ° 1 min 144 W/m² 6,0 °C 2,4 °C 30,6 km/h (5 Bft)
29.03.2025 09:29 21,8 °C 9,0 °C 46 % 83 % 1013,6 hPa 0,0 l/m² 22,5 km/h (4 Bft) N-NW 340 ° 1 min 146 W/m² 6,3 °C 1,2 °C 30,6 km/h (5 Bft)
29.03.2025 09:30 21,8 °C 9,1 °C 46 % 82 % 1013,6 hPa 0,0 l/m² 20,8 km/h (4 Bft) N-NW 337 ° 1 min 158 W/m² 6,2 °C 1,9 °C 29,0 km/h (5 Bft)
29.03.2025 09:31 21,8 °C 9,1 °C 46 % 82 % 1013,7 hPa 0,0 l/m² 12,0 km/h (2 Bft) N-NW 337 ° 1 min 132 W/m² 6,2 °C 5,5 °C 22,5 km/h (4 Bft)
29.03.2025 09:32 21,8 °C 9,1 °C 46 % 83 % 1013,8 hPa 0,0 l/m² 16,0 km/h (3 Bft) N-NW 344 ° 1 min 134 W/m² 6,4 °C 3,6 °C 22,5 km/h (4 Bft)
29.03.2025 09:33 21,8 °C 9,2 °C 46 % 82 % 1013,8 hPa 0,0 l/m² 21,0 km/h (4 Bft) N-NW 334 ° 1 min 139 W/m² 6,3 °C 1,9 °C 35,4 km/h (5 Bft)
29.03.2025 09:34 21,8 °C 9,1 °C 46 % 82 % 1013,8 hPa 0,0 l/m² 23,6 km/h (4 Bft) N-NW 333 ° 1 min 128 W/m² 6,2 °C 1,0 °C 32,2 km/h (5 Bft)
29.03.2025 09:35 21,8 °C 9,1 °C 46 % 82 % 1013,9 hPa 0,0 l/m² 23,0 km/h (4 Bft) N-NW 329 ° 1 min 135 W/m² 6,2 °C 1,2 °C 32,2 km/h (5 Bft)
29.03.2025 09:36 21,9 °C 9,1 °C 46 % 82 % 1013,8 hPa 0,0 l/m² 20,9 km/h (4 Bft) W-NW 287 ° 1 min 144 W/m² 6,2 °C 1,8 °C 29,0 km/h (5 Bft)
29.03.2025 09:37 21,8 °C 9,1 °C 46 % 82 % 1013,8 hPa 0,0 l/m² 21,6 km/h (4 Bft) NW 323 ° 1 min 123 W/m² 6,2 °C 1,6 °C 29,0 km/h (5 Bft)
29.03.2025 09:38 21,9 °C 9,1 °C 46 % 82 % 1013,8 hPa 0,0 l/m² 17,7 km/h (3 Bft) W-NW 292 ° 1 min 134 W/m² 6,2 °C 2,9 °C 29,0 km/h (5 Bft)
29.03.2025 09:43 21,8 °C 9,3 °C 46 % 82 % 1013,9 hPa 0,0 l/m² 13,4 km/h (3 Bft) NW 306 ° 5 min 156 W/m² 6,4 °C 5,0 °C 24,1 km/h (4 Bft)
29.03.2025 09:45 21,8 °C 9,3 °C 46 % 82 % 1014,0 hPa 0,0 l/m² 21,3 km/h (4 Bft) N 5 ° 2 min 135 W/m² 6,4 °C 2,0 °C 35,4 km/h (5 Bft)
29.03.2025 09:46 21,8 °C 9,3 °C 46 % 82 % 1014,0 hPa 0,0 l/m² 16,9 km/h (3 Bft) W-SW 252 ° 1 min 137 W/m² 6,4 °C 3,5 °C 27,4 km/h (5 Bft)
29.03.2025 09:47 21,8 °C 9,3 °C 46 % 82 % 1014,0 hPa 0,0 l/m² 17,6 km/h (3 Bft) W 267 ° 1 min 144 W/m² 6,4 °C 3,2 °C 24,1 km/h (4 Bft)
29.03.2025 09:48 21,8 °C 9,3 °C 46 % 82 % 1014,0 hPa 0,0 l/m² 23,9 km/h (4 Bft) NW 313 ° 1 min 151 W/m² 6,4 °C 1,2 °C 30,6 km/h (5 Bft)
29.03.2025 09:50 21,8 °C 9,3 °C 46 % 82 % 1014,0 hPa 0,0 l/m² 19,9 km/h (4 Bft) N-NW 329 ° 2 min 148 W/m² 6,4 °C 2,4 °C 30,6 km/h (5 Bft)
29.03.2025 09:51 21,8 °C 9,3 °C 46 % 82 % 1014,1 hPa 0,0 l/m² 24,6 km/h (4 Bft) NW 320 ° 1 min 156 W/m² 6,4 °C 1,0 °C 35,4 km/h (5 Bft)
29.03.2025 09:52 21,8 °C 9,3 °C 46 % 81 % 1014,3 hPa 0,0 l/m² 22,4 km/h (4 Bft) NW 313 ° 1 min 156 W/m² 6,2 °C 1,6 °C 30,6 km/h (5 Bft)
29.03.2025 09:54 21,8 °C 9,3 °C 46 % 82 % 1014,2 hPa 0,0 l/m² 22,8 km/h (4 Bft) NW 314 ° 2 min 151 W/m² 6,4 °C 1,5 °C 38,6 km/h (6 Bft)
29.03.2025 09:56 21,9 °C 9,3 °C 46 % 81 % 1014,1 hPa 0,0 l/m² 25,2 km/h (4 Bft) W-SW 258 ° 2 min 179 W/m² 6,2 °C 0,8 °C 40,2 km/h (6 Bft)
29.03.2025 09:58 21,8 °C 9,3 °C 46 % 81 % 1014,1 hPa 0,0 l/m² 21,4 km/h (4 Bft) NW 308 ° 2 min 160 W/m² 6,2 °C 1,9 °C 37,0 km/h (5 Bft)
29.03.2025 10:00 21,8 °C 9,4 °C 46 % 82 % 1014,2 hPa 0,0 l/m² 21,3 km/h (4 Bft) N-NW 329 ° 2 min 165 W/m² 6,5 °C 2,1 °C 33,8 km/h (5 Bft)
29.03.2025 10:01 21,8 °C 9,4 °C 46 % 81 % 1014,1 hPa 0,0 l/m² 16,7 km/h (3 Bft) NW 321 ° 1 min 171 W/m² 6,3 °C 3,7 °C 20,9 km/h (4 Bft)
29.03.2025 10:02 21,8 °C 9,5 °C 46 % 81 % 1014,1 hPa 0,0 l/m² 22,5 km/h (4 Bft) NW 317 ° 1 min 188 W/m² 6,4 °C 1,9 °C 35,4 km/h (5 Bft)
29.03.2025 10:04 21,8 °C 9,5 °C 46 % 81 % 1014,2 hPa 0,0 l/m² 19,7 km/h (3 Bft) W 266 ° 2 min 176 W/m² 6,4 °C 2,7 °C 33,8 km/h (5 Bft)
29.03.2025 10:06 21,8 °C 9,6 °C 46 % 81 % 1014,2 hPa 0,0 l/m² 22,4 km/h (4 Bft) W-NW 301 ° 2 min 197 W/m² 6,5 °C 2,0 °C 38,6 km/h (6 Bft)
29.03.2025 10:08 21,8 °C 9,7 °C 46 % 81 % 1014,1 hPa 0,0 l/m² 20,3 km/h (4 Bft) NW 313 ° 2 min 232 W/m² 6,6 °C 2,8 °C 33,8 km/h (5 Bft)
29.03.2025 10:10 21,8 °C 9,7 °C 46 % 81 % 1014,1 hPa 0,0 l/m² 20,8 km/h (4 Bft) NW 311 ° 2 min 232 W/m² 6,6 °C 2,6 °C 33,8 km/h (5 Bft)
29.03.2025 10:11 21,8 °C 9,8 °C 46 % 81 % 1014,2 hPa 0,0 l/m² 21,2 km/h (4 Bft) NW 304 ° 1 min 260 W/m² 6,7 °C 2,6 °C 30,6 km/h (5 Bft)
29.03.2025 10:12 21,8 °C 9,9 °C 46 % 81 % 1014,2 hPa 0,0 l/m² 20,5 km/h (4 Bft) NW 311 ° 1 min 250 W/m² 6,8 °C 3,0 °C 29,0 km/h (5 Bft)
29.03.2025 10:14 21,8 °C 10,1 °C 46 % 80 % 1014,1 hPa 0,0 l/m² 22,0 km/h (4 Bft) N-NW 327 ° 2 min 274 W/m² 6,8 °C 2,8 °C 37,0 km/h (5 Bft)
29.03.2025 10:16 21,8 °C 10,2 °C 46 % 80 % 1014,2 hPa 0,0 l/m² 18,6 km/h (3 Bft) NW 311 ° 2 min 248 W/m² 6,9 °C 4,0 °C 29,0 km/h (5 Bft)
29.03.2025 10:18 21,8 °C 10,3 °C 46 % 80 % 1014,2 hPa 0,0 l/m² 18,8 km/h (3 Bft) NW 305 ° 2 min 244 W/m² 7,0 °C 4,1 °C 25,7 km/h (4 Bft)
29.03.2025 10:20 21,8 °C 10,3 °C 46 % 79 % 1014,3 hPa 0,0 l/m² 17,7 km/h (3 Bft) N-NW 336 ° 2 min 234 W/m² 6,8 °C 4,5 °C 30,6 km/h (5 Bft)
29.03.2025 10:21 21,8 °C 10,2 °C 46 % 79 % 1014,3 hPa 0,0 l/m² 20,8 km/h (4 Bft) NW 319 ° 1 min 172 W/m² 6,7 °C 3,3 °C 29,0 km/h (5 Bft)
29.03.2025 10:22 21,8 °C 10,2 °C 46 % 79 % 1014,3 hPa 0,0 l/m² 21,4 km/h (4 Bft) N-NW 346 ° 1 min 165 W/m² 6,7 °C 3,1 °C 35,4 km/h (5 Bft)
29.03.2025 10:24 21,8 °C 10,1 °C 46 % 79 % 1014,4 hPa 0,0 l/m² 23,4 km/h (4 Bft) N-NW 330 ° 2 min 160 W/m² 6,6 °C 2,4 °C 33,8 km/h (5 Bft)
29.03.2025 10:26 21,8 °C 10,0 °C 46 % 80 % 1014,3 hPa 0,0 l/m² 22,4 km/h (4 Bft) NW 318 ° 2 min 179 W/m² 6,7 °C 2,5 °C 37,0 km/h (5 Bft)
29.03.2025 10:28 21,8 °C 9,8 °C 46 % 79 % 1014,3 hPa 0,0 l/m² 22,0 km/h (4 Bft) W-NW 293 ° 2 min 185 W/m² 6,3 °C 2,4 °C 35,4 km/h (5 Bft)
29.03.2025 10:30 21,8 °C 9,8 °C 46 % 80 % 1014,4 hPa 0,0 l/m² 20,8 km/h (4 Bft) W-NW 288 ° 2 min 156 W/m² 6,5 °C 2,8 °C 35,4 km/h (5 Bft)
29.03.2025 10:31 21,8 °C 9,8 °C 46 % 81 % 1014,4 hPa 0,0 l/m² 10,2 km/h (2 Bft) W-NW 292 ° 1 min 156 W/m² 6,7 °C 7,3 °C 22,5 km/h (4 Bft)
29.03.2025 10:32 21,8 °C 9,9 °C 46 % 81 % 1014,4 hPa 0,0 l/m² 14,5 km/h (3 Bft) W 277 ° 1 min 151 W/m² 6,8 °C 5,2 °C 22,5 km/h (4 Bft)
29.03.2025 10:34 21,8 °C 10,0 °C 46 % 81 % 1014,5 hPa 0,0 l/m² 14,1 km/h (3 Bft) NW 307 ° 2 min 144 W/m² 6,9 °C 5,5 °C 25,7 km/h (4 Bft)
29.03.2025 10:36 21,8 °C 9,9 °C 46 % 80 % 1014,5 hPa 0,0 l/m² 18,4 km/h (3 Bft) NW 309 ° 2 min 160 W/m² 6,6 °C 3,7 °C 29,0 km/h (5 Bft)
29.03.2025 10:38 21,8 °C 9,9 °C 46 % 80 % 1014,6 hPa 0,0 l/m² 21,7 km/h (4 Bft) NW 321 ° 2 min 172 W/m² 6,6 °C 2,6 °C 35,4 km/h (5 Bft)
29.03.2025 10:40 21,8 °C 9,9 °C 46 % 80 % 1014,5 hPa 0,0 l/m² 22,6 km/h (4 Bft) W-NW 300 ° 2 min 178 W/m² 6,6 °C 2,4 °C 37,0 km/h (5 Bft)
29.03.2025 10:41 21,8 °C 9,9 °C 46 % 80 % 1014,5 hPa 0,0 l/m² 18,4 km/h (3 Bft) NW 315 ° 1 min 204 W/m² 6,6 °C 3,7 °C 25,7 km/h (4 Bft)
29.03.2025 10:42 21,8 °C 9,9 °C 46 % 80 % 1014,5 hPa 0,0 l/m² 25,5 km/h (4 Bft) W-NW 296 ° 1 min 200 W/m² 6,6 °C 1,6 °C 32,2 km/h (5 Bft)
29.03.2025 10:44 21,8 °C 9,9 °C 46 % 80 % 1014,6 hPa 0,0 l/m² 24,2 km/h (4 Bft) NW 324 ° 2 min 199 W/m² 6,6 °C 1,9 °C 40,2 km/h (6 Bft)
29.03.2025 10:46 21,8 °C 9,9 °C 46 % 80 % 1014,6 hPa 0,0 l/m² 21,1 km/h (4 Bft) W-NW 292 ° 2 min 211 W/m² 6,6 °C 2,8 °C 32,2 km/h (5 Bft)
29.03.2025 10:48 21,8 °C 10,0 °C 46 % 80 % 1014,5 hPa 0,0 l/m² 17,9 km/h (3 Bft) W-NW 300 ° 2 min 204 W/m² 6,7 °C 4,0 °C 29,0 km/h (5 Bft)
29.03.2025 10:50 21,8 °C 10,0 °C 46 % 79 % 1014,7 hPa 0,0 l/m² 22,7 km/h (4 Bft) W-NW 299 ° 2 min 211 W/m² 6,5 °C 2,5 °C 37,0 km/h (5 Bft)
29.03.2025 10:51 21,8 °C 10,1 °C 46 % 79 % 1014,6 hPa 0,0 l/m² 23,6 km/h (4 Bft) W 271 ° 1 min 193 W/m² 6,6 °C 2,3 °C 41,8 km/h (6 Bft)
29.03.2025 10:52 21,8 °C 10,1 °C 46 % 79 % 1014,6 hPa 0,0 l/m² 23,0 km/h (4 Bft) NW 305 ° 1 min 230 W/m² 6,6 °C 2,5 °C 32,2 km/h (5 Bft)
29.03.2025 10:54 21,8 °C 10,1 °C 46 % 79 % 1014,7 hPa 0,0 l/m² 17,3 km/h (3 Bft) W-NW 298 ° 2 min 183 W/m² 6,6 °C 4,4 °C 29,0 km/h (5 Bft)
29.03.2025 10:56 21,8 °C 10,2 °C 46 % 79 % 1014,7 hPa 0,0 l/m² 15,9 km/h (3 Bft) NW 317 ° 2 min 169 W/m² 6,7 °C 5,0 °C 24,1 km/h (4 Bft)
29.03.2025 10:58 21,8 °C 10,2 °C 46 % 80 % 1014,7 hPa 0,0 l/m² 13,2 km/h (3 Bft) NW 306 ° 2 min 142 W/m² 6,9 °C 6,2 °C 24,1 km/h (4 Bft)
29.03.2025 11:00 21,8 °C 10,3 °C 46 % 79 % 1014,8 hPa 0,0 l/m² 18,4 km/h (3 Bft) W-NW 299 ° 2 min 141 W/m² 6,8 °C 4,2 °C 25,7 km/h (4 Bft)
29.03.2025 11:01 21,8 °C 10,3 °C 46 % 79 % 1014,7 hPa 0,0 l/m² 12,5 km/h (2 Bft) N-NW 327 ° 1 min 130 W/m² 6,8 °C 6,6 °C 27,4 km/h (5 Bft)
29.03.2025 11:02 21,8 °C 10,3 °C 46 % 79 % 1014,7 hPa 0,0 l/m² 18,9 km/h (3 Bft) W 273 ° 1 min 134 W/m² 6,8 °C 4,0 °C 27,4 km/h (5 Bft)
29.03.2025 11:04 21,8 °C 10,3 °C 46 % 79 % 1014,7 hPa 0,0 l/m² 16,9 km/h (3 Bft) N-NW 328 ° 2 min 109 W/m² 6,8 °C 4,7 °C 29,0 km/h (5 Bft)
29.03.2025 11:06 21,8 °C 10,3 °C 46 % 79 % 1014,9 hPa 0,0 l/m² 20,0 km/h (4 Bft) W-NW 287 ° 2 min 113 W/m² 6,8 °C 3,7 °C 30,6 km/h (5 Bft)
29.03.2025 11:08 21,8 °C 10,2 °C 46 % 79 % 1014,9 hPa 0,0 l/m² 14,6 km/h (3 Bft) W 279 ° 2 min 141 W/m² 6,7 °C 5,5 °C 25,7 km/h (4 Bft)
29.03.2025 11:10 21,8 °C 10,2 °C 46 % 79 % 1014,8 hPa 0,0 l/m² 15,9 km/h (3 Bft) W 276 ° 2 min 128 W/m² 6,7 °C 5,0 °C 29,0 km/h (5 Bft)
29.03.2025 11:11 21,8 °C 10,1 °C 46 % 79 % 1014,8 hPa 0,0 l/m² 15,9 km/h (3 Bft) W-NW 294 ° 1 min 125 W/m² 6,6 °C 4,9 °C 22,5 km/h (4 Bft)
29.03.2025 11:12 21,8 °C 10,1 °C 46 % 79 % 1014,8 hPa 0,0 l/m² 9,4 km/h (2 Bft) NW 317 ° 1 min 121 W/m² 6,6 °C 8,1 °C 16,1 km/h (3 Bft)
29.03.2025 11:15 21,8 °C 10,2 °C 46 % 80 % 1014,8 hPa 0,0 l/m² 7,8 km/h (2 Bft) N-NW 329 ° 3 min 104 W/m² 6,9 °C 9,2 °C 19,3 km/h (3 Bft)
29.03.2025 11:17 21,8 °C 10,2 °C 46 % 80 % 1014,8 hPa 0,0 l/m² 13,3 km/h (3 Bft) N-NW 329 ° 2 min 102 W/m² 6,9 °C 6,1 °C 25,7 km/h (4 Bft)
29.03.2025 11:19 21,8 °C 10,1 °C 46 % 79 % 1014,8 hPa 0,0 l/m² 17,9 km/h (3 Bft) NW 325 ° 2 min 91 W/m² 6,6 °C 4,1 °C 27,4 km/h (5 Bft)
29.03.2025 11:20 21,7 °C 10,1 °C 46 % 79 % 1014,8 hPa 0,0 l/m² 16,8 km/h (3 Bft) N-NW 346 ° 1 min 83 W/m² 6,6 °C 4,5 °C 24,1 km/h (4 Bft)
29.03.2025 11:21 21,8 °C 10,0 °C 46 % 79 % 1014,8 hPa 0,0 l/m² 9,2 km/h (2 Bft) W-NW 286 ° 1 min 79 W/m² 6,5 °C 8,1 °C 14,5 km/h (3 Bft)
29.03.2025 11:22 21,8 °C 10,1 °C 46 % 79 % 1014,8 hPa 0,0 l/m² 16,7 km/h (3 Bft) W-NW 282 ° 1 min 84 W/m² 6,6 °C 4,6 °C 22,5 km/h (4 Bft)
29.03.2025 11:24 21,8 °C 9,9 °C 46 % 79 % 1014,9 hPa 0,0 l/m² 19,4 km/h (3 Bft) N-NW 329 ° 2 min 84 W/m² 6,4 °C 3,4 °C 32,2 km/h (5 Bft)
29.03.2025 11:26 21,7 °C 9,9 °C 46 % 79 % 1015,0 hPa 0,0 l/m² 22,7 km/h (4 Bft) W-NW 294 ° 2 min 90 W/m² 6,4 °C 2,3 °C 30,6 km/h (5 Bft)
29.03.2025 11:28 21,8 °C 9,8 °C 46 % 79 % 1015,0 hPa 0,0 l/m² 21,4 km/h (4 Bft) NW 318 ° 2 min 113 W/m² 6,3 °C 2,6 °C 35,4 km/h (5 Bft)
29.03.2025 11:30 21,8 °C 9,8 °C 46 % 80 % 1015,1 hPa 0,0 l/m² 17,8 km/h (3 Bft) NW 309 ° 2 min 120 W/m² 6,5 °C 3,8 °C 27,4 km/h (5 Bft)
29.03.2025 11:31 21,8 °C 9,8 °C 46 % 80 % 1015,1 hPa 0,0 l/m² 21,8 km/h (4 Bft) N-NW 327 ° 1 min 121 W/m² 6,5 °C 2,5 °C 30,6 km/h (5 Bft)
29.03.2025 11:32 21,8 °C 9,8 °C 46 % 80 % 1015,1 hPa 0,0 l/m² 14,8 km/h (3 Bft) NW 317 ° 1 min 116 W/m² 6,5 °C 5,0 °C 20,9 km/h (4 Bft)
29.03.2025 11:34 21,7 °C 9,9 °C 46 % 80 % 1015,1 hPa 0,0 l/m² 15,0 km/h (3 Bft) N-NW 344 ° 2 min 107 W/m² 6,6 °C 5,0 °C 25,7 km/h (4 Bft)
29.03.2025 11:35 21,8 °C 9,9 °C 46 % 80 % 1015,1 hPa 0,0 l/m² 15,8 km/h (3 Bft) W-NW 291 ° 1 min 113 W/m² 6,6 °C 4,7 °C 20,9 km/h (4 Bft)
29.03.2025 11:37 21,8 °C 9,9 °C 46 % 80 % 1015,1 hPa 0,0 l/m² 19,4 km/h (3 Bft) NW 317 ° 2 min 128 W/m² 6,6 °C 3,4 °C 27,4 km/h (5 Bft)
29.03.2025 11:39 21,7 °C 9,9 °C 46 % 80 % 1015,1 hPa 0,0 l/m² 20,1 km/h (4 Bft) N-NW 327 ° 2 min 144 W/m² 6,6 °C 3,1 °C 29,0 km/h (5 Bft)
29.03.2025 11:40 21,7 °C 9,9 °C 46 % 80 % 1015,1 hPa 0,0 l/m² 17,1 km/h (3 Bft) N-NW 327 ° 1 min 144 W/m² 6,6 °C 4,2 °C 27,4 km/h (5 Bft)
29.03.2025 11:41 21,8 °C 9,9 °C 46 % 81 % 1015,1 hPa 0,0 l/m² 11,3 km/h (2 Bft) NW 304 ° 1 min 125 W/m² 6,8 °C 6,8 °C 17,7 km/h (3 Bft)
29.03.2025 11:42 21,8 °C 10,0 °C 46 % 81 % 1015,1 hPa 0,0 l/m² 16,7 km/h (3 Bft) NW 304 ° 1 min 104 W/m² 6,9 °C 4,5 °C 27,4 km/h (5 Bft)
29.03.2025 11:44 21,7 °C 10,0 °C 46 % 81 % 1015,1 hPa 0,0 l/m² 16,6 km/h (3 Bft) W-NW 303 ° 2 min 121 W/m² 6,9 °C 4,5 °C 30,6 km/h (5 Bft)
29.03.2025 11:46 21,8 °C 10,1 °C 46 % 81 % 1015,2 hPa 0,0 l/m² 15,4 km/h (3 Bft) W-NW 288 ° 2 min 141 W/m² 7,0 °C 5,1 °C 24,1 km/h (4 Bft)
29.03.2025 11:48 21,8 °C 10,1 °C 46 % 81 % 1015,1 hPa 0,0 l/m² 9,8 km/h (2 Bft) W-NW 300 ° 2 min 199 W/m² 7,0 °C 7,8 °C 17,7 km/h (3 Bft)
29.03.2025 11:50 21,8 °C 10,2 °C 46 % 81 % 1015,2 hPa 0,0 l/m² 12,6 km/h (3 Bft) W-NW 300 ° 2 min 158 W/m² 7,1 °C 6,5 °C 20,9 km/h (4 Bft)
29.03.2025 11:51 21,8 °C 10,2 °C 46 % 81 % 1015,2 hPa 0,0 l/m² 8,5 km/h (2 Bft) W-NW 303 ° 1 min 151 W/m² 7,1 °C 8,7 °C 20,9 km/h (4 Bft)
29.03.2025 11:52 21,8 °C 10,3 °C 46 % 81 % 1015,2 hPa 0,0 l/m² 18,8 km/h (3 Bft) NW 317 ° 1 min 128 W/m² 7,2 °C 4,1 °C 25,7 km/h (4 Bft)
29.03.2025 11:55 21,8 °C 10,3 °C 46 % 80 % 1015,3 hPa 0,0 l/m² 17,9 km/h (3 Bft) NW 308 ° 3 min 95 W/m² 7,0 °C 4,4 °C 27,4 km/h (5 Bft)
29.03.2025 11:57 21,8 °C 10,2 °C 46 % 80 % 1015,3 hPa 0,0 l/m² 12,8 km/h (3 Bft) NW 309 ° 2 min 95 W/m² 6,9 °C 6,4 °C 24,1 km/h (4 Bft)
29.03.2025 11:59 21,8 °C 10,1 °C 46 % 80 % 1015,3 hPa 0,0 l/m² 15,4 km/h (3 Bft) NW 313 ° 2 min 114 W/m² 6,8 °C 5,1 °C 22,5 km/h (4 Bft)
29.03.2025 12:00 21,8 °C 10,1 °C 46 % 81 % 1015,3 hPa 0,0 l/m² 12,0 km/h (2 Bft) W 277 ° 1 min 118 W/m² 7,0 °C 6,6 °C 17,7 km/h (3 Bft)
29.03.2025 12:01 21,8 °C 10,1 °C 46 % 81 % 1015,3 hPa 0,0 l/m² 7,6 km/h (2 Bft) N 355 ° 1 min 114 W/m² 7,0 °C 9,2 °C 14,5 km/h (3 Bft)
29.03.2025 12:02 21,8 °C 10,1 °C 46 % 81 % 1015,3 hPa 0,0 l/m² 8,0 km/h (2 Bft) W 270 ° 1 min 127 W/m² 7,0 °C 9,0 °C 14,5 km/h (3 Bft)
29.03.2025 12:05 21,8 °C 10,0 °C 47 % 81 % 1015,3 hPa 0,0 l/m² 14,4 km/h (3 Bft) W 270 ° 3 min 114 W/m² 6,9 °C 5,4 °C 27,4 km/h (5 Bft)
29.03.2025 12:07 21,8 °C 10,0 °C 47 % 81 % 1015,3 hPa 0,0 l/m² 15,6 km/h (3 Bft) W-NW 301 ° 2 min 113 W/m² 6,9 °C 4,9 °C 24,1 km/h (4 Bft)
29.03.2025 12:09 21,8 °C 10,0 °C 47 % 81 % 1015,4 hPa 0,0 l/m² 9,3 km/h (2 Bft) NW 310 ° 2 min 98 W/m² 6,9 °C 8,0 °C 17,7 km/h (3 Bft)
29.03.2025 12:10 21,8 °C 10,1 °C 47 % 81 % 1015,4 hPa 0,0 l/m² 11,3 km/h (2 Bft) NW 305 ° 1 min 105 W/m² 7,0 °C 7,0 °C 20,9 km/h (4 Bft)
29.03.2025 12:11 21,8 °C 10,1 °C 47 % 81 % 1015,4 hPa 0,0 l/m² 16,4 km/h (3 Bft) N-NW 330 ° 1 min 120 W/m² 7,0 °C 4,7 °C 24,1 km/h (4 Bft)
29.03.2025 12:12 21,8 °C 10,1 °C 47 % 81 % 1015,4 hPa 0,0 l/m² 17,2 km/h (3 Bft) NW 304 ° 1 min 141 W/m² 7,0 °C 4,4 °C 22,5 km/h (4 Bft)
29.03.2025 12:14 21,8 °C 10,1 °C 47 % 81 % 1015,5 hPa 0,0 l/m² 18,8 km/h (3 Bft) W-SW 252 ° 2 min 100 W/m² 7,0 °C 3,8 °C 29,0 km/h (5 Bft)
29.03.2025 12:16 21,8 °C 10,0 °C 47 % 80 % 1015,4 hPa 0,0 l/m² 19,9 km/h (4 Bft) NW 315 ° 2 min 134 W/m² 6,7 °C 3,3 °C 30,6 km/h (5 Bft)
29.03.2025 12:18 21,8 °C 9,9 °C 47 % 81 % 1015,5 hPa 0,0 l/m² 18,9 km/h (3 Bft) N-NW 340 ° 2 min 165 W/m² 6,8 °C 3,5 °C 30,6 km/h (5 Bft)
29.03.2025 12:20 21,8 °C 10,0 °C 47 % 81 % 1015,5 hPa 0,0 l/m² 22,5 km/h (4 Bft) N 5 ° 2 min 109 W/m² 6,9 °C 2,5 °C 35,4 km/h (5 Bft)
29.03.2025 12:21 21,8 °C 9,9 °C 47 % 80 % 1015,4 hPa 0,0 l/m² 21,2 km/h (4 Bft) NW 304 ° 1 min 98 W/m² 6,6 °C 2,8 °C 38,6 km/h (6 Bft)
29.03.2025 12:22 21,8 °C 9,9 °C 47 % 81 % 1015,4 hPa 0,0 l/m² 19,2 km/h (3 Bft) W-NW 289 ° 1 min 109 W/m² 6,8 °C 3,4 °C 25,7 km/h (4 Bft)
29.03.2025 12:24 21,8 °C 9,9 °C 47 % 81 % 1015,4 hPa 0,0 l/m² 12,6 km/h (3 Bft) NW 311 ° 2 min 120 W/m² 6,8 °C 6,1 °C 22,5 km/h (4 Bft)
29.03.2025 12:26 21,8 °C 10,1 °C 47 % 81 % 1015,4 hPa 0,0 l/m² 15,9 km/h (3 Bft) W-NW 297 ° 2 min 146 W/m² 7,0 °C 4,9 °C 27,4 km/h (5 Bft)
29.03.2025 12:28 21,8 °C 10,1 °C 46 % 81 % 1015,5 hPa 0,0 l/m² 16,8 km/h (3 Bft) NW 309 ° 2 min 167 W/m² 7,0 °C 4,5 °C 27,4 km/h (5 Bft)
29.03.2025 12:30 21,7 °C 10,1 °C 46 % 81 % 1015,5 hPa 0,0 l/m² 18,0 km/h (3 Bft) NW 321 ° 2 min 167 W/m² 7,0 °C 4,1 °C 32,2 km/h (5 Bft)
29.03.2025 12:31 21,7 °C 10,2 °C 47 % 81 % 1015,4 hPa 0,0 l/m² 15,7 km/h (3 Bft) W-NW 290 ° 1 min 167 W/m² 7,1 °C 5,1 °C 25,7 km/h (4 Bft)
29.03.2025 12:32 21,7 °C 10,2 °C 47 % 81 % 1015,4 hPa 0,0 l/m² 22,3 km/h (4 Bft) NW 311 ° 1 min 146 W/m² 7,1 °C 2,8 °C 30,6 km/h (5 Bft)
29.03.2025 12:34 21,7 °C 10,3 °C 47 % 80 % 1015,5 hPa 0,0 l/m² 13,7 km/h (3 Bft) W-SW 244 ° 2 min 107 W/m² 7,0 °C 6,1 °C 24,1 km/h (4 Bft)
29.03.2025 12:36 21,7 °C 10,3 °C 47 % 80 % 1015,5 hPa 0,0 l/m² 14,2 km/h (3 Bft) W-NW 302 ° 2 min 100 W/m² 7,0 °C 5,8 °C 25,7 km/h (4 Bft)
29.03.2025 12:38 21,7 °C 10,3 °C 47 % 80 % 1015,5 hPa 0,0 l/m² 11,3 km/h (2 Bft) W-NW 291 ° 2 min 84 W/m² 7,0 °C 7,2 °C 24,1 km/h (4 Bft)
29.03.2025 12:40 21,7 °C 10,3 °C 47 % 80 % 1015,6 hPa 0,0 l/m² 16,8 km/h (3 Bft) W 279 ° 2 min 104 W/m² 7,0 °C 4,8 °C 27,4 km/h (5 Bft)
29.03.2025 12:41 21,7 °C 10,2 °C 47 % 80 % 1015,6 hPa 0,0 l/m² 17,2 km/h (3 Bft) N-NW 343 ° 1 min 114 W/m² 6,9 °C 4,5 °C 29,0 km/h (5 Bft)
29.03.2025 12:42 21,7 °C 10,2 °C 47 % 80 % 1015,6 hPa 0,0 l/m² 21,2 km/h (4 Bft) NW 306 ° 1 min 114 W/m² 6,9 °C 3,2 °C 27,4 km/h (5 Bft)
29.03.2025 12:44 21,7 °C 10,1 °C 47 % 80 % 1015,6 hPa 0,0 l/m² 21,8 km/h (4 Bft) NW 313 ° 2 min 107 W/m² 6,8 °C 2,9 °C 37,0 km/h (5 Bft)
29.03.2025 12:46 21,7 °C 10,1 °C 47 % 79 % 1015,6 hPa 0,0 l/m² 21,2 km/h (4 Bft) NW 306 ° 2 min 137 W/m² 6,6 °C 3,0 °C 30,6 km/h (5 Bft)
29.03.2025 12:48 21,7 °C 10,0 °C 47 % 80 % 1015,6 hPa 0,0 l/m² 20,5 km/h (4 Bft) N-NW 327 ° 2 min 146 W/m² 6,7 °C 3,1 °C 30,6 km/h (5 Bft)
29.03.2025 12:50 21,8 °C 10,1 °C 47 % 80 % 1015,7 hPa 0,0 l/m² 13,7 km/h (3 Bft) W-NW 299 ° 2 min 141 W/m² 6,8 °C 5,8 °C 22,5 km/h (4 Bft)
29.03.2025 12:51 21,8 °C 10,2 °C 47 % 81 % 1015,7 hPa 0,0 l/m² 11,6 km/h (2 Bft) N-NW 330 ° 1 min 120 W/m² 7,1 °C 6,9 °C 20,9 km/h (4 Bft)
29.03.2025 12:52 21,8 °C 10,2 °C 47 % 80 % 1015,7 hPa 0,0 l/m² 16,3 km/h (3 Bft) W-NW 296 ° 1 min 113 W/m² 6,9 °C 4,9 °C 24,1 km/h (4 Bft)
29.03.2025 12:54 21,8 °C 10,3 °C 47 % 80 % 1015,7 hPa 0,0 l/m² 14,1 km/h (3 Bft) W 277 ° 2 min 105 W/m² 7,0 °C 5,9 °C 24,1 km/h (4 Bft)
29.03.2025 12:56 21,8 °C 10,3 °C 47 % 80 % 1015,7 hPa 0,0 l/m² 12,1 km/h (2 Bft) W 277 ° 2 min 95 W/m² 7,0 °C 6,8 °C 24,1 km/h (4 Bft)
29.03.2025 12:58 21,8 °C 10,2 °C 47 % 79 % 1015,7 hPa 0,0 l/m² 15,8 km/h (3 Bft) NW 308 ° 2 min 97 W/m² 6,7 °C 5,1 °C 24,1 km/h (4 Bft)
29.03.2025 13:00 21,8 °C 10,1 °C 47 % 80 % 1015,7 hPa 0,0 l/m² 9,0 km/h (2 Bft) W-NW 283 ° 2 min 100 W/m² 6,8 °C 8,3 °C 16,1 km/h (3 Bft)
29.03.2025 13:01 21,8 °C 10,1 °C 47 % 80 % 1015,7 hPa 0,0 l/m² 15,7 km/h (3 Bft) W 278 ° 1 min 104 W/m² 6,8 °C 5,0 °C 25,7 km/h (4 Bft)
29.03.2025 13:02 21,8 °C 10,1 °C 47 % 80 % 1015,7 hPa 0,0 l/m² 12,6 km/h (3 Bft) NW 307 ° 1 min 105 W/m² 6,8 °C 6,3 °C 20,9 km/h (4 Bft)
29.03.2025 13:03 21,8 °C 10,1 °C 47 % 80 % 1015,7 hPa 0,0 l/m² 18,4 km/h (3 Bft) NW 310 ° 1 min 111 W/m² 6,8 °C 4,0 °C 30,6 km/h (5 Bft)
29.03.2025 13:04 21,8 °C 10,0 °C 47 % 80 % 1015,7 hPa 0,0 l/m² 19,2 km/h (3 Bft) W-NW 299 ° 1 min 109 W/m² 6,7 °C 3,6 °C 27,4 km/h (5 Bft)
29.03.2025 13:06 21,8 °C 10,0 °C 47 % 80 % 1015,7 hPa 0,0 l/m² 16,7 km/h (3 Bft) NW 313 ° 2 min 90 W/m² 6,7 °C 4,5 °C 25,7 km/h (4 Bft)
29.03.2025 13:08 21,8 °C 9,9 °C 47 % 80 % 1015,9 hPa 0,0 l/m² 14,9 km/h (3 Bft) NW 313 ° 2 min 88 W/m² 6,6 °C 5,1 °C 25,7 km/h (4 Bft)
29.03.2025 13:10 21,8 °C 9,9 °C 47 % 81 % 1015,8 hPa 0,0 l/m² 12,9 km/h (3 Bft) NW 315 ° 2 min 95 W/m² 6,8 °C 6,0 °C 19,3 km/h (3 Bft)
29.03.2025 13:11 21,8 °C 9,9 °C 47 % 81 % 1015,7 hPa 0,0 l/m² 11,6 km/h (2 Bft) NW 315 ° 1 min 105 W/m² 6,8 °C 6,6 °C 19,3 km/h (3 Bft)
29.03.2025 13:12 21,8 °C 10,0 °C 47 % 81 % 1015,7 hPa 0,0 l/m² 11,5 km/h (2 Bft) NW 324 ° 1 min 109 W/m² 6,9 °C 6,8 °C 22,5 km/h (4 Bft)
29.03.2025 13:15 21,8 °C 10,0 °C 47 % 81 % 1015,8 hPa 0,0 l/m² 16,5 km/h (3 Bft) N-NW 342 ° 3 min 118 W/m² 6,9 °C 4,5 °C 24,1 km/h (4 Bft)
29.03.2025 13:17 21,8 °C 10,0 °C 47 % 80 % 1015,6 hPa 0,0 l/m² 16,7 km/h (3 Bft) N-NW 331 ° 2 min 120 W/m² 6,7 °C 4,5 °C 25,7 km/h (4 Bft)
29.03.2025 13:19 21,8 °C 10,1 °C 47 % 81 % 1015,7 hPa 0,0 l/m² 15,2 km/h (3 Bft) W-NW 284 ° 2 min 155 W/m² 7,0 °C 5,2 °C 24,1 km/h (4 Bft)
29.03.2025 13:20 21,8 °C 10,2 °C 47 % 80 % 1015,7 hPa 0,0 l/m² 13,9 km/h (3 Bft) NW 305 ° 1 min 172 W/m² 6,9 °C 5,8 °C 22,5 km/h (4 Bft)
29.03.2025 13:21 21,8 °C 10,2 °C 47 % 80 % 1015,7 hPa 0,0 l/m² 16,5 km/h (3 Bft) NW 318 ° 1 min 195 W/m² 6,9 °C 4,8 °C 20,9 km/h (4 Bft)
29.03.2025 13:22 21,8 °C 10,3 °C 47 % 80 % 1015,7 hPa 0,0 l/m² 14,8 km/h (3 Bft) NW 311 ° 1 min 216 W/m² 7,0 °C 5,6 °C 19,3 km/h (3 Bft)
29.03.2025 13:24 21,8 °C 10,4 °C 47 % 80 % 1015,6 hPa 0,0 l/m² 14,3 km/h (3 Bft) NW 313 ° 2 min 227 W/m² 7,1 °C 5,9 °C 20,9 km/h (4 Bft)
29.03.2025 13:26 21,8 °C 10,8 °C 47 % 80 % 1015,6 hPa 0,0 l/m² 19,3 km/h (3 Bft) N-NW 330 ° 2 min 304 W/m² 7,5 °C 4,5 °C 32,2 km/h (5 Bft)
29.03.2025 13:28 21,8 °C 10,8 °C 47 % 78 % 1015,6 hPa 0,0 l/m² 20,3 km/h (4 Bft) NW 326 ° 2 min 258 W/m² 7,1 °C 4,2 °C 37,0 km/h (5 Bft)
29.03.2025 13:30 21,8 °C 10,9 °C 47 % 78 % 1015,6 hPa 0,0 l/m² 22,0 km/h (4 Bft) W-NW 302 ° 2 min 325 W/m² 7,2 °C 3,9 °C 32,2 km/h (5 Bft)
29.03.2025 13:31 21,8 °C 10,9 °C 47 % 78 % 1015,6 hPa 0,0 l/m² 18,1 km/h (3 Bft) NW 313 ° 1 min 162 W/m² 7,2 °C 5,1 °C 27,4 km/h (5 Bft)
29.03.2025 13:32 21,8 °C 10,9 °C 47 % 78 % 1015,6 hPa 0,0 l/m² 15,2 km/h (3 Bft) N-NW 338 ° 1 min 156 W/m² 7,2 °C 6,1 °C 22,5 km/h (4 Bft)
29.03.2025 13:35 21,8 °C 10,8 °C 47 % 77 % 1015,5 hPa 0,0 l/m² 20,3 km/h (4 Bft) NW 313 ° 3 min 137 W/m² 6,9 °C 4,2 °C 32,2 km/h (5 Bft)
29.03.2025 13:37 21,8 °C 10,8 °C 47 % 78 % 1015,5 hPa 0,0 l/m² 19,2 km/h (3 Bft) N-NW 340 ° 2 min 139 W/m² 7,1 °C 4,6 °C 30,6 km/h (5 Bft)
29.03.2025 13:39 21,8 °C 10,7 °C 47 % 77 % 1015,5 hPa 0,0 l/m² 16,6 km/h (3 Bft) N-NW 329 ° 2 min 120 W/m² 6,8 °C 5,4 °C 24,1 km/h (4 Bft)
29.03.2025 13:40 21,8 °C 10,7 °C 47 % 78 % 1015,6 hPa 0,0 l/m² 17,8 km/h (3 Bft) N 9 ° 1 min 120 W/m² 7,0 °C 4,9 °C 24,1 km/h (4 Bft)
29.03.2025 13:41 21,8 °C 10,7 °C 47 % 78 % 1015,6 hPa 0,0 l/m² 16,5 km/h (3 Bft) NW 321 ° 1 min 127 W/m² 7,0 °C 5,4 °C 24,1 km/h (4 Bft)
29.03.2025 13:42 21,8 °C 10,7 °C 47 % 78 % 1015,6 hPa 0,0 l/m² 18,8 km/h (3 Bft) W 279 ° 1 min 111 W/m² 7,0 °C 4,6 °C 25,7 km/h (4 Bft)
29.03.2025 13:45 21,8 °C 10,6 °C 47 % 78 % 1015,5 hPa 0,0 l/m² 17,5 km/h (3 Bft) NW 319 ° 3 min 76 W/m² 6,9 °C 4,9 °C 30,6 km/h (5 Bft)
29.03.2025 13:47 21,8 °C 10,6 °C 47 % 78 % 1015,6 hPa 0,0 l/m² 21,1 km/h (4 Bft) NW 304 ° 2 min 63 W/m² 6,9 °C 3,7 °C 33,8 km/h (5 Bft)
29.03.2025 13:49 21,8 °C 10,4 °C 47 % 78 % 1015,6 hPa 0,0 l/m² 15,2 km/h (3 Bft) N-NW 333 ° 2 min 69 W/m² 6,7 °C 5,5 °C 33,8 km/h (5 Bft)
29.03.2025 13:50 21,8 °C 10,4 °C 47 % 78 % 1015,6 hPa 0,0 l/m² 22,1 km/h (4 Bft) W-NW 302 ° 1 min 70 W/m² 6,7 °C 3,2 °C 30,6 km/h (5 Bft)
29.03.2025 13:51 21,8 °C 10,4 °C 47 % 78 % 1015,6 hPa 0,0 l/m² 16,4 km/h (3 Bft) NW 312 ° 1 min 76 W/m² 6,7 °C 5,1 °C 27,4 km/h (5 Bft)
29.03.2025 13:52 21,8 °C 10,4 °C 47 % 78 % 1015,6 hPa 0,0 l/m² 15,4 km/h (3 Bft) NW 309 ° 1 min 90 W/m² 6,7 °C 5,5 °C 19,3 km/h (3 Bft)
29.03.2025 13:55 21,8 °C 10,4 °C 47 % 78 % 1015,6 hPa 0,0 l/m² 17,5 km/h (3 Bft) W-NW 294 ° 3 min 214 W/m² 6,7 °C 4,7 °C 27,4 km/h (5 Bft)
29.03.2025 13:57 21,8 °C 10,6 °C 47 % 77 % 1015,6 hPa 0,0 l/m² 21,2 km/h (4 Bft) N-NW 346 ° 2 min 216 W/m² 6,7 °C 3,7 °C 30,6 km/h (5 Bft)
29.03.2025 13:59 21,8 °C 10,7 °C 47 % 77 % 1015,7 hPa 0,0 l/m² 19,4 km/h (3 Bft) NW 315 ° 2 min 218 W/m² 6,8 °C 4,4 °C 29,0 km/h (5 Bft)
29.03.2025 14:00 21,8 °C 10,8 °C 47 % 77 % 1015,6 hPa 0,0 l/m² 16,0 km/h (3 Bft) NW 305 ° 1 min 176 W/m² 6,9 °C 5,7 °C 22,5 km/h (4 Bft)
29.03.2025 14:01 21,8 °C 10,9 °C 47 % 77 % 1015,6 hPa 0,0 l/m² 15,6 km/h (3 Bft) N-NW 346 ° 1 min 179 W/m² 7,0 °C 6,0 °C 19,3 km/h (3 Bft)
29.03.2025 14:02 21,8 °C 10,9 °C 47 % 76 % 1015,6 hPa 0,0 l/m² 20,3 km/h (4 Bft) N-NW 330 ° 1 min 193 W/m² 6,8 °C 4,4 °C 30,6 km/h (5 Bft)
29.03.2025 14:04 21,8 °C 11,0 °C 47 % 76 % 1015,6 hPa 0,0 l/m² 21,1 km/h (4 Bft) N-NW 330 ° 2 min 195 W/m² 6,9 °C 4,2 °C 30,6 km/h (5 Bft)
29.03.2025 14:06 21,9 °C 11,0 °C 47 % 75 % 1015,6 hPa 0,0 l/m² 20,1 km/h (4 Bft) NW 324 ° 2 min 199 W/m² 6,7 °C 4,5 °C 27,4 km/h (5 Bft)
29.03.2025 14:08 21,9 °C 11,1 °C 47 % 76 % 1015,7 hPa 0,0 l/m² 19,7 km/h (3 Bft) NW 321 ° 2 min 163 W/m² 7,0 °C 4,8 °C 30,6 km/h (5 Bft)
29.03.2025 14:10 21,9 °C 11,2 °C 47 % 75 % 1015,7 hPa 0,0 l/m² 20,6 km/h (4 Bft) N-NW 328 ° 2 min 178 W/m² 6,9 °C 4,7 °C 30,6 km/h (5 Bft)
29.03.2025 14:11 21,8 °C 11,1 °C 47 % 75 % 1015,7 hPa 0,0 l/m² 16,9 km/h (3 Bft) NW 322 ° 1 min 181 W/m² 6,8 °C 5,7 °C 24,1 km/h (4 Bft)
29.03.2025 14:12 21,8 °C 11,2 °C 47 % 76 % 1015,7 hPa 0,0 l/m² 17,4 km/h (3 Bft) NW 315 ° 1 min 202 W/m² 7,1 °C 5,7 °C 22,5 km/h (4 Bft)
29.03.2025 14:13 21,8 °C 11,2 °C 47 % 76 % 1015,7 hPa 0,0 l/m² 16,8 km/h (3 Bft) N-NW 328 ° 1 min 207 W/m² 7,1 °C 5,9 °C 25,7 km/h (4 Bft)
29.03.2025 14:15 21,8 °C 11,3 °C 47 % 75 % 1015,6 hPa 0,0 l/m² 21,2 km/h (4 Bft) NW 312 ° 2 min 229 W/m² 7,0 °C 4,6 °C 30,6 km/h (5 Bft)
29.03.2025 14:17 21,9 °C 11,4 °C 47 % 75 % 1015,7 hPa 0,0 l/m² 16,1 km/h (3 Bft) N-NW 327 ° 2 min 188 W/m² 7,1 °C 6,4 °C 24,1 km/h (4 Bft)
29.03.2025 14:19 21,9 °C 11,6 °C 47 % 75 % 1015,7 hPa 0,0 l/m² 12,5 km/h (2 Bft) NW 324 ° 2 min 309 W/m² 7,3 °C 8,1 °C 22,5 km/h (4 Bft)
29.03.2025 14:20 21,9 °C 11,7 °C 47 % 75 % 1015,7 hPa 0,0 l/m² 20,7 km/h (4 Bft) N 355 ° 1 min 309 W/m² 7,4 °C 5,3 °C 30,6 km/h (5 Bft)
29.03.2025 14:21 21,9 °C 11,7 °C 47 % 75 % 1015,7 hPa 0,0 l/m² 21,5 km/h (4 Bft) N 5 ° 1 min 204 W/m² 7,4 °C 5,0 °C 30,6 km/h (5 Bft)
29.03.2025 14:22 21,9 °C 11,7 °C 47 % 74 % 1015,7 hPa 0,0 l/m² 23,0 km/h (4 Bft) N 355 ° 1 min 186 W/m² 7,2 °C 4,6 °C 35,4 km/h (5 Bft)
29.03.2025 14:24 21,9 °C 11,6 °C 47 % 74 % 1015,7 hPa 0,0 l/m² 23,6 km/h (4 Bft) N-NW 329 ° 2 min 148 W/m² 7,1 °C 4,3 °C 38,6 km/h (6 Bft)
29.03.2025 14:26 21,9 °C 11,6 °C 47 % 74 % 1015,6 hPa 0,0 l/m² 17,9 km/h (3 Bft) N-NW 332 ° 2 min 167 W/m² 7,1 °C 6,0 °C 32,2 km/h (5 Bft)
29.03.2025 14:28 21,9 °C 11,7 °C 47 % 74 % 1015,6 hPa 0,0 l/m² 18,8 km/h (3 Bft) NW 323 ° 2 min 311 W/m² 7,2 °C 5,9 °C 30,6 km/h (5 Bft)
29.03.2025 14:29 21,9 °C 11,8 °C 47 % 74 % 1015,6 hPa 0,0 l/m² 14,7 km/h (3 Bft) NW 317 ° 1 min 172 W/m² 7,3 °C 7,4 °C 22,5 km/h (4 Bft)
29.03.2025 14:30 21,9 °C 11,9 °C 47 % 74 % 1015,6 hPa 0,0 l/m² 15,9 km/h (3 Bft) N-NW 332 ° 1 min 343 W/m² 7,4 °C 7,1 °C 24,1 km/h (4 Bft)
29.03.2025 14:33 21,9 °C 12,2 °C 47 % 73 % 1015,6 hPa 0,0 l/m² 20,2 km/h (4 Bft) N-NW 342 ° 3 min 346 W/m² 7,5 °C 6,1 °C 29,0 km/h (5 Bft)
29.03.2025 14:34 21,9 °C 12,3 °C 47 % 73 % 1015,6 hPa 0,0 l/m² 22,2 km/h (4 Bft) NW 326 ° 1 min 174 W/m² 7,6 °C 5,6 °C 38,6 km/h (6 Bft)
29.03.2025 14:35 21,9 °C 12,3 °C 47 % 72 % 1015,6 hPa 0,0 l/m² 22,9 km/h (4 Bft) NW 314 ° 1 min 174 W/m² 7,4 °C 5,5 °C 30,6 km/h (5 Bft)
29.03.2025 14:36 21,9 °C 12,2 °C 47 % 72 % 1015,5 hPa 0,0 l/m² 19,9 km/h (4 Bft) NW 317 ° 1 min 148 W/m² 7,3 °C 6,2 °C 29,0 km/h (5 Bft)
29.03.2025 14:38 21,9 °C 12,2 °C 47 % 72 % 1015,6 hPa 0,0 l/m² 16,0 km/h (3 Bft) N-NW 330 ° 2 min 127 W/m² 7,3 °C 7,4 °C 24,1 km/h (4 Bft)
29.03.2025 14:40 21,9 °C 12,0 °C 47 % 72 % 1015,6 hPa 0,0 l/m² 16,1 km/h (3 Bft) N 360 ° 2 min 141 W/m² 7,1 °C 7,1 °C 25,7 km/h (4 Bft)
29.03.2025 14:41 21,9 °C 12,0 °C 47 % 73 % 1015,6 hPa 0,0 l/m² 19,6 km/h (3 Bft) N-NW 332 ° 1 min 125 W/m² 7,3 °C 6,0 °C 25,7 km/h (4 Bft)
29.03.2025 14:42 21,9 °C 11,9 °C 47 % 73 % 1015,6 hPa 0,0 l/m² 18,3 km/h (3 Bft) N-NW 344 ° 1 min 121 W/m² 7,2 °C 6,3 °C 25,7 km/h (4 Bft)
29.03.2025 14:43 21,9 °C 11,9 °C 47 % 73 % 1015,6 hPa 0,0 l/m² 24,4 km/h (4 Bft) N-NW 332 ° 1 min 113 W/m² 7,2 °C 4,6 °C 33,8 km/h (5 Bft)
29.03.2025 14:45 21,9 °C 11,8 °C 47 % 73 % 1015,6 hPa 0,0 l/m² 17,1 km/h (3 Bft) N-NW 338 ° 2 min 118 W/m² 7,1 °C 6,5 °C 24,1 km/h (4 Bft)
29.03.2025 14:47 21,9 °C 11,8 °C 47 % 73 % 1015,6 hPa 0,0 l/m² 14,7 km/h (3 Bft) N-NW 334 ° 2 min 142 W/m² 7,1 °C 7,4 °C 24,1 km/h (4 Bft)
29.03.2025 14:49 21,9 °C 11,8 °C 47 % 73 % 1015,7 hPa 0,0 l/m² 18,1 km/h (3 Bft) N-NW 331 ° 2 min 142 W/m² 7,1 °C 6,2 °C 27,4 km/h (5 Bft)
29.03.2025 14:50 21,9 °C 11,8 °C 47 % 72 % 1015,7 hPa 0,0 l/m² 22,0 km/h (4 Bft) NW 313 ° 1 min 120 W/m² 6,9 °C 5,0 °C 32,2 km/h (5 Bft)
29.03.2025 14:51 21,9 °C 11,8 °C 47 % 72 % 1015,7 hPa 0,0 l/m² 16,9 km/h (3 Bft) NW 322 ° 1 min 107 W/m² 6,9 °C 6,6 °C 20,9 km/h (4 Bft)
29.03.2025 14:52 21,9 °C 11,8 °C 47 % 73 % 1015,6 hPa 0,0 l/m² 17,8 km/h (3 Bft) W-NW 294 ° 1 min 114 W/m² 7,1 °C 6,3 °C 25,7 km/h (4 Bft)
29.03.2025 14:54 21,9 °C 11,8 °C 47 % 73 % 1015,6 hPa 0,0 l/m² 17,2 km/h (3 Bft) N 355 ° 2 min 190 W/m² 7,1 °C 6,5 °C 24,1 km/h (4 Bft)
29.03.2025 14:56 21,9 °C 12,0 °C 47 % 73 % 1015,7 hPa 0,0 l/m² 17,2 km/h (3 Bft) NW 321 ° 2 min 290 W/m² 7,3 °C 6,8 °C 27,4 km/h (5 Bft)
29.03.2025 14:58 21,9 °C 12,2 °C 47 % 72 % 1015,7 hPa 0,0 l/m² 14,8 km/h (3 Bft) N 350 ° 2 min 185 W/m² 7,3 °C 7,9 °C 24,1 km/h (4 Bft)
29.03.2025 15:00 21,9 °C 12,4 °C 47 % 73 % 1015,7 hPa 0,0 l/m² 16,6 km/h (3 Bft) NW 316 ° 2 min 214 W/m² 7,7 °C 7,5 °C 22,5 km/h (4 Bft)
29.03.2025 15:01 21,9 °C 12,4 °C 47 % 71 % 1015,7 hPa 0,0 l/m² 19,0 km/h (3 Bft) NW 325 ° 1 min 288 W/m² 7,3 °C 6,7 °C 25,7 km/h (4 Bft)
29.03.2025 15:02 21,9 °C 12,4 °C 47 % 71 % 1015,7 hPa 0,0 l/m² 17,4 km/h (3 Bft) NW 313 ° 1 min 283 W/m² 7,3 °C 7,2 °C 25,7 km/h (4 Bft)
29.03.2025 15:03 21,9 °C 12,4 °C 47 % 71 % 1015,8 hPa 0,0 l/m² 17,4 km/h (3 Bft) N-NW 327 ° 1 min 213 W/m² 7,3 °C 7,2 °C 25,7 km/h (4 Bft)
29.03.2025 15:05 21,9 °C 12,4 °C 47 % 71 % 1015,7 hPa 0,0 l/m² 18,7 km/h (3 Bft) N-NW 333 ° 2 min 260 W/m² 7,3 °C 6,8 °C 30,6 km/h (5 Bft)
29.03.2025 15:07 21,9 °C 12,4 °C 47 % 71 % 1015,7 hPa 0,0 l/m² 20,7 km/h (4 Bft) NW 315 ° 2 min 178 W/m² 7,3 °C 6,2 °C 29,0 km/h (5 Bft)
29.03.2025 15:09 21,9 °C 12,3 °C 47 % 71 % 1015,7 hPa 0,0 l/m² 22,0 km/h (4 Bft) N-NW 342 ° 2 min 204 W/m² 7,2 °C 5,7 °C 32,2 km/h (5 Bft)
29.03.2025 15:10 21,9 °C 12,2 °C 47 % 71 % 1015,7 hPa 0,0 l/m² 24,6 km/h (4 Bft) NW 309 ° 1 min 269 W/m² 7,1 °C 4,9 °C 32,2 km/h (5 Bft)
29.03.2025 15:11 21,9 °C 12,2 °C 47 % 71 % 1015,7 hPa 0,0 l/m² 29,0 km/h (5 Bft) N-NW 327 ° 1 min 269 W/m² 7,1 °C 3,9 °C 37,0 km/h (5 Bft)
29.03.2025 15:12 21,9 °C 12,2 °C 47 % 71 % 1015,8 hPa 0,0 l/m² 27,8 km/h (5 Bft) N-NW 332 ° 1 min 269 W/m² 7,1 °C 4,2 °C 37,0 km/h (5 Bft)
29.03.2025 15:14 21,9 °C 12,2 °C 47 % 71 % 1015,8 hPa 0,0 l/m² 18,5 km/h (3 Bft) N-NW 332 ° 2 min 181 W/m² 7,1 °C 6,6 °C 32,2 km/h (5 Bft)
29.03.2025 15:16 21,9 °C 12,3 °C 47 % 70 % 1015,7 hPa 0,0 l/m² 18,5 km/h (3 Bft) N-NW 336 ° 2 min 276 W/m² 7,0 °C 6,7 °C 29,0 km/h (5 Bft)
29.03.2025 15:18 21,9 °C 12,4 °C 47 % 71 % 1015,6 hPa 0,0 l/m² 14,9 km/h (3 Bft) NW 324 ° 2 min 262 W/m² 7,3 °C 8,1 °C 22,5 km/h (4 Bft)
29.03.2025 15:20 21,9 °C 12,6 °C 48 % 70 % 1015,7 hPa 0,0 l/m² 11,0 km/h (2 Bft) NW 321 ° 2 min 218 W/m² 7,3 °C 10,0 °C 19,3 km/h (3 Bft)
29.03.2025 15:21 22,0 °C 12,7 °C 48 % 70 % 1015,7 hPa 0,0 l/m² 14,5 km/h (3 Bft) NW 323 ° 1 min 128 W/m² 7,4 °C 8,6 °C 19,3 km/h (3 Bft)
29.03.2025 15:22 22,0 °C 12,8 °C 48 % 70 % 1015,7 hPa 0,0 l/m² 17,8 km/h (3 Bft) N-NW 344 ° 1 min 236 W/m² 7,5 °C 7,6 °C 27,4 km/h (5 Bft)
29.03.2025 15:23 22,0 °C 12,8 °C 48 % 69 % 1015,7 hPa 0,0 l/m² 14,0 km/h (3 Bft) NW 325 ° 1 min 271 W/m² 7,3 °C 8,9 °C 19,3 km/h (3 Bft)
29.03.2025 15:25 22,0 °C 13,1 °C 48 % 69 % 1015,7 hPa 0,0 l/m² 11,3 km/h (2 Bft) N-NW 342 ° 2 min 283 W/m² 7,5 °C 10,4 °C 19,3 km/h (3 Bft)
29.03.2025 15:27 22,1 °C 13,3 °C 48 % 68 % 1015,6 hPa 0,0 l/m² 18,4 km/h (3 Bft) N-NW 348 ° 2 min 171 W/m² 7,5 °C 8,0 °C 35,4 km/h (5 Bft)
29.03.2025 15:29 22,1 °C 13,1 °C 48 % 66 % 1015,7 hPa 0,0 l/m² 24,0 km/h (4 Bft) N-NW 327 ° 2 min 153 W/m² 6,9 °C 6,3 °C 32,2 km/h (5 Bft)
29.03.2025 15:30 22,1 °C 12,9 °C 48 % 66 % 1015,7 hPa 0,0 l/m² 19,2 km/h (3 Bft) W-SW 254 ° 1 min 120 W/m² 6,7 °C 7,3 °C 30,6 km/h (5 Bft)
29.03.2025 15:31 22,1 °C 12,8 °C 48 % 66 % 1015,7 hPa 0,0 l/m² 18,5 km/h (3 Bft) N-NW 329 ° 1 min 176 W/m² 6,6 °C 7,3 °C 24,1 km/h (4 Bft)
29.03.2025 15:32 22,1 °C 12,8 °C 48 % 67 % 1015,7 hPa 0,0 l/m² 17,4 km/h (3 Bft) N-NW 329 ° 1 min 100 W/m² 6,8 °C 7,7 °C 25,7 km/h (4 Bft)
29.03.2025 15:34 22,1 °C 12,6 °C 49 % 67 % 1015,8 hPa 0,0 l/m² 19,4 km/h (3 Bft) NW 309 ° 2 min 93 W/m² 6,6 °C 6,8 °C 29,0 km/h (5 Bft)
29.03.2025 15:36 22,1 °C 12,5 °C 49 % 67 % 1015,8 hPa 0,0 l/m² 17,1 km/h (3 Bft) W-NW 290 ° 2 min 102 W/m² 6,5 °C 7,4 °C 27,4 km/h (5 Bft)
29.03.2025 15:38 22,1 °C 12,6 °C 49 % 68 % 1015,9 hPa 0,0 l/m² 13,7 km/h (3 Bft) N-NW 337 ° 2 min 160 W/m² 6,9 °C 8,8 °C 24,1 km/h (4 Bft)
29.03.2025 15:40 22,1 °C 12,7 °C 49 % 67 % 1015,8 hPa 0,0 l/m² 20,1 km/h (4 Bft) N-NW 331 ° 2 min 232 W/m² 6,7 °C 6,7 °C 32,2 km/h (5 Bft)
29.03.2025 15:41 22,1 °C 12,8 °C 49 % 67 % 1015,8 hPa 0,0 l/m² 21,2 km/h (4 Bft) NW 304 ° 1 min 234 W/m² 6,8 °C 6,6 °C 29,0 km/h (5 Bft)
29.03.2025 15:42 22,1 °C 12,8 °C 49 % 67 % 1015,8 hPa 0,0 l/m² 15,0 km/h (3 Bft) NW 314 ° 1 min 232 W/m² 6,8 °C 8,5 °C 22,5 km/h (4 Bft)
29.03.2025 15:43 22,1 °C 12,9 °C 49 % 66 % 1015,8 hPa 0,0 l/m² 18,2 km/h (3 Bft) W-NW 300 ° 1 min 230 W/m² 6,7 °C 7,6 °C 24,1 km/h (4 Bft)
29.03.2025 15:45 22,1 °C 13,2 °C 49 % 66 % 1015,8 hPa 0,0 l/m² 16,2 km/h (3 Bft) NW 309 ° 2 min 225 W/m² 7,0 °C 8,6 °C 25,7 km/h (4 Bft)
29.03.2025 15:46 22,1 °C 13,2 °C 49 % 66 % 1015,8 hPa 0,0 l/m² 17,9 km/h (3 Bft) N-NW 340 ° 1 min 232 W/m² 7,0 °C 8,0 °C 25,7 km/h (4 Bft)
29.03.2025 15:48 22,2 °C 13,2 °C 49 % 65 % 1015,8 hPa 0,0 l/m² 24,0 km/h (4 Bft) NW 325 ° 2 min 236 W/m² 6,8 °C 6,4 °C 33,8 km/h (5 Bft)
29.03.2025 15:50 22,2 °C 13,3 °C 49 % 65 % 1015,8 hPa 0,0 l/m² 19,1 km/h (3 Bft) N-NW 346 ° 2 min 239 W/m² 6,9 °C 7,8 °C 30,6 km/h (5 Bft)
29.03.2025 15:51 22,1 °C 13,3 °C 49 % 64 % 1015,8 hPa 0,0 l/m² 21,4 km/h (4 Bft) NW 311 ° 1 min 234 W/m² 6,6 °C 7,2 °C 32,2 km/h (5 Bft)
29.03.2025 15:52 22,1 °C 13,3 °C 49 % 64 % 1015,8 hPa 0,0 l/m² 13,4 km/h (3 Bft) NW 309 ° 1 min 229 W/m² 6,6 °C 9,7 °C 19,3 km/h (3 Bft)
29.03.2025 15:53 22,1 °C 13,4 °C 49 % 64 % 1015,9 hPa 0,0 l/m² 13,3 km/h (3 Bft) NW 317 ° 1 min 227 W/m² 6,7 °C 9,9 °C 22,5 km/h (4 Bft)
29.03.2025 15:55 22,1 °C 13,7 °C 49 % 64 % 1015,8 hPa 0,0 l/m² 14,0 km/h (3 Bft) NW 308 ° 2 min 232 W/m² 7,0 °C 10,0 °C 22,5 km/h (4 Bft)
29.03.2025 15:57 22,2 °C 13,7 °C 49 % 64 % 1015,9 hPa 0,0 l/m² 17,2 km/h (3 Bft) N 5 ° 2 min 216 W/m² 7,0 °C 8,9 °C 30,6 km/h (5 Bft)
29.03.2025 15:59 22,2 °C 13,6 °C 49 % 63 % 1015,8 hPa 0,0 l/m² 19,6 km/h (3 Bft) NW 316 ° 2 min 216 W/m² 6,7 °C 8,0 °C 30,6 km/h (5 Bft)
29.03.2025 16:00 22,2 °C 13,6 °C 49 % 63 % 1015,8 hPa 0,0 l/m² 16,8 km/h (3 Bft) N-NW 335 ° 1 min 211 W/m² 6,7 °C 8,9 °C 24,1 km/h (4 Bft)
29.03.2025 16:01 22,2 °C 13,6 °C 49 % 64 % 1015,8 hPa 0,0 l/m² 16,5 km/h (3 Bft) NW 311 ° 1 min 206 W/m² 6,9 °C 9,0 °C 24,1 km/h (4 Bft)
29.03.2025 16:02 22,2 °C 13,6 °C 49 % 65 % 1015,8 hPa 0,0 l/m² 12,9 km/h (3 Bft) NW 318 ° 1 min 202 W/m² 7,1 °C 10,3 °C 19,3 km/h (3 Bft)
29.03.2025 16:04 22,2 °C 13,4 °C 49 % 63 % 1015,9 hPa 0,0 l/m² 19,3 km/h (3 Bft) N-NW 344 ° 2 min 197 W/m² 6,5 °C 7,9 °C 29,0 km/h (5 Bft)
29.03.2025 16:06 22,2 °C 13,3 °C 50 % 62 % 1015,8 hPa 0,0 l/m² 17,9 km/h (3 Bft) NW 313 ° 2 min 192 W/m² 6,2 °C 8,2 °C 35,4 km/h (5 Bft)
29.03.2025 16:08 22,2 °C 13,3 °C 50 % 64 % 1015,9 hPa 0,0 l/m² 13,2 km/h (3 Bft) NW 311 ° 2 min 186 W/m² 6,6 °C 9,8 °C 22,5 km/h (4 Bft)
29.03.2025 16:10 22,2 °C 13,3 °C 50 % 64 % 1015,9 hPa 0,0 l/m² 19,3 km/h (3 Bft) NW 313 ° 2 min 185 W/m² 6,6 °C 7,7 °C 27,4 km/h (5 Bft)
29.03.2025 16:13 22,2 °C 13,2 °C 50 % 64 % 1015,9 hPa 0,0 l/m² 17,9 km/h (3 Bft) N-NW 344 ° 3 min 181 W/m² 6,5 °C 8,0 °C 27,4 km/h (5 Bft)
29.03.2025 16:15 22,2 °C 13,3 °C 50 % 64 % 1015,8 hPa 0,0 l/m² 18,8 km/h (3 Bft) NW 306 ° 2 min 179 W/m² 6,6 °C 7,9 °C 32,2 km/h (5 Bft)
29.03.2025 16:17 22,2 °C 13,3 °C 50 % 64 % 1015,9 hPa 0,0 l/m² 18,7 km/h (3 Bft) NW 317 ° 2 min 178 W/m² 6,6 °C 7,9 °C 29,0 km/h (5 Bft)
29.03.2025 16:19 22,2 °C 13,2 °C 50 % 64 % 1015,9 hPa 0,0 l/m² 14,3 km/h (3 Bft) NW 319 ° 2 min 176 W/m² 6,5 °C 9,3 °C 25,7 km/h (4 Bft)
29.03.2025 16:20 22,2 °C 13,3 °C 49 % 64 % 1015,9 hPa 0,0 l/m² 14,2 km/h (3 Bft) N-NW 344 ° 1 min 176 W/m² 6,6 °C 9,4 °C 24,1 km/h (4 Bft)
29.03.2025 16:21 22,2 °C 13,3 °C 49 % 64 % 1015,9 hPa 0,0 l/m² 18,3 km/h (3 Bft) N 349 ° 1 min 172 W/m² 6,6 °C 8,0 °C 27,4 km/h (5 Bft)
29.03.2025 16:22 22,2 °C 13,3 °C 50 % 64 % 1015,9 hPa 0,0 l/m² 18,5 km/h (3 Bft) NW 315 ° 1 min 174 W/m² 6,6 °C 8,0 °C 25,7 km/h (4 Bft)
29.03.2025 16:24 22,2 °C 13,3 °C 49 % 65 % 1015,9 hPa 0,0 l/m² 14,5 km/h (3 Bft) NW 310 ° 2 min 172 W/m² 6,9 °C 9,3 °C 27,4 km/h (5 Bft)
29.03.2025 16:26 22,2 °C 13,2 °C 49 % 64 % 1015,9 hPa 0,0 l/m² 19,7 km/h (3 Bft) W-NW 302 ° 2 min 171 W/m² 6,5 °C 7,5 °C 32,2 km/h (5 Bft)
29.03.2025 16:28 22,2 °C 13,3 °C 49 % 64 % 1015,9 hPa 0,0 l/m² 14,9 km/h (3 Bft) NW 313 ° 2 min 165 W/m² 6,6 °C 9,2 °C 25,7 km/h (4 Bft)
29.03.2025 16:30 22,2 °C 13,3 °C 49 % 63 % 1015,9 hPa 0,0 l/m² 16,2 km/h (3 Bft) NW 304 ° 2 min 160 W/m² 6,4 °C 8,7 °C 25,7 km/h (4 Bft)
29.03.2025 16:31 22,2 °C 13,3 °C 49 % 63 % 1015,9 hPa 0,0 l/m² 18,4 km/h (3 Bft) NW 317 ° 1 min 156 W/m² 6,4 °C 8,0 °C 25,7 km/h (4 Bft)
29.03.2025 16:32 22,2 °C 13,2 °C 49 % 64 % 1015,9 hPa 0,0 l/m² 12,6 km/h (3 Bft) N-NW 336 ° 1 min 155 W/m² 6,5 °C 9,9 °C 19,3 km/h (3 Bft)
29.03.2025 16:33 22,2 °C 13,3 °C 49 % 65 % 1015,9 hPa 0,0 l/m² 16,7 km/h (3 Bft) N-NW 329 ° 1 min 155 W/m² 6,9 °C 8,5 °C 27,4 km/h (5 Bft)
29.03.2025 16:35 22,2 °C 13,3 °C 49 % 64 % 1016,0 hPa 0,0 l/m² 15,2 km/h (3 Bft) NW 321 ° 2 min 153 W/m² 6,6 °C 9,1 °C 25,7 km/h (4 Bft)
29.03.2025 16:37 22,2 °C 13,3 °C 48 % 63 % 1016,0 hPa 0,0 l/m² 15,3 km/h (3 Bft) NW 316 ° 2 min 151 W/m² 6,4 °C 9,0 °C 24,1 km/h (4 Bft)
29.03.2025 16:39 22,2 °C 13,2 °C 48 % 62 % 1015,9 hPa 0,0 l/m² 17,4 km/h (3 Bft) W 278 ° 2 min 153 W/m² 6,1 °C 8,2 °C 27,4 km/h (5 Bft)
29.03.2025 16:40 22,2 °C 13,2 °C 48 % 63 % 1016,0 hPa 0,0 l/m² 18,7 km/h (3 Bft) N-NO 21 ° 1 min 151 W/m² 6,3 °C 7,8 °C 30,6 km/h (5 Bft)
29.03.2025 16:41 22,2 °C 13,1 °C 48 % 63 % 1016,0 hPa 0,0 l/m² 15,6 km/h (3 Bft) N-NW 334 ° 1 min 151 W/m² 6,2 °C 8,7 °C 27,4 km/h (5 Bft)
29.03.2025 16:42 22,2 °C 13,1 °C 48 % 63 % 1016,0 hPa 0,0 l/m² 13,7 km/h (3 Bft) NW 321 ° 1 min 153 W/m² 6,2 °C 9,4 °C 20,9 km/h (4 Bft)
29.03.2025 16:44 22,2 °C 13,1 °C 48 % 64 % 1016,0 hPa 0,0 l/m² 11,3 km/h (2 Bft) W 275 ° 2 min 151 W/m² 6,4 °C 10,4 °C 20,9 km/h (4 Bft)
29.03.2025 16:46 22,2 °C 13,1 °C 48 % 62 % 1016,0 hPa 0,0 l/m² 21,0 km/h (4 Bft) W 266 ° 2 min 146 W/m² 6,0 °C 7,0 °C 33,8 km/h (5 Bft)
29.03.2025 16:48 22,2 °C 13,1 °C 48 % 62 % 1016,1 hPa 0,0 l/m² 18,7 km/h (3 Bft) NW 313 ° 2 min 141 W/m² 6,0 °C 7,7 °C 30,6 km/h (5 Bft)
29.03.2025 16:50 22,2 °C 13,1 °C 48 % 62 % 1016,0 hPa 0,0 l/m² 20,7 km/h (4 Bft) W-NW 298 ° 2 min 135 W/m² 6,0 °C 7,1 °C 32,2 km/h (5 Bft)
29.03.2025 16:51 22,2 °C 13,1 °C 48 % 63 % 1016,0 hPa 0,0 l/m² 20,8 km/h (4 Bft) NW 307 ° 1 min 134 W/m² 6,2 °C 7,1 °C 32,2 km/h (5 Bft)
29.03.2025 16:52 22,2 °C 13,0 °C 48 % 62 % 1016,0 hPa 0,0 l/m² 20,8 km/h (4 Bft) NW 312 ° 1 min 130 W/m² 5,9 °C 6,9 °C 29,0 km/h (5 Bft)
29.03.2025 16:53 22,2 °C 13,0 °C 48 % 62 % 1016,1 hPa 0,0 l/m² 18,2 km/h (3 Bft) N-NW 328 ° 1 min 130 W/m² 5,9 °C 7,7 °C 25,7 km/h (4 Bft)
29.03.2025 16:55 22,1 °C 13,0 °C 48 % 63 % 1016,1 hPa 0,0 l/m² 15,2 km/h (3 Bft) NW 325 ° 2 min 123 W/m² 6,1 °C 8,7 °C 22,5 km/h (4 Bft)
29.03.2025 16:57 22,1 °C 13,0 °C 48 % 63 % 1016,1 hPa 0,0 l/m² 21,5 km/h (4 Bft) W-NW 302 ° 2 min 118 W/m² 6,1 °C 6,8 °C 30,6 km/h (5 Bft)
29.03.2025 16:59 22,1 °C 12,9 °C 48 % 62 % 1016,1 hPa 0,0 l/m² 18,6 km/h (3 Bft) NW 326 ° 2 min 114 W/m² 5,8 °C 7,4 °C 25,7 km/h (4 Bft)
29.03.2025 17:00 22,1 °C 12,9 °C 48 % 62 % 1016,1 hPa 0,0 l/m² 20,7 km/h (4 Bft) NW 305 ° 1 min 113 W/m² 5,8 °C 6,8 °C 29,0 km/h (5 Bft)
29.03.2025 17:01 22,1 °C 12,9 °C 48 % 62 % 1016,1 hPa 0,0 l/m² 16,5 km/h (3 Bft) NW 308 ° 1 min 111 W/m² 5,8 °C 8,1 °C 24,1 km/h (4 Bft)
29.03.2025 17:02 22,1 °C 12,9 °C 48 % 62 % 1016,1 hPa 0,0 l/m² 14,9 km/h (3 Bft) NW 325 ° 1 min 109 W/m² 5,8 °C 8,7 °C 24,1 km/h (4 Bft)
29.03.2025 17:03 22,1 °C 12,9 °C 48 % 63 % 1016,1 hPa 0,0 l/m² 19,7 km/h (3 Bft) NW 320 ° 1 min 107 W/m² 6,0 °C 7,1 °C 30,6 km/h (5 Bft)
29.03.2025 17:05 22,1 °C 12,9 °C 48 % 62 % 1016,0 hPa 0,0 l/m² 19,6 km/h (3 Bft) NW 318 ° 2 min 98 W/m² 5,8 °C 7,1 °C 29,0 km/h (5 Bft)
29.03.2025 17:07 22,1 °C 12,9 °C 48 % 62 % 1016,1 hPa 0,0 l/m² 17,6 km/h (3 Bft) N 355 ° 2 min 98 W/m² 5,8 °C 7,8 °C 27,4 km/h (5 Bft)
29.03.2025 17:09 22,1 °C 12,9 °C 48 % 63 % 1016,1 hPa 0,0 l/m² 16,3 km/h (3 Bft) NW 317 ° 2 min 91 W/m² 6,0 °C 8,2 °C 27,4 km/h (5 Bft)
29.03.2025 17:10 22,1 °C 12,9 °C 48 % 63 % 1016,1 hPa 0,0 l/m² 17,5 km/h (3 Bft) N-NW 343 ° 1 min 88 W/m² 6,0 °C 7,8 °C 25,7 km/h (4 Bft)
29.03.2025 17:11 22,1 °C 12,9 °C 48 % 62 % 1016,1 hPa 0,0 l/m² 21,5 km/h (4 Bft) N 350 ° 1 min 88 W/m² 5,8 °C 6,6 °C 30,6 km/h (5 Bft)
29.03.2025 17:12 22,1 °C 12,9 °C 48 % 62 % 1016,1 hPa 0,0 l/m² 20,2 km/h (4 Bft) NW 318 ° 1 min 81 W/m² 5,8 °C 7,0 °C 30,6 km/h (5 Bft)
29.03.2025 17:14 22,1 °C 12,8 °C 48 % 62 % 1016,1 hPa 0,0 l/m² 20,2 km/h (4 Bft) N-NW 342 ° 2 min 84 W/m² 5,7 °C 6,8 °C 29,0 km/h (5 Bft)
29.03.2025 17:16 22,1 °C 12,8 °C 48 % 62 % 1016,2 hPa 0,0 l/m² 14,4 km/h (3 Bft) N-NW 333 ° 2 min 81 W/m² 5,7 °C 8,8 °C 22,5 km/h (4 Bft)
29.03.2025 17:18 22,1 °C 12,8 °C 48 % 62 % 1016,1 hPa 0,0 l/m² 19,5 km/h (3 Bft) NW 312 ° 2 min 79 W/m² 5,7 °C 7,0 °C 32,2 km/h (5 Bft)
29.03.2025 17:19 22,1 °C 12,8 °C 48 % 62 % 1016,2 hPa 0,0 l/m² 21,8 km/h (4 Bft) N-NW 344 ° 1 min 60 W/m² 5,7 °C 6,4 °C 27,4 km/h (5 Bft)
29.03.2025 17:20 22,1 °C 12,7 °C 48 % 62 % 1016,2 hPa 0,0 l/m² 16,4 km/h (3 Bft) NW 323 ° 1 min 76 W/m² 5,6 °C 7,9 °C 22,5 km/h (4 Bft)
29.03.2025 17:23 22,1 °C 12,7 °C 48 % 61 % 1016,1 hPa 0,0 l/m² 19,3 km/h (3 Bft) NW 311 ° 3 min 67 W/m² 5,4 °C 7,0 °C 27,4 km/h (5 Bft)
29.03.2025 17:25 22,0 °C 12,7 °C 48 % 61 % 1016,2 hPa 0,0 l/m² 19,7 km/h (3 Bft) N-NW 341 ° 2 min 56 W/m² 5,4 °C 6,9 °C 27,4 km/h (5 Bft)
29.03.2025 17:26 22,1 °C 12,7 °C 48 % 61 % 1016,2 hPa 0,0 l/m² 17,0 km/h (3 Bft) N-NW 348 ° 1 min 53 W/m² 5,4 °C 7,7 °C 25,7 km/h (4 Bft)
29.03.2025 17:27 22,1 °C 12,7 °C 48 % 61 % 1016,2 hPa 0,0 l/m² 19,9 km/h (4 Bft) N-NW 342 ° 0 min 51 W/m² 5,4 °C 6,8 °C 27,4 km/h (5 Bft)
29.03.2025 17:29 22,1 °C 12,7 °C 48 % 61 % 1016,2 hPa 0,0 l/m² 16,9 km/h (3 Bft) NW 304 ° 2 min 56 W/m² 5,4 °C 7,7 °C 25,7 km/h (4 Bft)
29.03.2025 17:30 22,1 °C 12,7 °C 48 % 62 % 1016,2 hPa 0,0 l/m² 14,1 km/h (3 Bft) N-NW 336 ° 0 min 44 W/m² 5,6 °C 8,7 °C 19,3 km/h (3 Bft)
29.03.2025 17:31 22,1 °C 12,6 °C 48 % 62 % 1016,2 hPa 0,0 l/m² 13,4 km/h (3 Bft) N-NW 333 ° 0 min 46 W/m² 5,5 °C 8,9 °C 19,3 km/h (3 Bft)
29.03.2025 17:32 22,1 °C 12,6 °C 48 % 62 % 1016,2 hPa 0,0 l/m² 15,6 km/h (3 Bft) N-NW 327 ° 0 min 47 W/m² 5,5 °C 8,1 °C 17,7 km/h (3 Bft)
29.03.2025 17:34 22,1 °C 12,6 °C 48 % 62 % 1016,2 hPa 0,0 l/m² 10,8 km/h (2 Bft) NW 313 ° 0 min 46 W/m² 5,5 °C 10,1 °C 17,7 km/h (3 Bft)
29.03.2025 17:36 22,1 °C 12,6 °C 48 % 62 % 1016,2 hPa 0,0 l/m² 13,4 km/h (3 Bft) N-NW 327 ° 0 min 40 W/m² 5,5 °C 8,9 °C 20,9 km/h (4 Bft)
29.03.2025 17:38 22,1 °C 12,6 °C 49 % 62 % 1016,3 hPa 0,0 l/m² 13,3 km/h (3 Bft) N-NW 348 ° 0 min 37 W/m² 5,5 °C 9,0 °C 20,9 km/h (4 Bft)
29.03.2025 17:40 22,1 °C 12,5 °C 49 % 62 % 1016,2 hPa 0,0 l/m² 10,5 km/h (2 Bft) N-NW 335 ° 0 min 37 W/m² 5,4 °C 10,1 °C 16,1 km/h (3 Bft)
29.03.2025 17:43 22,1 °C 12,4 °C 49 % 62 % 1016,3 hPa 0,0 l/m² 13,6 km/h (3 Bft) N-NW 332 ° 0 min 33 W/m² 5,3 °C 8,6 °C 22,5 km/h (4 Bft)
29.03.2025 17:45 22,1 °C 12,4 °C 48 % 62 % 1016,3 hPa 0,0 l/m² 14,4 km/h (3 Bft) N-NW 340 ° 0 min 32 W/m² 5,3 °C 8,3 °C 25,7 km/h (4 Bft)
29.03.2025 17:47 22,1 °C 12,4 °C 48 % 62 % 1016,3 hPa 0,0 l/m² 12,5 km/h (2 Bft) N-NW 332 ° 0 min 33 W/m² 5,3 °C 9,1 °C 20,9 km/h (4 Bft)
29.03.2025 17:49 22,1 °C 12,3 °C 47 % 62 % 1016,3 hPa 0,0 l/m² 10,5 km/h (2 Bft) NW 325 ° 0 min 26 W/m² 5,2 °C 9,9 °C 16,1 km/h (3 Bft)
29.03.2025 17:50 22,1 °C 12,3 °C 47 % 62 % 1016,3 hPa 0,0 l/m² 12,6 km/h (3 Bft) N-NW 327 ° 0 min 28 W/m² 5,2 °C 8,9 °C 20,9 km/h (4 Bft)
29.03.2025 17:51 22,1 °C 12,3 °C 47 % 61 % 1016,3 hPa 0,0 l/m² 10,5 km/h (2 Bft) N 5 ° 0 min 32 W/m² 5,0 °C 9,9 °C 16,1 km/h (3 Bft)
29.03.2025 17:52 22,1 °C 12,3 °C 47 % 61 % 1016,3 hPa 0,0 l/m² 11,7 km/h (2 Bft) NW 319 ° 0 min 26 W/m² 5,0 °C 9,3 °C 17,7 km/h (3 Bft)
29.03.2025 17:54 22,1 °C 12,2 °C 47 % 61 % 1016,3 hPa 0,0 l/m² 11,0 km/h (2 Bft) NW 309 ° 0 min 26 W/m² 4,9 °C 9,5 °C 17,7 km/h (3 Bft)
29.03.2025 17:56 22,1 °C 12,2 °C 47 % 61 % 1016,3 hPa 0,0 l/m² 12,4 km/h (2 Bft) NW 326 ° 0 min 25 W/m² 4,9 °C 8,9 °C 20,9 km/h (4 Bft)
29.03.2025 17:58 22,1 °C 12,2 °C 47 % 61 % 1016,4 hPa 0,0 l/m² 10,9 km/h (2 Bft) NW 307 ° 0 min 23 W/m² 4,9 °C 9,6 °C 16,1 km/h (3 Bft)
29.03.2025 18:00 22,1 °C 12,2 °C 47 % 61 % 1016,4 hPa 0,0 l/m² 10,8 km/h (2 Bft) N-NW 329 ° 0 min 21 W/m² 4,9 °C 9,6 °C 17,7 km/h (3 Bft)
29.03.2025 18:01 22,1 °C 12,1 °C 47 % 61 % 1016,4 hPa 0,0 l/m² 8,1 km/h (2 Bft) N-NW 328 ° 0 min 21 W/m² 4,8 °C 11,0 °C 14,5 km/h (3 Bft)
29.03.2025 18:02 22,1 °C 12,1 °C 47 % 61 % 1016,4 hPa 0,0 l/m² 14,1 km/h (3 Bft) NW 321 ° 0 min 21 W/m² 4,8 °C 8,0 °C 20,9 km/h (4 Bft)
29.03.2025 18:03 22,1 °C 12,1 °C 47 % 61 % 1016,4 hPa 0,0 l/m² 14,2 km/h (3 Bft) N-NW 333 ° 0 min 21 W/m² 4,8 °C 8,0 °C 20,9 km/h (4 Bft)
29.03.2025 18:05 22,1 °C 11,9 °C 47 % 61 % 1016,4 hPa 0,0 l/m² 11,2 km/h (2 Bft) W-NW 298 ° 0 min 19 W/m² 4,6 °C 9,1 °C 16,1 km/h (3 Bft)
29.03.2025 18:07 22,1 °C 11,9 °C 47 % 61 % 1016,4 hPa 0,0 l/m² 10,8 km/h (2 Bft) NW 309 ° 0 min 18 W/m² 4,6 °C 9,3 °C 17,7 km/h (3 Bft)
29.03.2025 18:09 22,1 °C 11,8 °C 47 % 62 % 1016,4 hPa 0,0 l/m² 9,5 km/h (2 Bft) N-NW 327 ° 0 min 16 W/m² 4,8 °C 9,9 °C 14,5 km/h (3 Bft)
29.03.2025 18:10 22,1 °C 11,8 °C 47 % 62 % 1016,5 hPa 0,0 l/m² 6,7 km/h (2 Bft) NW 323 ° 0 min 16 W/m² 4,8 °C 11,6 °C 9,7 km/h (2 Bft)
29.03.2025 18:11 22,1 °C 11,8 °C 47 % 62 % 1016,5 hPa 0,0 l/m² 6,0 km/h (2 Bft) NW 315 ° 0 min 16 W/m² 4,8 °C 11,8 °C 8,0 km/h (2 Bft)
29.03.2025 18:13 22,1 °C 11,7 °C 47 % 62 % 1016,4 hPa 0,0 l/m² 7,6 km/h (2 Bft) N 355 ° 0 min 14 W/m² 4,7 °C 10,9 °C 12,9 km/h (3 Bft)
29.03.2025 18:14 22,1 °C 11,6 °C 47 % 62 % 1016,4 hPa 0,0 l/m² 6,5 km/h (2 Bft) N-NW 346 ° 0 min 14 W/m² 4,6 °C 11,6 °C 12,9 km/h (3 Bft)
29.03.2025 18:15 22,1 °C 11,6 °C 47 % 62 % 1016,4 hPa 0,0 l/m² 8,4 km/h (2 Bft) N-NW 327 ° 0 min 14 W/m² 4,6 °C 10,3 °C 12,9 km/h (3 Bft)
29.03.2025 18:16 22,1 °C 11,6 °C 47 % 63 % 1016,5 hPa 0,0 l/m² 10,2 km/h (2 Bft) N 360 ° 0 min 12 W/m² 4,8 °C 9,3 °C 12,9 km/h (3 Bft)
29.03.2025 18:17 22,1 °C 11,5 °C 47 % 62 % 1016,5 hPa 0,0 l/m² 9,5 km/h (2 Bft) N-NW 343 ° 0 min 12 W/m² 4,5 °C 9,5 °C 12,9 km/h (3 Bft)
29.03.2025 18:18 22,1 °C 11,5 °C 47 % 63 % 1016,5 hPa 0,0 l/m² 7,5 km/h (2 Bft) N-NW 338 ° 0 min 12 W/m² 4,7 °C 10,8 °C 12,9 km/h (3 Bft)
29.03.2025 18:19 22,1 °C 11,5 °C 47 % 63 % 1016,5 hPa 0,0 l/m² 10,0 km/h (2 Bft) NW 321 ° 0 min 11 W/m² 4,7 °C 9,3 °C 16,1 km/h (3 Bft)
29.03.2025 18:21 22,1 °C 11,4 °C 47 % 63 % 1016,5 hPa 0,0 l/m² 7,5 km/h (2 Bft) N-NW 335 ° 0 min 11 W/m² 4,6 °C 10,7 °C 14,5 km/h (3 Bft)
29.03.2025 18:23 22,1 °C 11,3 °C 47 % 63 % 1016,4 hPa 0,0 l/m² 5,5 km/h (2 Bft) N 350 ° 0 min 9 W/m² 4,5 °C 11,3 °C 9,7 km/h (2 Bft)
29.03.2025 18:24 22,1 °C 11,3 °C 46 % 63 % 1016,5 hPa 0,0 l/m² 5,8 km/h (2 Bft) NW 320 ° 0 min 9 W/m² 4,5 °C 11,3 °C 12,9 km/h (3 Bft)
29.03.2025 18:25 22,1 °C 11,2 °C 46 % 63 % 1016,6 hPa 0,0 l/m² 4,4 km/h (1 Bft) N-NW 342 ° 0 min 9 W/m² 4,4 °C 11,2 °C 6,4 km/h (2 Bft)
29.03.2025 18:26 22,1 °C 11,2 °C 46 % 63 % 1016,5 hPa 0,0 l/m² 5,9 km/h (2 Bft) N-NW 348 ° 0 min 9 W/m² 4,4 °C 11,2 °C 9,7 km/h (2 Bft)
29.03.2025 18:27 22,1 °C 11,1 °C 46 % 64 % 1016,6 hPa 0,0 l/m² 7,4 km/h (2 Bft) N-NW 327 ° 0 min 9 W/m² 4,6 °C 10,4 °C 9,7 km/h (2 Bft)
29.03.2025 18:28 22,1 °C 11,1 °C 46 % 64 % 1016,5 hPa 0,0 l/m² 6,6 km/h (2 Bft) N-NW 334 ° 0 min 9 W/m² 4,6 °C 11,0 °C 9,7 km/h (2 Bft)
29.03.2025 18:29 22,1 °C 11,1 °C 46 % 64 % 1016,6 hPa 0,0 l/m² 7,5 km/h (2 Bft) NW 322 ° 0 min 7 W/m² 4,6 °C 10,3 °C 9,7 km/h (2 Bft)
29.03.2025 18:31 22,1 °C 11,0 °C 47 % 64 % 1016,6 hPa 0,0 l/m² 6,3 km/h (2 Bft) NW 315 ° 0 min 7 W/m² 4,5 °C 11,0 °C 12,9 km/h (3 Bft)
29.03.2025 18:33 22,1 °C 10,9 °C 47 % 64 % 1016,6 hPa 0,0 l/m² 4,4 km/h (1 Bft) NW 315 ° 0 min 7 W/m² 4,4 °C 10,9 °C 6,4 km/h (2 Bft)
29.03.2025 18:34 22,1 °C 10,8 °C 47 % 64 % 1016,6 hPa 0,0 l/m² 4,5 km/h (1 Bft) NW 304 ° 0 min 7 W/m² 4,3 °C 10,8 °C 6,4 km/h (2 Bft)
29.03.2025 18:35 22,1 °C 10,8 °C 47 % 65 % 1016,7 hPa 0,0 l/m² 3,2 km/h (1 Bft) N-NW 342 ° 0 min 5 W/m² 4,5 °C 10,8 °C 4,8 km/h (1 Bft)
29.03.2025 18:36 22,1 °C 10,7 °C 47 % 65 % 1016,7 hPa 0,0 l/m² 1,6 km/h (1 Bft) NW 319 ° 0 min 5 W/m² 4,4 °C 10,7 °C 4,8 km/h (1 Bft)
29.03.2025 18:37 22,1 °C 10,7 °C 47 % 65 % 1016,6 hPa 0,0 l/m² 3,0 km/h (1 Bft) N-NW 333 ° 0 min 5 W/m² 4,4 °C 10,7 °C 4,8 km/h (1 Bft)
29.03.2025 18:38 22,1 °C 10,6 °C 47 % 65 % 1016,6 hPa 0,0 l/m² 3,2 km/h (1 Bft) N-NW 339 ° 0 min 5 W/m² 4,3 °C 10,6 °C 4,8 km/h (1 Bft)
29.03.2025 18:39 22,1 °C 10,4 °C 47 % 66 % 1016,7 hPa 0,0 l/m² 2,8 km/h (1 Bft) N-NW 332 ° 0 min 5 W/m² 4,3 °C 10,4 °C 4,8 km/h (1 Bft)
29.03.2025 18:41 22,1 °C 10,3 °C 48 % 66 % 1016,7 hPa 0,0 l/m² 4,1 km/h (1 Bft) N-NW 342 ° 0 min 0 W/m² 4,2 °C 10,3 °C 11,3 km/h (2 Bft)
29.03.2025 18:43 22,1 °C 10,3 °C 48 % 66 % 1016,7 hPa 0,0 l/m² 4,6 km/h (1 Bft) N-NW 327 ° 0 min 0 W/m² 4,2 °C 10,3 °C 8,0 km/h (2 Bft)
29.03.2025 18:45 22,1 °C 10,2 °C 48 % 67 % 1016,8 hPa 0,0 l/m² 4,5 km/h (1 Bft) NW 318 ° 0 min 0 W/m² 4,4 °C 10,2 °C 8,0 km/h (2 Bft)
29.03.2025 18:46 22,1 °C 10,2 °C 48 % 67 % 1016,8 hPa 0,0 l/m² 5,2 km/h (1 Bft) N-NW 333 ° 0 min 0 W/m² 4,4 °C 10,2 °C 8,0 km/h (2 Bft)
29.03.2025 18:47 22,1 °C 10,1 °C 48 % 67 % 1016,8 hPa 0,0 l/m² 4,8 km/h (1 Bft) N 5 ° 0 min 0 W/m² 4,3 °C 10,1 °C 8,0 km/h (2 Bft)
29.03.2025 18:48 22,1 °C 10,0 °C 48 % 67 % 1016,8 hPa 0,0 l/m² 2,9 km/h (1 Bft) N-NW 328 ° 0 min 0 W/m² 4,2 °C 10,0 °C 4,8 km/h (1 Bft)
29.03.2025 18:49 22,1 °C 10,0 °C 48 % 67 % 1016,8 hPa 0,0 l/m² 2,6 km/h (1 Bft) NW 321 ° 0 min 0 W/m² 4,2 °C 10,0 °C 4,8 km/h (1 Bft)
29.03.2025 18:51 22,1 °C 9,8 °C 48 % 68 % 1016,8 hPa 0,0 l/m² 1,3 km/h (1 Bft) N 355 ° 0 min 0 W/m² 4,2 °C 9,8 °C 4,8 km/h (1 Bft)
29.03.2025 18:53 22,1 °C 9,7 °C 48 % 68 % 1016,8 hPa 0,0 l/m² 1,8 km/h (1 Bft) N-NW 344 ° 0 min 0 W/m² 4,1 °C 9,7 °C 6,4 km/h (2 Bft)
29.03.2025 18:54 22,1 °C 9,7 °C 48 % 68 % 1016,8 hPa 0,0 l/m² 2,0 km/h (1 Bft) N-NW 344 ° 0 min 0 W/m² 4,1 °C 9,7 °C 4,8 km/h (1 Bft)
29.03.2025 18:55 22,1 °C 9,6 °C 48 % 68 % 1016,9 hPa 0,0 l/m² 2,9 km/h (1 Bft) N-NW 338 ° 0 min 0 W/m² 4,0 °C 9,6 °C 4,8 km/h (1 Bft)
29.03.2025 18:56 22,1 °C 9,6 °C 48 % 68 % 1016,9 hPa 0,0 l/m² 2,7 km/h (1 Bft) N-NW 340 ° 0 min 0 W/m² 4,0 °C 9,6 °C 4,8 km/h (1 Bft)
29.03.2025 18:57 22,1 °C 9,6 °C 48 % 69 % 1016,9 hPa 0,0 l/m² 3,6 km/h (1 Bft) N-NW 341 ° 0 min 0 W/m² 4,2 °C 9,6 °C 4,8 km/h (1 Bft)
29.03.2025 18:58 22,1 °C 9,5 °C 48 % 69 % 1016,9 hPa 0,0 l/m² 3,4 km/h (1 Bft) N 351 ° 0 min 0 W/m² 4,1 °C 9,5 °C 4,8 km/h (1 Bft)
29.03.2025 18:59 22,1 °C 9,4 °C 48 % 69 % 1016,9 hPa 0,0 l/m² 2,5 km/h (1 Bft) N 351 ° 0 min 0 W/m² 4,0 °C 9,4 °C 3,2 km/h (1 Bft)
29.03.2025 19:01 22,2 °C 9,3 °C 48 % 69 % 1016,9 hPa 0,0 l/m² 0,5 km/h (0 Bft) N 350 ° 0 min 0 W/m² 3,9 °C 9,3 °C 1,6 km/h (1 Bft)
29.03.2025 19:03 22,1 °C 9,2 °C 48 % 69 % 1016,9 hPa 0,0 l/m² 0,2 km/h (0 Bft) N 350 ° 0 min 0 W/m² 3,8 °C 9,2 °C 3,2 km/h (1 Bft)
29.03.2025 19:04 22,1 °C 9,0 °C 48 % 69 % 1016,9 hPa 0,0 l/m² 0,0 km/h (0 Bft) N 350 ° 0 min 0 W/m² 3,6 °C 9,0 °C 0,0 km/h (0 Bft)
29.03.2025 19:05 22,1 °C 8,9 °C 48 % 70 % 1016,9 hPa 0,0 l/m² 0,0 km/h (0 Bft) N 350 ° 0 min 0 W/m² 3,7 °C 8,9 °C 0,0 km/h (0 Bft)
29.03.2025 19:06 22,2 °C 8,7 °C 48 % 70 % 1016,9 hPa 0,0 l/m² 1,7 km/h (1 Bft) W-NW 289 ° 0 min 0 W/m² 3,5 °C 8,7 °C 3,2 km/h (1 Bft)
29.03.2025 19:07 22,2 °C 8,5 °C 48 % 70 % 1017,0 hPa 0,0 l/m² 3,3 km/h (1 Bft) W-NW 288 ° 0 min 0 W/m² 3,3 °C 8,5 °C 4,8 km/h (1 Bft)
29.03.2025 19:08 22,2 °C 8,4 °C 48 % 71 % 1016,9 hPa 0,0 l/m² 3,1 km/h (1 Bft) W-NW 288 ° 0 min 0 W/m² 3,5 °C 8,4 °C 4,8 km/h (1 Bft)
29.03.2025 19:09 22,2 °C 8,3 °C 48 % 72 % 1017,0 hPa 0,0 l/m² 2,5 km/h (1 Bft) W-NW 288 ° 0 min 0 W/m² 3,6 °C 8,3 °C 3,2 km/h (1 Bft)
29.03.2025 19:11 22,2 °C 8,2 °C 48 % 72 % 1017,0 hPa 0,0 l/m² 2,5 km/h (1 Bft) W-NW 288 ° 0 min 0 W/m² 3,5 °C 8,2 °C 3,2 km/h (1 Bft)
29.03.2025 19:13 22,1 °C 8,0 °C 48 % 73 % 1016,9 hPa 0,0 l/m² 1,8 km/h (1 Bft) W-NW 288 ° 0 min 0 W/m² 3,5 °C 8,0 °C 3,2 km/h (1 Bft)
29.03.2025 19:14 22,2 °C 7,9 °C 48 % 73 % 1017,0 hPa 0,0 l/m² 0,9 km/h (0 Bft) W-NW 288 ° 0 min 0 W/m² 3,4 °C 7,9 °C 1,6 km/h (1 Bft)
29.03.2025 19:15 22,2 °C 7,8 °C 48 % 73 % 1017,0 hPa 0,0 l/m² 1,4 km/h (1 Bft) W-NW 288 ° 0 min 0 W/m² 3,3 °C 7,8 °C 1,6 km/h (1 Bft)
29.03.2025 19:16 22,2 °C 7,7 °C 48 % 73 % 1017,0 hPa 0,0 l/m² 1,4 km/h (1 Bft) W-NW 288 ° 0 min 0 W/m² 3,2 °C 7,7 °C 1,6 km/h (1 Bft)
29.03.2025 19:17 22,2 °C 7,7 °C 48 % 73 % 1017,0 hPa 0,0 l/m² 1,8 km/h (1 Bft) W-NW 288 ° 0 min 0 W/m² 3,2 °C 7,7 °C 3,2 km/h (1 Bft)
29.03.2025 19:18 22,2 °C 7,6 °C 47 % 74 % 1017,0 hPa 0,0 l/m² 1,6 km/h (1 Bft) W-NW 288 ° 0 min 0 W/m² 3,3 °C 7,6 °C 3,2 km/h (1 Bft)
29.03.2025 19:19 22,1 °C 7,5 °C 47 % 74 % 1017,1 hPa 0,0 l/m² 1,2 km/h (1 Bft) W-NW 288 ° 0 min 0 W/m² 3,2 °C 7,5 °C 1,6 km/h (1 Bft)
29.03.2025 19:21 22,2 °C 7,4 °C 48 % 74 % 1017,1 hPa 0,0 l/m² 0,8 km/h (0 Bft) W-NW 288 ° 0 min 0 W/m² 3,1 °C 7,4 °C 3,2 km/h (1 Bft)
29.03.2025 19:23 22,2 °C 7,0 °C 47 % 73 % 1017,2 hPa 0,0 l/m² 0,0 km/h (0 Bft) W-NW 288 ° 0 min 0 W/m² 2,5 °C 7,0 °C 0,0 km/h (0 Bft)
29.03.2025 19:24 22,2 °C 6,8 °C 47 % 74 % 1017,2 hPa 0,0 l/m² 0,0 km/h (0 Bft) W-NW 288 ° 0 min 0 W/m² 2,5 °C 6,8 °C 0,0 km/h (0 Bft)
29.03.2025 19:25 22,2 °C 6,6 °C 47 % 75 % 1017,2 hPa 0,0 l/m² 0,3 km/h (0 Bft) W-NW 288 ° 0 min 0 W/m² 2,5 °C 6,6 °C 1,6 km/h (1 Bft)
29.03.2025 19:26 22,2 °C 6,4 °C 47 % 76 % 1017,2 hPa 0,0 l/m² 0,1 km/h (0 Bft) W-NW 288 ° 0 min 0 W/m² 2,5 °C 6,4 °C 1,6 km/h (1 Bft)
29.03.2025 19:27 22,2 °C 6,3 °C 47 % 76 % 1017,2 hPa 0,0 l/m² 0,0 km/h (0 Bft) W-NW 288 ° 0 min 0 W/m² 2,4 °C 6,3 °C 0,0 km/h (0 Bft)
29.03.2025 19:28 22,2 °C 6,2 °C 47 % 76 % 1017,2 hPa 0,0 l/m² 0,0 km/h (0 Bft) W-NW 288 ° 0 min 0 W/m² 2,3 °C 6,2 °C 0,0 km/h (0 Bft)
29.03.2025 19:29 22,2 °C 6,1 °C 47 % 76 % 1017,1 hPa 0,0 l/m² 0,0 km/h (0 Bft) W-NW 288 ° 0 min 0 W/m² 2,2 °C 6,1 °C 0,0 km/h (0 Bft)
29.03.2025 19:31 22,2 °C 5,7 °C 47 % 77 % 1017,2 hPa 0,0 l/m² 0,1 km/h (0 Bft) W-NW 287 ° 0 min 0 W/m² 2,0 °C 5,7 °C 1,6 km/h (1 Bft)
29.03.2025 19:33 22,2 °C 5,6 °C 47 % 78 % 1017,3 hPa 0,0 l/m² 0,7 km/h (0 Bft) W-NW 287 ° 0 min 0 W/m² 2,1 °C 5,6 °C 1,6 km/h (1 Bft)
29.03.2025 19:34 22,2 °C 5,5 °C 47 % 79 % 1017,2 hPa 0,0 l/m² 0,0 km/h (0 Bft) W-NW 287 ° 0 min 0 W/m² 2,2 °C 5,5 °C 0,0 km/h (0 Bft)
29.03.2025 19:35 22,2 °C 5,5 °C 47 % 79 % 1017,2 hPa 0,0 l/m² 0,0 km/h (0 Bft) W-NW 287 ° 0 min 0 W/m² 2,2 °C 5,5 °C 0,0 km/h (0 Bft)
29.03.2025 19:36 22,2 °C 5,5 °C 47 % 79 % 1017,2 hPa 0,0 l/m² 0,0 km/h (0 Bft) W-NW 287 ° 0 min 0 W/m² 2,2 °C 5,5 °C 0,0 km/h (0 Bft)
29.03.2025 19:37 22,2 °C 5,6 °C 47 % 80 % 1017,2 hPa 0,0 l/m² 0,0 km/h (0 Bft) W-NW 287 ° 0 min 0 W/m² 2,4 °C 5,6 °C 0,0 km/h (0 Bft)
29.03.2025 19:38 22,2 °C 5,6 °C 47 % 80 % 1017,2 hPa 0,0 l/m² 0,0 km/h (0 Bft) W-NW 287 ° 0 min 0 W/m² 2,4 °C 5,6 °C 0,0 km/h (0 Bft)
29.03.2025 19:39 22,2 °C 5,6 °C 47 % 79 % 1017,2 hPa 0,0 l/m² 0,0 km/h (0 Bft) W-NW 287 ° 0 min 0 W/m² 2,3 °C 5,6 °C 0,0 km/h (0 Bft)
29.03.2025 19:41 22,2 °C 5,5 °C 47 % 79 % 1017,2 hPa 0,0 l/m² 0,0 km/h (0 Bft) W-NW 287 ° 0 min 0 W/m² 2,2 °C 5,5 °C 0,0 km/h (0 Bft)
29.03.2025 19:43 22,2 °C 5,4 °C 47 % 80 % 1017,2 hPa 0,0 l/m² 0,1 km/h (0 Bft) W-NW 287 ° 0 min 0 W/m² 2,2 °C 5,4 °C 1,6 km/h (1 Bft)
29.03.2025 19:44 22,2 °C 5,4 °C 47 % 80 % 1017,2 hPa 0,0 l/m² 0,0 km/h (0 Bft) W-NW 287 ° 0 min 0 W/m² 2,2 °C 5,4 °C 0,0 km/h (0 Bft)
29.03.2025 19:45 22,2 °C 5,3 °C 47 % 80 % 1017,3 hPa 0,0 l/m² 0,0 km/h (0 Bft) W-NW 287 ° 0 min 0 W/m² 2,1 °C 5,3 °C 0,0 km/h (0 Bft)
29.03.2025 19:46 22,2 °C 5,3 °C 47 % 80 % 1017,3 hPa 0,0 l/m² 0,0 km/h (0 Bft) W-NW 287 ° 0 min 0 W/m² 2,1 °C 5,3 °C 0,0 km/h (0 Bft)
29.03.2025 19:47 22,2 °C 5,2 °C 47 % 79 % 1017,3 hPa 0,0 l/m² 0,0 km/h (0 Bft) W-NW 287 ° 0 min 0 W/m² 1,9 °C 5,2 °C 0,0 km/h (0 Bft)
29.03.2025 19:48 22,2 °C 5,2 °C 47 % 79 % 1017,3 hPa 0,0 l/m² 0,0 km/h (0 Bft) W-NW 287 ° 0 min 0 W/m² 1,9 °C 5,2 °C 0,0 km/h (0 Bft)
29.03.2025 19:49 22,2 °C 5,2 °C 47 % 80 % 1017,3 hPa 0,0 l/m² 0,0 km/h (0 Bft) W-NW 287 ° 0 min 0 W/m² 2,0 °C 5,2 °C 0,0 km/h (0 Bft)
29.03.2025 19:51 22,2 °C 5,0 °C 47 % 79 % 1017,3 hPa 0,0 l/m² 0,0 km/h (0 Bft) W-NW 287 ° 0 min 0 W/m² 1,7 °C 5,0 °C 0,0 km/h (0 Bft)
29.03.2025 19:53 22,2 °C 4,7 °C 47 % 79 % 1017,4 hPa 0,0 l/m² 0,0 km/h (0 Bft) W-NW 287 ° 0 min 0 W/m² 1,4 °C 4,7 °C 0,0 km/h (0 Bft)
29.03.2025 19:54 22,2 °C 4,7 °C 47 % 80 % 1017,4 hPa 0,0 l/m² 0,0 km/h (0 Bft) W-NW 287 ° 0 min 0 W/m² 1,6 °C 4,7 °C 0,0 km/h (0 Bft)
29.03.2025 19:55 22,2 °C 4,6 °C 47 % 80 % 1017,3 hPa 0,0 l/m² 0,0 km/h (0 Bft) W-NW 287 ° 0 min 0 W/m² 1,5 °C 4,6 °C 0,0 km/h (0 Bft)
29.03.2025 19:56 22,2 °C 4,6 °C 47 % 80 % 1017,4 hPa 0,0 l/m² 0,0 km/h (0 Bft) W-NW 287 ° 0 min 0 W/m² 1,5 °C 4,6 °C 0,0 km/h (0 Bft)
29.03.2025 19:57 22,2 °C 4,5 °C 47 % 80 % 1017,4 hPa 0,0 l/m² 0,0 km/h (0 Bft) W-NW 287 ° 0 min 0 W/m² 1,4 °C 4,5 °C 0,0 km/h (0 Bft)
29.03.2025 19:58 22,2 °C 4,4 °C 47 % 80 % 1017,4 hPa 0,0 l/m² 0,0 km/h (0 Bft) W-NW 287 ° 0 min 0 W/m² 1,3 °C 4,4 °C 0,0 km/h (0 Bft)
29.03.2025 19:59 22,2 °C 4,4 °C 47 % 81 % 1017,3 hPa 0,0 l/m² 0,0 km/h (0 Bft) W-NW 287 ° 0 min 0 W/m² 1,4 °C 4,4 °C 0,0 km/h (0 Bft)
29.03.2025 20:01 22,2 °C 4,4 °C 47 % 81 % 1017,4 hPa 0,0 l/m² 0,0 km/h (0 Bft) W-NW 287 ° 0 min 0 W/m² 1,4 °C 4,4 °C 0,0 km/h (0 Bft)
29.03.2025 20:03 22,3 °C 4,4 °C 47 % 81 % 1017,5 hPa 0,0 l/m² 0,0 km/h (0 Bft) W-NW 287 ° 0 min 0 W/m² 1,4 °C 4,4 °C 0,0 km/h (0 Bft)
29.03.2025 20:04 22,2 °C 4,4 °C 47 % 81 % 1017,4 hPa 0,0 l/m² 0,6 km/h (0 Bft) W-NW 287 ° 0 min 0 W/m² 1,4 °C 4,4 °C 1,6 km/h (1 Bft)
29.03.2025 20:05 22,2 °C 4,4 °C 48 % 81 % 1017,5 hPa 0,0 l/m² 0,3 km/h (0 Bft) W-NW 287 ° 0 min 0 W/m² 1,4 °C 4,4 °C 1,6 km/h (1 Bft)
29.03.2025 20:06 22,3 °C 4,5 °C 48 % 81 % 1017,5 hPa 0,0 l/m² 0,0 km/h (0 Bft) W-NW 287 ° 0 min 0 W/m² 1,5 °C 4,5 °C 0,0 km/h (0 Bft)
29.03.2025 20:07 22,2 °C 4,5 °C 48 % 81 % 1017,5 hPa 0,0 l/m² 0,0 km/h (0 Bft) W-NW 287 ° 0 min 0 W/m² 1,5 °C 4,5 °C 0,0 km/h (0 Bft)
29.03.2025 20:08 22,2 °C 4,5 °C 48 % 81 % 1017,5 hPa 0,0 l/m² 0,0 km/h (0 Bft) W-NW 287 ° 0 min 0 W/m² 1,5 °C 4,5 °C 0,0 km/h (0 Bft)
29.03.2025 20:09 22,3 °C 4,5 °C 48 % 81 % 1017,6 hPa 0,0 l/m² 0,0 km/h (0 Bft) W-NW 287 ° 0 min 0 W/m² 1,5 °C 4,5 °C 0,0 km/h (0 Bft)
29.03.2025 20:11 22,2 °C 4,4 °C 48 % 80 % 1017,6 hPa 0,0 l/m² 0,0 km/h (0 Bft) W-NW 287 ° 0 min 0 W/m² 1,3 °C 4,4 °C 0,0 km/h (0 Bft)
29.03.2025 20:13 22,2 °C 4,4 °C 48 % 80 % 1017,5 hPa 0,0 l/m² 0,0 km/h (0 Bft) W-NW 287 ° 0 min 0 W/m² 1,3 °C 4,4 °C 0,0 km/h (0 Bft)
29.03.2025 20:14 22,2 °C 4,3 °C 48 % 80 % 1017,6 hPa 0,0 l/m² 0,0 km/h (0 Bft) W-NW 287 ° 0 min 0 W/m² 1,2 °C 4,3 °C 0,0 km/h (0 Bft)
29.03.2025 20:15 22,2 °C 4,2 °C 48 % 79 % 1017,6 hPa 0,0 l/m² 0,0 km/h (0 Bft) W-NW 287 ° 0 min 0 W/m² 0,9 °C 4,2 °C 0,0 km/h (0 Bft)
29.03.2025 20:16 22,2 °C 4,0 °C 48 % 80 % 1017,6 hPa 0,0 l/m² 0,0 km/h (0 Bft) W-NW 287 ° 0 min 0 W/m² 0,9 °C 4,0 °C 0,0 km/h (0 Bft)
29.03.2025 20:17 22,2 °C 3,9 °C 48 % 80 % 1017,6 hPa 0,0 l/m² 0,0 km/h (0 Bft) W-NW 287 ° 0 min 0 W/m² 0,8 °C 3,9 °C 0,0 km/h (0 Bft)
29.03.2025 20:18 22,2 °C 3,9 °C 48 % 81 % 1017,6 hPa 0,0 l/m² 0,0 km/h (0 Bft) W-NW 287 ° 0 min 0 W/m² 0,9 °C 3,9 °C 0,0 km/h (0 Bft)
29.03.2025 20:19 22,2 °C 3,9 °C 48 % 82 % 1017,6 hPa 0,0 l/m² 0,0 km/h (0 Bft) W-NW 287 ° 0 min 0 W/m² 1,1 °C 3,9 °C 0,0 km/h (0 Bft)
29.03.2025 20:21 22,2 °C 4,0 °C 48 % 83 % 1017,6 hPa 0,0 l/m² 0,0 km/h (0 Bft) W-NW 287 ° 0 min 0 W/m² 1,4 °C 4,0 °C 0,0 km/h (0 Bft)
29.03.2025 20:23 22,2 °C 3,9 °C 48 % 83 % 1017,7 hPa 0,0 l/m² 0,0 km/h (0 Bft) W-NW 287 ° 0 min 0 W/m² 1,3 °C 3,9 °C 0,0 km/h (0 Bft)
29.03.2025 20:24 22,2 °C 4,0 °C 48 % 84 % 1017,6 hPa 0,0 l/m² 0,0 km/h (0 Bft) W-NW 287 ° 0 min 0 W/m² 1,5 °C 4,0 °C 0,0 km/h (0 Bft)
29.03.2025 20:25 22,2 °C 4,0 °C 48 % 84 % 1017,6 hPa 0,0 l/m² 0,0 km/h (0 Bft) W-NW 287 ° 0 min 0 W/m² 1,5 °C 4,0 °C 0,0 km/h (0 Bft)
29.03.2025 20:26 22,2 °C 4,0 °C 48 % 84 % 1017,6 hPa 0,0 l/m² 0,0 km/h (0 Bft) W-NW 287 ° 0 min 0 W/m² 1,5 °C 4,0 °C 0,0 km/h (0 Bft)
29.03.2025 20:27 22,2 °C 3,9 °C 48 % 85 % 1017,7 hPa 0,0 l/m² 0,0 km/h (0 Bft) W-NW 287 ° 0 min 0 W/m² 1,6 °C 3,9 °C 0,0 km/h (0 Bft)
29.03.2025 20:28 22,2 °C 3,9 °C 48 % 85 % 1017,7 hPa 0,0 l/m² 0,0 km/h (0 Bft) W-NW 287 ° 0 min 0 W/m² 1,6 °C 3,9 °C 0,0 km/h (0 Bft)
29.03.2025 20:29 22,2 °C 3,8 °C 48 % 85 % 1017,7 hPa 0,0 l/m² 0,0 km/h (0 Bft) W-NW 287 ° 0 min 0 W/m² 1,5 °C 3,8 °C 0,0 km/h (0 Bft)
29.03.2025 20:31 22,2 °C 3,8 °C 49 % 85 % 1017,7 hPa 0,0 l/m² 0,0 km/h (0 Bft) W-NW 287 ° 0 min 0 W/m² 1,5 °C 3,8 °C 0,0 km/h (0 Bft)
29.03.2025 20:33 22,2 °C 3,7 °C 49 % 85 % 1017,7 hPa 0,0 l/m² 0,0 km/h (0 Bft) W-NW 287 ° 0 min 0 W/m² 1,4 °C 3,7 °C 0,0 km/h (0 Bft)
29.03.2025 20:34 22,2 °C 3,7 °C 49 % 85 % 1017,7 hPa 0,0 l/m² 0,0 km/h (0 Bft) W-NW 287 ° 0 min 0 W/m² 1,4 °C 3,7 °C 0,0 km/h (0 Bft)
29.03.2025 20:35 22,2 °C 3,7 °C 49 % 86 % 1017,7 hPa 0,0 l/m² 0,0 km/h (0 Bft) W-NW 287 ° 0 min 0 W/m² 1,6 °C 3,7 °C 0,0 km/h (0 Bft)
29.03.2025 20:37 22,2 °C 3,7 °C 49 % 86 % 1017,7 hPa 0,0 l/m² 1,5 km/h (1 Bft) W-NW 287 ° 0 min 0 W/m² 1,6 °C 3,7 °C 3,2 km/h (1 Bft)
29.03.2025 20:38 22,2 °C 3,7 °C 49 % 86 % 1017,7 hPa 0,0 l/m² 1,8 km/h (1 Bft) W-NW 286 ° 0 min 0 W/m² 1,6 °C 3,7 °C 3,2 km/h (1 Bft)
29.03.2025 20:39 22,2 °C 3,7 °C 49 % 86 % 1017,6 hPa 0,0 l/m² 1,6 km/h (1 Bft) W-NW 286 ° 0 min 0 W/m² 1,6 °C 3,7 °C 3,2 km/h (1 Bft)
29.03.2025 20:41 22,3 °C 3,8 °C 49 % 85 % 1017,6 hPa 0,0 l/m² 0,8 km/h (0 Bft) W-NW 285 ° 0 min 0 W/m² 1,5 °C 3,8 °C 3,2 km/h (1 Bft)
29.03.2025 20:43 22,2 °C 3,7 °C 49 % 84 % 1017,7 hPa 0,0 l/m² 0,4 km/h (0 Bft) W-NW 285 ° 0 min 0 W/m² 1,3 °C 3,7 °C 1,6 km/h (1 Bft)
29.03.2025 20:44 22,2 °C 3,7 °C 49 % 84 % 1017,6 hPa 0,0 l/m² 0,1 km/h (0 Bft) W-NW 285 ° 0 min 0 W/m² 1,3 °C 3,7 °C 1,6 km/h (1 Bft)
29.03.2025 20:45 22,2 °C 3,7 °C 49 % 84 % 1017,6 hPa 0,0 l/m² 0,0 km/h (0 Bft) W-NW 285 ° 0 min 0 W/m² 1,3 °C 3,7 °C 0,0 km/h (0 Bft)
29.03.2025 20:46 22,2 °C 3,7 °C 49 % 84 % 1017,7 hPa 0,0 l/m² 0,0 km/h (0 Bft) W-NW 285 ° 0 min 0 W/m² 1,3 °C 3,7 °C 0,0 km/h (0 Bft)
29.03.2025 20:47 22,3 °C 3,6 °C 49 % 84 % 1017,7 hPa 0,0 l/m² 0,0 km/h (0 Bft) W-NW 285 ° 0 min 0 W/m² 1,2 °C 3,6 °C 0,0 km/h (0 Bft)
29.03.2025 20:48 22,2 °C 3,6 °C 49 % 84 % 1017,7 hPa 0,0 l/m² 0,0 km/h (0 Bft) W-NW 285 ° 0 min 0 W/m² 1,2 °C 3,6 °C 0,0 km/h (0 Bft)
29.03.2025 20:49 22,2 °C 3,6 °C 49 % 84 % 1017,7 hPa 0,0 l/m² 0,0 km/h (0 Bft) W-NW 285 ° 0 min 0 W/m² 1,2 °C 3,6 °C 0,0 km/h (0 Bft)
29.03.2025 20:51 22,3 °C 3,4 °C 49 % 83 % 1017,7 hPa 0,0 l/m² 0,0 km/h (0 Bft) W-NW 285 ° 0 min 0 W/m² 0,8 °C 3,4 °C 0,0 km/h (0 Bft)
29.03.2025 20:53 22,2 °C 3,3 °C 49 % 83 % 1017,7 hPa 0,0 l/m² 0,0 km/h (0 Bft) W-NW 285 ° 0 min 0 W/m² 0,7 °C 3,3 °C 0,0 km/h (0 Bft)
29.03.2025 20:54 22,3 °C 3,3 °C 49 % 83 % 1017,7 hPa 0,0 l/m² 0,0 km/h (0 Bft) W-NW 285 ° 0 min 0 W/m² 0,7 °C 3,3 °C 0,0 km/h (0 Bft)
29.03.2025 20:55 22,2 °C 3,2 °C 49 % 84 % 1017,7 hPa 0,0 l/m² 0,0 km/h (0 Bft) W-NW 285 ° 0 min 0 W/m² 0,8 °C 3,2 °C 0,0 km/h (0 Bft)
29.03.2025 20:56 22,3 °C 3,2 °C 49 % 84 % 1017,6 hPa 0,0 l/m² 0,0 km/h (0 Bft) W-NW 285 ° 0 min 0 W/m² 0,8 °C 3,2 °C 0,0 km/h (0 Bft)
29.03.2025 20:57 22,3 °C 3,2 °C 49 % 84 % 1017,7 hPa 0,0 l/m² 0,0 km/h (0 Bft) W-NW 285 ° 0 min 0 W/m² 0,8 °C 3,2 °C 0,0 km/h (0 Bft)
29.03.2025 20:58 22,3 °C 3,2 °C 49 % 84 % 1017,6 hPa 0,0 l/m² 0,0 km/h (0 Bft) W-NW 285 ° 0 min 0 W/m² 0,8 °C 3,2 °C 0,0 km/h (0 Bft)
29.03.2025 20:59 22,3 °C 3,2 °C 49 % 84 % 1017,6 hPa 0,0 l/m² 0,0 km/h (0 Bft) W-NW 285 ° 0 min 0 W/m² 0,8 °C 3,2 °C 0,0 km/h (0 Bft)
29.03.2025 21:01 22,3 °C 3,1 °C 49 % 84 % 1017,7 hPa 0,0 l/m² 0,0 km/h (0 Bft) W-NW 285 ° 0 min 0 W/m² 0,7 °C 3,1 °C 0,0 km/h (0 Bft)
29.03.2025 21:03 22,3 °C 2,9 °C 49 % 84 % 1017,7 hPa 0,0 l/m² 0,0 km/h (0 Bft) W-NW 285 ° 0 min 0 W/m² 0,5 °C 2,9 °C 0,0 km/h (0 Bft)
29.03.2025 21:04 22,3 °C 3,0 °C 49 % 84 % 1017,7 hPa 0,0 l/m² 0,0 km/h (0 Bft) W-NW 285 ° 0 min 0 W/m² 0,6 °C 3,0 °C 0,0 km/h (0 Bft)
29.03.2025 21:05 22,3 °C 3,1 °C 50 % 84 % 1017,7 hPa 0,0 l/m² 0,0 km/h (0 Bft) W-NW 285 ° 0 min 0 W/m² 0,7 °C 3,1 °C 0,0 km/h (0 Bft)
29.03.2025 21:06 22,3 °C 3,1 °C 50 % 84 % 1017,7 hPa 0,0 l/m² 0,0 km/h (0 Bft) W-NW 285 ° 0 min 0 W/m² 0,7 °C 3,1 °C 0,0 km/h (0 Bft)
29.03.2025 21:07 22,3 °C 3,1 °C 50 % 84 % 1017,7 hPa 0,0 l/m² 0,4 km/h (0 Bft) W-NW 285 ° 0 min 0 W/m² 0,7 °C 3,1 °C 1,6 km/h (1 Bft)
29.03.2025 21:08 22,3 °C 3,1 °C 50 % 85 % 1017,7 hPa 0,0 l/m² 0,2 km/h (0 Bft) W-NW 285 ° 0 min 0 W/m² 0,8 °C 3,1 °C 1,6 km/h (1 Bft)
29.03.2025 21:09 22,3 °C 3,2 °C 50 % 85 % 1017,7 hPa 0,0 l/m² 0,0 km/h (0 Bft) W-NW 285 ° 0 min 0 W/m² 0,9 °C 3,2 °C 0,0 km/h (0 Bft)
29.03.2025 21:11 22,3 °C 3,2 °C 50 % 84 % 1017,7 hPa 0,0 l/m² 0,6 km/h (0 Bft) W-NW 285 ° 0 min 0 W/m² 0,8 °C 3,2 °C 1,6 km/h (1 Bft)
29.03.2025 21:13 22,3 °C 3,2 °C 50 % 84 % 1017,8 hPa 0,0 l/m² 0,6 km/h (0 Bft) W-NW 285 ° 0 min 0 W/m² 0,8 °C 3,2 °C 3,2 km/h (1 Bft)
29.03.2025 21:14 22,3 °C 3,2 °C 50 % 84 % 1017,7 hPa 0,0 l/m² 0,1 km/h (0 Bft) W-NW 285 ° 0 min 0 W/m² 0,8 °C 3,2 °C 1,6 km/h (1 Bft)
29.03.2025 21:15 22,3 °C 3,2 °C 50 % 83 % 1017,7 hPa 0,0 l/m² 0,2 km/h (0 Bft) W-NW 285 ° 0 min 0 W/m² 0,6 °C 3,2 °C 1,6 km/h (1 Bft)
29.03.2025 21:16 22,3 °C 3,2 °C 50 % 84 % 1017,7 hPa 0,0 l/m² 1,1 km/h (1 Bft) W-NW 285 ° 0 min 0 W/m² 0,8 °C 3,2 °C 1,6 km/h (1 Bft)
29.03.2025 21:17 22,3 °C 3,2 °C 50 % 83 % 1017,7 hPa 0,0 l/m² 1,4 km/h (1 Bft) W-NW 285 ° 0 min 0 W/m² 0,6 °C 3,2 °C 3,2 km/h (1 Bft)
29.03.2025 21:18 22,3 °C 3,2 °C 50 % 84 % 1017,7 hPa 0,0 l/m² 0,3 km/h (0 Bft) W-NW 285 ° 0 min 0 W/m² 0,8 °C 3,2 °C 1,6 km/h (1 Bft)
29.03.2025 21:19 22,3 °C 3,3 °C 50 % 84 % 1017,7 hPa 0,0 l/m² 0,0 km/h (0 Bft) W-NW 285 ° 0 min 0 W/m² 0,9 °C 3,3 °C 0,0 km/h (0 Bft)
29.03.2025 21:21 22,3 °C 3,3 °C 50 % 83 % 1017,7 hPa 0,0 l/m² 0,0 km/h (0 Bft) W-NW 285 ° 0 min 0 W/m² 0,7 °C 3,3 °C 0,0 km/h (0 Bft)
29.03.2025 21:23 22,3 °C 3,0 °C 50 % 82 % 1017,7 hPa 0,0 l/m² 0,0 km/h (0 Bft) W-NW 285 ° 0 min 0 W/m² 0,2 °C 3,0 °C 0,0 km/h (0 Bft)
29.03.2025 21:24 22,3 °C 2,8 °C 50 % 81 % 1017,8 hPa 0,0 l/m² 0,0 km/h (0 Bft) W-NW 285 ° 0 min 0 W/m² -0,1 °C 2,8 °C 0,0 km/h (0 Bft)
29.03.2025 21:25 22,3 °C 2,6 °C 50 % 81 % 1017,8 hPa 0,0 l/m² 0,0 km/h (0 Bft) W-NW 285 ° 0 min 0 W/m² -0,3 °C 2,6 °C 0,0 km/h (0 Bft)
29.03.2025 21:26 22,3 °C 2,4 °C 50 % 81 % 1017,8 hPa 0,0 l/m² 0,0 km/h (0 Bft) W-NW 285 ° 0 min 0 W/m² -0,5 °C 2,4 °C 0,0 km/h (0 Bft)
29.03.2025 21:27 22,3 °C 2,3 °C 50 % 82 % 1017,8 hPa 0,0 l/m² 0,0 km/h (0 Bft) W-NW 285 ° 0 min 0 W/m² -0,4 °C 2,3 °C 0,0 km/h (0 Bft)
29.03.2025 21:28 22,3 °C 2,3 °C 50 % 82 % 1017,8 hPa 0,0 l/m² 0,0 km/h (0 Bft) W-NW 285 ° 0 min 0 W/m² -0,4 °C 2,3 °C 0,0 km/h (0 Bft)
29.03.2025 21:29 22,3 °C 2,3 °C 50 % 84 % 1017,8 hPa 0,0 l/m² 1,1 km/h (1 Bft) W-NW 285 ° 0 min 0 W/m² -0,1 °C 2,3 °C 1,6 km/h (1 Bft)
29.03.2025 21:31 22,3 °C 2,6 °C 51 % 84 % 1017,7 hPa 0,0 l/m² 0,0 km/h (0 Bft) W-NW 285 ° 0 min 0 W/m² 0,2 °C 2,6 °C 0,0 km/h (0 Bft)
29.03.2025 21:32 22,3 °C 2,6 °C 51 % 84 % 1017,8 hPa 0,0 l/m² 0,0 km/h (0 Bft) W-NW 285 ° 0 min 0 W/m² 0,2 °C 2,6 °C 0,0 km/h (0 Bft)
29.03.2025 21:33 22,3 °C 2,6 °C 51 % 84 % 1017,8 hPa 0,0 l/m² 0,0 km/h (0 Bft) W-NW 285 ° 0 min 0 W/m² 0,2 °C 2,6 °C 0,0 km/h (0 Bft)
29.03.2025 21:34 22,3 °C 2,6 °C 51 % 84 % 1017,8 hPa 0,0 l/m² 0,0 km/h (0 Bft) W-NW 285 ° 0 min 0 W/m² 0,2 °C 2,6 °C 0,0 km/h (0 Bft)
29.03.2025 21:35 22,3 °C 2,5 °C 51 % 84 % 1017,8 hPa 0,0 l/m² 1,3 km/h (1 Bft) W 279 ° 0 min 0 W/m² 0,1 °C 2,5 °C 3,2 km/h (1 Bft)
29.03.2025 21:36 22,3 °C 2,5 °C 51 % 84 % 1017,9 hPa 0,0 l/m² 0,4 km/h (0 Bft) W 279 ° 0 min 0 W/m² 0,1 °C 2,5 °C 3,2 km/h (1 Bft)
29.03.2025 21:37 22,3 °C 2,5 °C 51 % 84 % 1017,9 hPa 0,0 l/m² 0,3 km/h (0 Bft) W 279 ° 0 min 0 W/m² 0,1 °C 2,5 °C 1,6 km/h (1 Bft)
29.03.2025 21:38 22,3 °C 2,4 °C 51 % 84 % 1017,8 hPa 0,0 l/m² 0,3 km/h (0 Bft) W 279 ° 0 min 0 W/m² -0,0 °C 2,4 °C 1,6 km/h (1 Bft)
29.03.2025 21:39 22,3 °C 2,4 °C 51 % 84 % 1017,8 hPa 0,0 l/m² 0,0 km/h (0 Bft) W 279 ° 0 min 0 W/m² -0,0 °C 2,4 °C 0,0 km/h (0 Bft)
29.03.2025 21:40 22,4 °C 2,4 °C 51 % 84 % 1017,8 hPa 0,0 l/m² 0,0 km/h (0 Bft) W 279 ° 0 min 0 W/m² -0,0 °C 2,4 °C 0,0 km/h (0 Bft)
29.03.2025 21:42 22,4 °C 2,4 °C 51 % 84 % 1017,8 hPa 0,0 l/m² 0,2 km/h (0 Bft) W 279 ° 0 min 0 W/m² -0,0 °C 2,4 °C 1,6 km/h (1 Bft)
29.03.2025 21:43 22,4 °C 2,4 °C 51 % 84 % 1017,8 hPa 0,0 l/m² 1,3 km/h (1 Bft) W 278 ° 0 min 0 W/m² -0,0 °C 2,4 °C 3,2 km/h (1 Bft)
29.03.2025 21:44 22,4 °C 2,4 °C 51 % 84 % 1017,9 hPa 0,0 l/m² 3,2 km/h (1 Bft) W 273 ° 0 min 0 W/m² -0,0 °C 2,4 °C 4,8 km/h (1 Bft)
29.03.2025 21:45 22,4 °C 2,5 °C 51 % 84 % 1017,9 hPa 0,0 l/m² 3,2 km/h (1 Bft) W 271 ° 0 min 0 W/m² 0,1 °C 2,5 °C 4,8 km/h (1 Bft)
29.03.2025 21:46 22,4 °C 2,5 °C 51 % 84 % 1017,9 hPa 0,0 l/m² 2,6 km/h (1 Bft) W 269 ° 0 min 0 W/m² 0,1 °C 2,5 °C 3,2 km/h (1 Bft)
29.03.2025 21:47 22,4 °C 2,5 °C 51 % 84 % 1017,9 hPa 0,0 l/m² 0,1 km/h (0 Bft) W 269 ° 0 min 0 W/m² 0,1 °C 2,5 °C 1,6 km/h (1 Bft)
29.03.2025 21:48 22,4 °C 2,5 °C 51 % 84 % 1017,9 hPa 0,0 l/m² 0,0 km/h (0 Bft) W 269 ° 0 min 0 W/m² 0,1 °C 2,5 °C 0,0 km/h (0 Bft)
29.03.2025 21:49 22,4 °C 2,4 °C 51 % 84 % 1017,9 hPa 0,0 l/m² 0,0 km/h (0 Bft) W 269 ° 0 min 0 W/m² -0,0 °C 2,4 °C 0,0 km/h (0 Bft)
29.03.2025 21:51 22,4 °C 2,4 °C 52 % 83 % 1017,9 hPa 0,0 l/m² 0,2 km/h (0 Bft) W 269 ° 0 min 0 W/m² -0,2 °C 2,4 °C 1,6 km/h (1 Bft)
29.03.2025 21:53 22,4 °C 2,3 °C 52 % 83 % 1017,9 hPa 0,0 l/m² 0,6 km/h (0 Bft) W 267 ° 0 min 0 W/m² -0,3 °C 2,3 °C 3,2 km/h (1 Bft)
29.03.2025 21:54 22,4 °C 2,2 °C 52 % 83 % 1017,9 hPa 0,0 l/m² 0,0 km/h (0 Bft) W 267 ° 0 min 0 W/m² -0,4 °C 2,2 °C 0,0 km/h (0 Bft)
29.03.2025 21:55 22,4 °C 2,2 °C 52 % 83 % 1017,9 hPa 0,0 l/m² 0,0 km/h (0 Bft) W 267 ° 0 min 0 W/m² -0,4 °C 2,2 °C 0,0 km/h (0 Bft)
29.03.2025 21:56 22,4 °C 2,1 °C 52 % 83 % 1017,9 hPa 0,0 l/m² 0,0 km/h (0 Bft) W 267 ° 0 min 0 W/m² -0,5 °C 2,1 °C 0,0 km/h (0 Bft)
29.03.2025 21:57 22,4 °C 2,1 °C 52 % 83 % 1017,9 hPa 0,0 l/m² 0,0 km/h (0 Bft) W 267 ° 0 min 0 W/m² -0,5 °C 2,1 °C 0,0 km/h (0 Bft)
29.03.2025 21:58 22,4 °C 2,0 °C 52 % 83 % 1017,9 hPa 0,0 l/m² 0,1 km/h (0 Bft) W 267 ° 0 min 0 W/m² -0,6 °C 2,0 °C 1,6 km/h (1 Bft)
29.03.2025 21:59 22,4 °C 2,0 °C 52 % 84 % 1017,9 hPa 0,0 l/m² 0,1 km/h (0 Bft) W 267 ° 0 min 0 W/m² -0,4 °C 2,0 °C 1,6 km/h (1 Bft)
29.03.2025 22:01 22,4 °C 1,9 °C 52 % 84 % 1017,9 hPa 0,0 l/m² 1,2 km/h (1 Bft) W 267 ° 0 min 0 W/m² -0,5 °C 1,9 °C 3,2 km/h (1 Bft)
29.03.2025 22:03 22,4 °C 1,9 °C 52 % 84 % 1017,9 hPa 0,0 l/m² 0,0 km/h (0 Bft) W 267 ° 0 min 0 W/m² -0,5 °C 1,9 °C 1,6 km/h (1 Bft)
29.03.2025 22:04 22,4 °C 1,9 °C 52 % 84 % 1017,9 hPa 0,0 l/m² 0,0 km/h (0 Bft) W 267 ° 0 min 0 W/m² -0,5 °C 1,9 °C 0,0 km/h (0 Bft)
29.03.2025 22:05 22,4 °C 1,8 °C 52 % 84 % 1018,0 hPa 0,0 l/m² 0,0 km/h (0 Bft) W 267 ° 0 min 0 W/m² -0,6 °C 1,8 °C 0,0 km/h (0 Bft)
29.03.2025 22:06 22,4 °C 1,8 °C 52 % 85 % 1017,9 hPa 0,0 l/m² 0,0 km/h (0 Bft) W 267 ° 0 min 0 W/m² -0,4 °C 1,8 °C 0,0 km/h (0 Bft)
29.03.2025 22:07 22,4 °C 1,8 °C 52 % 85 % 1017,9 hPa 0,0 l/m² 0,0 km/h (0 Bft) W 267 ° 0 min 0 W/m² -0,4 °C 1,8 °C 0,0 km/h (0 Bft)
29.03.2025 22:08 22,4 °C 1,7 °C 52 % 85 % 1018,0 hPa 0,0 l/m² 0,0 km/h (0 Bft) W 267 ° 0 min 0 W/m² -0,5 °C 1,7 °C 0,0 km/h (0 Bft)
29.03.2025 22:09 22,4 °C 1,7 °C 52 % 85 % 1018,0 hPa 0,0 l/m² 0,0 km/h (0 Bft) W 267 ° 0 min 0 W/m² -0,5 °C 1,7 °C 0,0 km/h (0 Bft)
29.03.2025 22:11 22,4 °C 1,8 °C 51 % 86 % 1018,1 hPa 0,0 l/m² 0,0 km/h (0 Bft) W 267 ° 0 min 0 W/m² -0,3 °C 1,8 °C 0,0 km/h (0 Bft)
29.03.2025 22:12 22,4 °C 1,8 °C 49 % 86 % 1018,1 hPa 0,0 l/m² 0,0 km/h (0 Bft) W 267 ° 0 min 0 W/m² -0,3 °C 1,8 °C 0,0 km/h (0 Bft)
29.03.2025 22:13 22,4 °C 1,8 °C 49 % 86 % 1018,1 hPa 0,0 l/m² 0,0 km/h (0 Bft) W 267 ° 0 min 0 W/m² -0,3 °C 1,8 °C 0,0 km/h (0 Bft)
29.03.2025 22:14 22,4 °C 1,8 °C 49 % 87 % 1018,1 hPa 0,0 l/m² 0,0 km/h (0 Bft) W 267 ° 0 min 0 W/m² -0,1 °C 1,8 °C 0,0 km/h (0 Bft)
29.03.2025 22:15 22,3 °C 1,8 °C 49 % 87 % 1018,0 hPa 0,0 l/m² 0,5 km/h (0 Bft) W 261 ° 0 min 0 W/m² -0,1 °C 1,8 °C 1,6 km/h (1 Bft)
29.03.2025 22:16 22,3 °C 1,9 °C 49 % 87 % 1018,1 hPa 0,0 l/m² 0,2 km/h (0 Bft) W 261 ° 0 min 0 W/m² -0,0 °C 1,9 °C 1,6 km/h (1 Bft)
29.03.2025 22:17 22,3 °C 1,9 °C 49 % 87 % 1018,0 hPa 0,0 l/m² 1,4 km/h (1 Bft) W 260 ° 0 min 0 W/m² -0,0 °C 1,9 °C 3,2 km/h (1 Bft)
29.03.2025 22:18 22,3 °C 1,9 °C 49 % 87 % 1018,0 hPa 0,0 l/m² 0,5 km/h (0 Bft) W 260 ° 0 min 0 W/m² -0,0 °C 1,9 °C 1,6 km/h (1 Bft)
29.03.2025 22:19 22,3 °C 1,9 °C 49 % 87 % 1018,0 hPa 0,0 l/m² 0,0 km/h (0 Bft) W 260 ° 0 min 0 W/m² -0,0 °C 1,9 °C 0,0 km/h (0 Bft)
29.03.2025 22:21 22,3 °C 1,9 °C 49 % 87 % 1018,0 hPa 0,0 l/m² 0,5 km/h (0 Bft) W-SW 257 ° 0 min 0 W/m² -0,0 °C 1,9 °C 3,2 km/h (1 Bft)
29.03.2025 22:23 22,3 °C 2,0 °C 49 % 87 % 1017,9 hPa 0,0 l/m² 0,7 km/h (0 Bft) W-SW 256 ° 0 min 0 W/m² 0,1 °C 2,0 °C 3,2 km/h (1 Bft)
29.03.2025 22:24 22,3 °C 2,0 °C 49 % 87 % 1017,9 hPa 0,0 l/m² 0,7 km/h (0 Bft) W-SW 256 ° 0 min 0 W/m² 0,1 °C 2,0 °C 3,2 km/h (1 Bft)
29.03.2025 22:25 22,3 °C 1,9 °C 49 % 87 % 1017,9 hPa 0,0 l/m² 0,5 km/h (0 Bft) W-SW 256 ° 0 min 0 W/m² -0,0 °C 1,9 °C 1,6 km/h (1 Bft)
29.03.2025 22:26 22,3 °C 1,9 °C 49 % 87 % 1018,0 hPa 0,0 l/m² 0,0 km/h (0 Bft) W-SW 256 ° 0 min 0 W/m² -0,0 °C 1,9 °C 0,0 km/h (0 Bft)
29.03.2025 22:27 22,3 °C 1,9 °C 49 % 88 % 1017,9 hPa 0,0 l/m² 0,0 km/h (0 Bft) W-SW 256 ° 0 min 0 W/m² 0,1 °C 1,9 °C 0,0 km/h (0 Bft)
29.03.2025 22:28 22,3 °C 1,9 °C 49 % 88 % 1017,9 hPa 0,0 l/m² 0,0 km/h (0 Bft) W-SW 256 ° 0 min 0 W/m² 0,1 °C 1,9 °C 0,0 km/h (0 Bft)
29.03.2025 22:29 22,3 °C 1,9 °C 49 % 88 % 1017,9 hPa 0,0 l/m² 0,0 km/h (0 Bft) W-SW 256 ° 0 min 0 W/m² 0,1 °C 1,9 °C 0,0 km/h (0 Bft)
29.03.2025 22:30 22,3 °C 1,9 °C 49 % 88 % 1017,9 hPa 0,0 l/m² 0,0 km/h (0 Bft) W-SW 256 ° 0 min 0 W/m² 0,1 °C 1,9 °C 0,0 km/h (0 Bft)
29.03.2025 22:32 22,3 °C 1,9 °C 49 % 88 % 1018,0 hPa 0,0 l/m² 0,0 km/h (0 Bft) W-SW 256 ° 0 min 0 W/m² 0,1 °C 1,9 °C 0,0 km/h (0 Bft)
29.03.2025 22:33 22,3 °C 1,9 °C 49 % 88 % 1018,0 hPa 0,0 l/m² 0,0 km/h (0 Bft) W-SW 256 ° 0 min 0 W/m² 0,1 °C 1,9 °C 0,0 km/h (0 Bft)
29.03.2025 22:34 22,2 °C 1,9 °C 48 % 88 % 1018,1 hPa 0,0 l/m² 0,0 km/h (0 Bft) W-SW 256 ° 0 min 0 W/m² 0,1 °C 1,9 °C 0,0 km/h (0 Bft)
29.03.2025 22:35 22,3 °C 1,9 °C 48 % 88 % 1018,0 hPa 0,0 l/m² 0,0 km/h (0 Bft) W-SW 256 ° 0 min 0 W/m² 0,1 °C 1,9 °C 0,0 km/h (0 Bft)
29.03.2025 22:36 22,2 °C 1,8 °C 48 % 88 % 1018,0 hPa 0,0 l/m² 0,0 km/h (0 Bft) W-SW 256 ° 0 min 0 W/m² 0,0 °C 1,8 °C 0,0 km/h (0 Bft)
29.03.2025 22:37 22,2 °C 1,8 °C 48 % 88 % 1018,0 hPa 0,0 l/m² 0,0 km/h (0 Bft) W-SW 256 ° 0 min 0 W/m² 0,0 °C 1,8 °C 0,0 km/h (0 Bft)
29.03.2025 22:38 22,2 °C 1,9 °C 48 % 88 % 1018,0 hPa 0,0 l/m² 0,0 km/h (0 Bft) W-SW 256 ° 0 min 0 W/m² 0,1 °C 1,9 °C 0,0 km/h (0 Bft)
29.03.2025 22:39 22,2 °C 1,8 °C 48 % 88 % 1018,0 hPa 0,0 l/m² 0,0 km/h (0 Bft) W-SW 256 ° 0 min 0 W/m² 0,0 °C 1,8 °C 0,0 km/h (0 Bft)
29.03.2025 22:40 22,2 °C 1,8 °C 48 % 88 % 1018,0 hPa 0,0 l/m² 0,1 km/h (0 Bft) W-SW 256 ° 0 min 0 W/m² 0,0 °C 1,8 °C 1,6 km/h (1 Bft)
29.03.2025 22:42 22,2 °C 1,8 °C 48 % 88 % 1017,9 hPa 0,0 l/m² 0,0 km/h (0 Bft) W-SW 256 ° 0 min 0 W/m² 0,0 °C 1,8 °C 0,0 km/h (0 Bft)
29.03.2025 22:43 22,2 °C 1,8 °C 48 % 88 % 1017,9 hPa 0,0 l/m² 0,9 km/h (0 Bft) W-SW 256 ° 0 min 0 W/m² 0,0 °C 1,8 °C 1,6 km/h (1 Bft)
29.03.2025 22:44 22,2 °C 1,8 °C 48 % 88 % 1017,9 hPa 0,0 l/m² 0,9 km/h (0 Bft) W-SW 256 ° 0 min 0 W/m² 0,0 °C 1,8 °C 1,6 km/h (1 Bft)
29.03.2025 22:45 22,2 °C 1,8 °C 48 % 88 % 1017,9 hPa 0,0 l/m² 1,6 km/h (1 Bft) W-SW 256 ° 0 min 0 W/m² 0,0 °C 1,8 °C 3,2 km/h (1 Bft)
29.03.2025 22:46 22,2 °C 1,8 °C 48 % 88 % 1018,0 hPa 0,0 l/m² 1,0 km/h (0 Bft) W-SW 256 ° 0 min 0 W/m² 0,0 °C 1,8 °C 1,6 km/h (1 Bft)
29.03.2025 22:47 22,2 °C 1,7 °C 48 % 88 % 1017,9 hPa 0,0 l/m² 1,3 km/h (1 Bft) W-SW 256 ° 0 min 0 W/m² -0,1 °C 1,7 °C 3,2 km/h (1 Bft)
29.03.2025 22:48 22,2 °C 1,7 °C 48 % 87 % 1017,9 hPa 0,0 l/m² 0,6 km/h (0 Bft) W-SW 256 ° 0 min 0 W/m² -0,2 °C 1,7 °C 1,6 km/h (1 Bft)
29.03.2025 22:49 22,2 °C 1,7 °C 48 % 87 % 1017,9 hPa 0,0 l/m² 0,0 km/h (0 Bft) W-SW 256 ° 0 min 0 W/m² -0,2 °C 1,7 °C 0,0 km/h (0 Bft)
29.03.2025 22:51 22,2 °C 1,7 °C 48 % 88 % 1017,9 hPa 0,0 l/m² 0,0 km/h (0 Bft) W-SW 256 ° 0 min 0 W/m² -0,1 °C 1,7 °C 0,0 km/h (0 Bft)
29.03.2025 22:53 22,1 °C 1,8 °C 48 % 88 % 1017,9 hPa 0,0 l/m² 1,1 km/h (1 Bft) W-SW 256 ° 0 min 0 W/m² 0,0 °C 1,8 °C 3,2 km/h (1 Bft)
29.03.2025 22:54 22,2 °C 1,8 °C 48 % 88 % 1017,8 hPa 0,0 l/m² 1,6 km/h (1 Bft) W-SW 256 ° 0 min 0 W/m² 0,0 °C 1,8 °C 3,2 km/h (1 Bft)
29.03.2025 22:55 22,1 °C 1,8 °C 48 % 88 % 1017,8 hPa 0,0 l/m² 0,6 km/h (0 Bft) W-SW 256 ° 0 min 0 W/m² 0,0 °C 1,8 °C 1,6 km/h (1 Bft)
29.03.2025 22:56 22,2 °C 1,8 °C 48 % 88 % 1017,8 hPa 0,0 l/m² 0,5 km/h (0 Bft) W-SW 256 ° 0 min 0 W/m² 0,0 °C 1,8 °C 1,6 km/h (1 Bft)
29.03.2025 22:57 22,1 °C 1,8 °C 48 % 88 % 1017,8 hPa 0,0 l/m² 0,0 km/h (0 Bft) W-SW 256 ° 0 min 0 W/m² 0,0 °C 1,8 °C 0,0 km/h (0 Bft)
29.03.2025 22:58 22,2 °C 1,8 °C 48 % 88 % 1017,7 hPa 0,0 l/m² 0,0 km/h (0 Bft) W-SW 256 ° 0 min 0 W/m² 0,0 °C 1,8 °C 0,0 km/h (0 Bft)
29.03.2025 22:59 22,1 °C 1,8 °C 48 % 88 % 1017,7 hPa 0,0 l/m² 0,0 km/h (0 Bft) W-SW 256 ° 0 min 0 W/m² 0,0 °C 1,8 °C 0,0 km/h (0 Bft)
29.03.2025 23:00 22,1 °C 1,8 °C 48 % 87 % 1017,8 hPa 0,0 l/m² 0,0 km/h (0 Bft) W-SW 256 ° 0 min 0 W/m² -0,1 °C 1,8 °C 0,0 km/h (0 Bft)
29.03.2025 23:01 22,1 °C 1,8 °C 48 % 87 % 1017,7 hPa 0,0 l/m² 0,0 km/h (0 Bft) W-SW 256 ° 0 min 0 W/m² -0,1 °C 1,8 °C 0,0 km/h (0 Bft)
29.03.2025 23:02 22,1 °C 1,8 °C 48 % 87 % 1017,7 hPa 0,0 l/m² 0,0 km/h (0 Bft) W-SW 256 ° 0 min 0 W/m² -0,1 °C 1,8 °C 0,0 km/h (0 Bft)
29.03.2025 23:03 22,1 °C 1,8 °C 48 % 87 % 1017,7 hPa 0,0 l/m² 0,0 km/h (0 Bft) W-SW 256 ° 0 min 0 W/m² -0,1 °C 1,8 °C 0,0 km/h (0 Bft)
29.03.2025 23:04 22,1 °C 1,8 °C 48 % 87 % 1017,7 hPa 0,0 l/m² 0,0 km/h (0 Bft) W-SW 256 ° 0 min 0 W/m² -0,1 °C 1,8 °C 0,0 km/h (0 Bft)
29.03.2025 23:05 22,1 °C 1,9 °C 48 % 87 % 1017,7 hPa 0,0 l/m² 0,0 km/h (0 Bft) W-SW 256 ° 0 min 0 W/m² -0,0 °C 1,9 °C 0,0 km/h (0 Bft)
29.03.2025 23:06 22,1 °C 1,9 °C 48 % 87 % 1017,7 hPa 0,0 l/m² 0,3 km/h (0 Bft) W-SW 256 ° 0 min 0 W/m² -0,0 °C 1,9 °C 1,6 km/h (1 Bft)
29.03.2025 23:07 22,1 °C 1,9 °C 48 % 87 % 1017,7 hPa 0,0 l/m² 1,1 km/h (1 Bft) W-SW 255 ° 0 min 0 W/m² -0,0 °C 1,9 °C 3,2 km/h (1 Bft)
29.03.2025 23:08 22,1 °C 1,9 °C 48 % 86 % 1017,6 hPa 0,0 l/m² 2,1 km/h (1 Bft) W-SW 255 ° 0 min 0 W/m² -0,2 °C 1,9 °C 3,2 km/h (1 Bft)
29.03.2025 23:09 22,1 °C 1,9 °C 48 % 86 % 1017,6 hPa 0,0 l/m² 2,3 km/h (1 Bft) W-SW 255 ° 0 min 0 W/m² -0,2 °C 1,9 °C 3,2 km/h (1 Bft)
29.03.2025 23:10 22,1 °C 1,9 °C 48 % 86 % 1017,6 hPa 0,0 l/m² 2,2 km/h (1 Bft) W-SW 255 ° 0 min 0 W/m² -0,2 °C 1,9 °C 3,2 km/h (1 Bft)
29.03.2025 23:11 22,1 °C 2,0 °C 48 % 86 % 1017,5 hPa 0,0 l/m² 3,1 km/h (1 Bft) W-SW 255 ° 0 min 0 W/m² -0,1 °C 2,0 °C 3,2 km/h (1 Bft)
29.03.2025 23:12 22,1 °C 1,9 °C 48 % 86 % 1017,5 hPa 0,0 l/m² 2,6 km/h (1 Bft) W-SW 255 ° 0 min 0 W/m² -0,2 °C 1,9 °C 4,8 km/h (1 Bft)
29.03.2025 23:13 22,1 °C 2,0 °C 48 % 86 % 1017,5 hPa 0,0 l/m² 2,8 km/h (1 Bft) W-SW 255 ° 0 min 0 W/m² -0,1 °C 2,0 °C 4,8 km/h (1 Bft)
29.03.2025 23:14 22,1 °C 2,0 °C 48 % 85 % 1017,4 hPa 0,0 l/m² 1,4 km/h (1 Bft) W-SW 255 ° 0 min 0 W/m² -0,3 °C 2,0 °C 3,2 km/h (1 Bft)
29.03.2025 23:15 22,1 °C 2,0 °C 48 % 85 % 1017,5 hPa 0,0 l/m² 1,5 km/h (1 Bft) W-SW 255 ° 0 min 0 W/m² -0,3 °C 2,0 °C 1,6 km/h (1 Bft)
29.03.2025 23:16 22,1 °C 2,1 °C 48 % 85 % 1017,5 hPa 0,0 l/m² 0,0 km/h (0 Bft) W-SW 247 ° 0 min 0 W/m² -0,2 °C 2,1 °C 1,6 km/h (1 Bft)
29.03.2025 23:17 22,1 °C 2,1 °C 48 % 85 % 1017,7 hPa 0,0 l/m² 0,0 km/h (0 Bft) W-SW 247 ° 0 min 0 W/m² -0,2 °C 2,1 °C 1,6 km/h (1 Bft)
29.03.2025 23:18 22,1 °C 2,1 °C 48 % 85 % 1017,4 hPa 0,0 l/m² 0,0 km/h (0 Bft) N 0 ° 0 min 0 W/m² -0,2 °C 2,1 °C 0,0 km/h (0 Bft)
29.03.2025 23:19 22,1 °C 2,1 °C 48 % 85 % 1017,5 hPa 0,0 l/m² 0,0 km/h (0 Bft) N 0 ° 0 min 0 W/m² -0,2 °C 2,1 °C 0,0 km/h (0 Bft)
29.03.2025 23:20 22,1 °C 2,0 °C 48 % 85 % 1017,5 hPa 0,0 l/m² 0,0 km/h (0 Bft) N 0 ° 0 min 0 W/m² -0,3 °C 2,0 °C 0,0 km/h (0 Bft)
29.03.2025 23:26 22,0 °C 1,9 °C 48 % 85 % 1017,5 hPa 0,0 l/m² 3,2 km/h (1 Bft) W-SW 255 ° 0 min 0 W/m² -0,3 °C 1,9 °C 4,8 km/h (1 Bft)
29.03.2025 23:28 22,0 °C 1,9 °C 48 % 85 % 1017,5 hPa 0,0 l/m² 2,5 km/h (1 Bft) W-SW 255 ° 0 min 0 W/m² -0,3 °C 1,9 °C 3,2 km/h (1 Bft)
29.03.2025 23:29 22,0 °C 2,0 °C 48 % 85 % 1017,5 hPa 0,0 l/m² 2,1 km/h (1 Bft) W-SW 255 ° 0 min 0 W/m² -0,3 °C 2,0 °C 3,2 km/h (1 Bft)
29.03.2025 23:31 22,0 °C 1,9 °C 48 % 85 % 1017,5 hPa 0,0 l/m² 1,7 km/h (1 Bft) W-SW 255 ° 0 min 0 W/m² -0,3 °C 1,9 °C 3,2 km/h (1 Bft)
29.03.2025 23:32 22,0 °C 1,9 °C 48 % 85 % 1017,5 hPa 0,0 l/m² 1,0 km/h (0 Bft) W-SW 255 ° 0 min 0 W/m² -0,3 °C 1,9 °C 1,6 km/h (1 Bft)
29.03.2025 23:34 22,0 °C 1,9 °C 48 % 85 % 1017,5 hPa 0,0 l/m² 2,4 km/h (1 Bft) W-SW 255 ° 0 min 0 W/m² -0,3 °C 1,9 °C 3,2 km/h (1 Bft)
29.03.2025 23:36 22,0 °C 1,8 °C 48 % 85 % 1017,4 hPa 0,0 l/m² 1,7 km/h (1 Bft) W-SW 255 ° 0 min 0 W/m² -0,4 °C 1,8 °C 3,2 km/h (1 Bft)
29.03.2025 23:38 22,0 °C 1,8 °C 48 % 85 % 1017,3 hPa 0,0 l/m² 2,3 km/h (1 Bft) W-SW 255 ° 0 min 0 W/m² -0,4 °C 1,8 °C 3,2 km/h (1 Bft)
29.03.2025 23:40 22,0 °C 1,8 °C 48 % 85 % 1017,4 hPa 0,0 l/m² 3,2 km/h (1 Bft) W-SW 255 ° 0 min 0 W/m² -0,4 °C 1,8 °C 4,8 km/h (1 Bft)
29.03.2025 23:41 22,0 °C 1,8 °C 48 % 85 % 1017,4 hPa 0,0 l/m² 3,5 km/h (1 Bft) W-SW 255 ° 0 min 0 W/m² -0,4 °C 1,8 °C 4,8 km/h (1 Bft)
29.03.2025 23:42 22,0 °C 1,8 °C 48 % 85 % 1017,4 hPa 0,0 l/m² 3,3 km/h (1 Bft) W-SW 255 ° 0 min 0 W/m² -0,4 °C 1,8 °C 4,8 km/h (1 Bft)
29.03.2025 23:44 22,0 °C 1,8 °C 48 % 85 % 1017,4 hPa 0,0 l/m² 2,3 km/h (1 Bft) W-SW 255 ° 0 min 0 W/m² -0,4 °C 1,8 °C 3,2 km/h (1 Bft)
29.03.2025 23:46 22,0 °C 1,7 °C 48 % 85 % 1017,3 hPa 0,0 l/m² 1,8 km/h (1 Bft) W-SW 255 ° 0 min 0 W/m² -0,5 °C 1,7 °C 3,2 km/h (1 Bft)
29.03.2025 23:48 22,0 °C 1,7 °C 48 % 85 % 1017,3 hPa 0,0 l/m² 1,9 km/h (1 Bft) W-SW 255 ° 0 min 0 W/m² -0,5 °C 1,7 °C 3,2 km/h (1 Bft)
29.03.2025 23:50 22,0 °C 1,7 °C 48 % 85 % 1017,3 hPa 0,0 l/m² 1,4 km/h (1 Bft) W-SW 255 ° 0 min 0 W/m² -0,5 °C 1,7 °C 3,2 km/h (1 Bft)
29.03.2025 23:51 22,0 °C 1,7 °C 48 % 85 % 1017,4 hPa 0,0 l/m² 1,5 km/h (1 Bft) W-SW 255 ° 0 min 0 W/m² -0,5 °C 1,7 °C 3,2 km/h (1 Bft)
29.03.2025 23:52 22,0 °C 1,7 °C 48 % 85 % 1017,4 hPa 0,0 l/m² 1,7 km/h (1 Bft) W-SW 255 ° 0 min 0 W/m² -0,5 °C 1,7 °C 3,2 km/h (1 Bft)
29.03.2025 23:55 22,0 °C 1,7 °C 48 % 85 % 1017,5 hPa 0,0 l/m² 1,7 km/h (1 Bft) W-SW 255 ° 0 min 0 W/m² -0,5 °C 1,7 °C 3,2 km/h (1 Bft)
29.03.2025 23:57 22,0 °C 1,7 °C 48 % 85 % 1017,4 hPa 0,0 l/m² 2,6 km/h (1 Bft) W-SW 255 ° 0 min 0 W/m² -0,5 °C 1,7 °C 3,2 km/h (1 Bft)
29.03.2025 23:59 21,9 °C 1,7 °C 48 % 85 % 1017,4 hPa 0,0 l/m² 2,0 km/h (1 Bft) W-SW 255 ° 0 min 0 W/m² -0,5 °C 1,7 °C 3,2 km/h (1 Bft)
_ Min-Zeit 07:58 00:10 08:00 18:07 01:24 - 23:20 - - - - 00:09 06:18 23:20
Minimum _ 21,6 °C 0,4 °C 45 % 61 % 1008,2 hPa - 0,0 km/h (0 Bft) - - - - -1,7 °C -2,7 °C 0,0 km/h (0 Bft)
_ Max-Zeit 22:14 15:57 22:09 03:51 22:34 23:59 15:11 - - 09:43 14:33 15:00 18:11 10:51
Maximum _ 22,4 °C 13,7 °C 52 % 91 % 1018,1 hPa 0,0 l/m² 29,0 km/h
N-NW (5 Bft)
- - 5 min 346 W/m² 7,7 °C 11,8 °C 41,8 km/h
NW (6 Bft)
Durchschnitt _ 21,9 °C 6,9 °C 47 % 81 % 1013,9 hPa #0,0 l/m² 10,2 km/h (2 Bft) NW - #9:10 h 62 W/m² 3,7 °C 3,8 °C 16,2 km/h (3 Bft)
© 2009 Mathias Hoßbach